<?xml version="1.0" encoding="UTF-8" standalone="no" ?>
<gpx xmlns="http://www.topografix.com/GPX/1/1" xmlns:xsi="http://www.w3.org/2001/XMLSchema-instance" xsi:schemaLocation="http://www.topografix.com/GPX/1/1 http://www.topografix.com/GPX/1/1/gpx.xsd" version="1.1" creator="VisuGPX - https://www.visugpx.com">
  <metadata>
    <name>aumelas</name>
    <desc><![CDATA[petite sortie vtt]]></desc>
  </metadata>
  <trk>
    <name><![CDATA[2014-04-26T06:29:42Z]]></name>
    <trkseg>
      <trkpt lat="43.6129" lon="3.61512">
        <ele>224.1245117</ele>
        <time>2014-04-26T06:29:42Z</time>
      </trkpt>
      <trkpt lat="43.61302" lon="3.61519">
        <ele>224.6052246</ele>
        <time>2014-04-26T06:29:48Z</time>
      </trkpt>
      <trkpt lat="43.61321" lon="3.61527">
        <ele>225.5665283</ele>
        <time>2014-04-26T06:29:56Z</time>
      </trkpt>
      <trkpt lat="43.61332" lon="3.61529">
        <ele>226.0471191</ele>
        <time>2014-04-26T06:30:02Z</time>
      </trkpt>
      <trkpt lat="43.61346" lon="3.61531">
        <ele>226.527832</ele>
        <time>2014-04-26T06:30:08Z</time>
      </trkpt>
      <trkpt lat="43.61372" lon="3.61537">
        <ele>227.9697266</ele>
        <time>2014-04-26T06:30:17Z</time>
      </trkpt>
      <trkpt lat="43.614" lon="3.61545">
        <ele>229.892334</ele>
        <time>2014-04-26T06:30:27Z</time>
      </trkpt>
      <trkpt lat="43.61426" lon="3.61554">
        <ele>230.8537598</ele>
        <time>2014-04-26T06:30:36Z</time>
      </trkpt>
      <trkpt lat="43.61454" lon="3.61565">
        <ele>232.7764893</ele>
        <time>2014-04-26T06:30:46Z</time>
      </trkpt>
      <trkpt lat="43.6148" lon="3.61581">
        <ele>233.7376709</ele>
        <time>2014-04-26T06:30:55Z</time>
      </trkpt>
      <trkpt lat="43.61513" lon="3.61607">
        <ele>234.6990967</ele>
        <time>2014-04-26T06:31:07Z</time>
      </trkpt>
      <trkpt lat="43.61538" lon="3.61626">
        <ele>235.1796875</ele>
        <time>2014-04-26T06:31:16Z</time>
      </trkpt>
      <trkpt lat="43.61543" lon="3.6163">
        <ele>235.1796875</ele>
        <time>2014-04-26T06:31:18Z</time>
      </trkpt>
      <trkpt lat="43.61554" lon="3.61622">
        <ele>236.1409912</ele>
        <time>2014-04-26T06:31:23Z</time>
      </trkpt>
      <trkpt lat="43.61558" lon="3.61617">
        <ele>235.6602783</ele>
        <time>2014-04-26T06:31:27Z</time>
      </trkpt>
      <trkpt lat="43.61558" lon="3.61617">
        <ele>234.6990967</ele>
        <time>2014-04-26T06:31:35Z</time>
      </trkpt>
      <trkpt lat="43.61562" lon="3.61608">
        <ele>234.2183838</ele>
        <time>2014-04-26T06:31:39Z</time>
      </trkpt>
      <trkpt lat="43.61569" lon="3.61608">
        <ele>234.2183838</ele>
        <time>2014-04-26T06:31:43Z</time>
      </trkpt>
      <trkpt lat="43.61583" lon="3.61624">
        <ele>234.2183838</ele>
        <time>2014-04-26T06:31:50Z</time>
      </trkpt>
      <trkpt lat="43.61597" lon="3.61642">
        <ele>233.7376709</ele>
        <time>2014-04-26T06:31:55Z</time>
      </trkpt>
      <trkpt lat="43.61626" lon="3.61671">
        <ele>231.8149414</ele>
        <time>2014-04-26T06:32:03Z</time>
      </trkpt>
      <trkpt lat="43.61652" lon="3.61693">
        <ele>231.3343506</ele>
        <time>2014-04-26T06:32:09Z</time>
      </trkpt>
      <trkpt lat="43.61657" lon="3.61695">
        <ele>230.8537598</ele>
        <time>2014-04-26T06:32:10Z</time>
      </trkpt>
      <trkpt lat="43.61664" lon="3.61702">
        <ele>230.3730469</ele>
        <time>2014-04-26T06:32:12Z</time>
      </trkpt>
      <trkpt lat="43.61677" lon="3.61721">
        <ele>228.9311523</ele>
        <time>2014-04-26T06:32:16Z</time>
      </trkpt>
      <trkpt lat="43.61696" lon="3.61734">
        <ele>227.9697266</ele>
        <time>2014-04-26T06:32:21Z</time>
      </trkpt>
      <trkpt lat="43.6171" lon="3.61729">
        <ele>227.4891357</ele>
        <time>2014-04-26T06:32:25Z</time>
      </trkpt>
      <trkpt lat="43.61739" lon="3.61697">
        <ele>225.0859375</ele>
        <time>2014-04-26T06:32:34Z</time>
      </trkpt>
      <trkpt lat="43.61764" lon="3.61667">
        <ele>223.6437988</ele>
        <time>2014-04-26T06:32:42Z</time>
      </trkpt>
      <trkpt lat="43.61784" lon="3.61635">
        <ele>223.163208</ele>
        <time>2014-04-26T06:32:50Z</time>
      </trkpt>
      <trkpt lat="43.61786" lon="3.61608">
        <ele>223.6437988</ele>
        <time>2014-04-26T06:32:55Z</time>
      </trkpt>
      <trkpt lat="43.61789" lon="3.61592">
        <ele>224.1245117</ele>
        <time>2014-04-26T06:32:58Z</time>
      </trkpt>
      <trkpt lat="43.61804" lon="3.61591">
        <ele>223.163208</ele>
        <time>2014-04-26T06:33:02Z</time>
      </trkpt>
      <trkpt lat="43.61809" lon="3.61594">
        <ele>223.163208</ele>
        <time>2014-04-26T06:33:03Z</time>
      </trkpt>
      <trkpt lat="43.61836" lon="3.61607">
        <ele>221.7211914</ele>
        <time>2014-04-26T06:33:10Z</time>
      </trkpt>
      <trkpt lat="43.61865" lon="3.61599">
        <ele>221.7211914</ele>
        <time>2014-04-26T06:33:17Z</time>
      </trkpt>
      <trkpt lat="43.61901" lon="3.61587">
        <ele>218.8372803</ele>
        <time>2014-04-26T06:33:26Z</time>
      </trkpt>
      <trkpt lat="43.61922" lon="3.61581">
        <ele>218.8372803</ele>
        <time>2014-04-26T06:33:31Z</time>
      </trkpt>
      <trkpt lat="43.61938" lon="3.6157">
        <ele>218.3565674</ele>
        <time>2014-04-26T06:33:35Z</time>
      </trkpt>
      <trkpt lat="43.61953" lon="3.61558">
        <ele>217.8759766</ele>
        <time>2014-04-26T06:33:39Z</time>
      </trkpt>
      <trkpt lat="43.61978" lon="3.6154">
        <ele>217.3953857</ele>
        <time>2014-04-26T06:33:46Z</time>
      </trkpt>
      <trkpt lat="43.61984" lon="3.61532">
        <ele>216.9146729</ele>
        <time>2014-04-26T06:33:48Z</time>
      </trkpt>
      <trkpt lat="43.61994" lon="3.61512">
        <ele>216.9146729</ele>
        <time>2014-04-26T06:33:52Z</time>
      </trkpt>
      <trkpt lat="43.62004" lon="3.61463">
        <ele>216.43396</ele>
        <time>2014-04-26T06:34:00Z</time>
      </trkpt>
      <trkpt lat="43.62005" lon="3.61457">
        <ele>216.9146729</ele>
        <time>2014-04-26T06:34:01Z</time>
      </trkpt>
      <trkpt lat="43.62017" lon="3.61439">
        <ele>216.43396</ele>
        <time>2014-04-26T06:34:05Z</time>
      </trkpt>
      <trkpt lat="43.62025" lon="3.61432">
        <ele>215.4726563</ele>
        <time>2014-04-26T06:34:07Z</time>
      </trkpt>
      <trkpt lat="43.62033" lon="3.61423">
        <ele>214.9919434</ele>
        <time>2014-04-26T06:34:09Z</time>
      </trkpt>
      <trkpt lat="43.6204" lon="3.61413">
        <ele>214.5112305</ele>
        <time>2014-04-26T06:34:11Z</time>
      </trkpt>
      <trkpt lat="43.62055" lon="3.61374">
        <ele>214.0306396</ele>
        <time>2014-04-26T06:34:18Z</time>
      </trkpt>
      <trkpt lat="43.62068" lon="3.61321">
        <ele>212.588623</ele>
        <time>2014-04-26T06:34:27Z</time>
      </trkpt>
      <trkpt lat="43.62068" lon="3.61315">
        <ele>212.588623</ele>
        <time>2014-04-26T06:34:28Z</time>
      </trkpt>
      <trkpt lat="43.62068" lon="3.61281">
        <ele>212.1080322</ele>
        <time>2014-04-26T06:34:33Z</time>
      </trkpt>
      <trkpt lat="43.6206" lon="3.61226">
        <ele>210.6660156</ele>
        <time>2014-04-26T06:34:41Z</time>
      </trkpt>
      <trkpt lat="43.62042" lon="3.6118">
        <ele>209.2241211</ele>
        <time>2014-04-26T06:34:48Z</time>
      </trkpt>
      <trkpt lat="43.62027" lon="3.61156">
        <ele>208.7434082</ele>
        <time>2014-04-26T06:34:52Z</time>
      </trkpt>
      <trkpt lat="43.6202" lon="3.61123">
        <ele>207.3013916</ele>
        <time>2014-04-26T06:34:57Z</time>
      </trkpt>
      <trkpt lat="43.62025" lon="3.61111">
        <ele>206.8206787</ele>
        <time>2014-04-26T06:34:59Z</time>
      </trkpt>
      <trkpt lat="43.62031" lon="3.61099">
        <ele>206.3400879</ele>
        <time>2014-04-26T06:35:01Z</time>
      </trkpt>
      <trkpt lat="43.6204" lon="3.61063">
        <ele>205.8594971</ele>
        <time>2014-04-26T06:35:06Z</time>
      </trkpt>
      <trkpt lat="43.62041" lon="3.61031">
        <ele>205.8594971</ele>
        <time>2014-04-26T06:35:10Z</time>
      </trkpt>
      <trkpt lat="43.6203" lon="3.60978">
        <ele>203.9368896</ele>
        <time>2014-04-26T06:35:17Z</time>
      </trkpt>
      <trkpt lat="43.62008" lon="3.6092">
        <ele>202.0142822</ele>
        <time>2014-04-26T06:35:25Z</time>
      </trkpt>
      <trkpt lat="43.61987" lon="3.6087">
        <ele>202.9754639</ele>
        <time>2014-04-26T06:35:32Z</time>
      </trkpt>
      <trkpt lat="43.61963" lon="3.60803">
        <ele>202.9754639</ele>
        <time>2014-04-26T06:35:41Z</time>
      </trkpt>
      <trkpt lat="43.61952" lon="3.60781">
        <ele>202.9754639</ele>
        <time>2014-04-26T06:35:44Z</time>
      </trkpt>
      <trkpt lat="43.6195" lon="3.60751">
        <ele>203.9368896</ele>
        <time>2014-04-26T06:35:48Z</time>
      </trkpt>
      <trkpt lat="43.61962" lon="3.60735">
        <ele>200.0916748</ele>
        <time>2014-04-26T06:35:51Z</time>
      </trkpt>
      <trkpt lat="43.61968" lon="3.60731">
        <ele>198.6495361</ele>
        <time>2014-04-26T06:35:52Z</time>
      </trkpt>
      <trkpt lat="43.61998" lon="3.60708">
        <ele>196.2463379</ele>
        <time>2014-04-26T06:35:57Z</time>
      </trkpt>
      <trkpt lat="43.62013" lon="3.60681">
        <ele>194.8043213</ele>
        <time>2014-04-26T06:36:01Z</time>
      </trkpt>
      <trkpt lat="43.62009" lon="3.60656">
        <ele>193.8430176</ele>
        <time>2014-04-26T06:36:04Z</time>
      </trkpt>
      <trkpt lat="43.62001" lon="3.60633">
        <ele>193.3623047</ele>
        <time>2014-04-26T06:36:07Z</time>
      </trkpt>
      <trkpt lat="43.62002" lon="3.60605">
        <ele>191.4395752</ele>
        <time>2014-04-26T06:36:11Z</time>
      </trkpt>
      <trkpt lat="43.62006" lon="3.60599">
        <ele>191.4395752</ele>
        <time>2014-04-26T06:36:12Z</time>
      </trkpt>
      <trkpt lat="43.62025" lon="3.60576">
        <ele>191.4395752</ele>
        <time>2014-04-26T06:36:16Z</time>
      </trkpt>
      <trkpt lat="43.6204" lon="3.60549">
        <ele>190.9589844</ele>
        <time>2014-04-26T06:36:20Z</time>
      </trkpt>
      <trkpt lat="43.6205" lon="3.60501">
        <ele>189.5169678</ele>
        <time>2014-04-26T06:36:26Z</time>
      </trkpt>
      <trkpt lat="43.62055" lon="3.60486">
        <ele>189.036377</ele>
        <time>2014-04-26T06:36:28Z</time>
      </trkpt>
      <trkpt lat="43.62055" lon="3.60457">
        <ele>187.5943604</ele>
        <time>2014-04-26T06:36:32Z</time>
      </trkpt>
      <trkpt lat="43.62055" lon="3.6044">
        <ele>187.1137695</ele>
        <time>2014-04-26T06:36:35Z</time>
      </trkpt>
      <trkpt lat="43.62067" lon="3.60431">
        <ele>186.1524658</ele>
        <time>2014-04-26T06:36:38Z</time>
      </trkpt>
      <trkpt lat="43.62083" lon="3.60411">
        <ele>186.1524658</ele>
        <time>2014-04-26T06:36:42Z</time>
      </trkpt>
      <trkpt lat="43.62085" lon="3.60404">
        <ele>185.6717529</ele>
        <time>2014-04-26T06:36:43Z</time>
      </trkpt>
      <trkpt lat="43.62105" lon="3.60345">
        <ele>184.7105713</ele>
        <time>2014-04-26T06:36:51Z</time>
      </trkpt>
      <trkpt lat="43.62123" lon="3.60301">
        <ele>183.2684326</ele>
        <time>2014-04-26T06:36:57Z</time>
      </trkpt>
      <trkpt lat="43.62125" lon="3.6027">
        <ele>182.7878418</ele>
        <time>2014-04-26T06:37:01Z</time>
      </trkpt>
      <trkpt lat="43.62123" lon="3.60246">
        <ele>182.7878418</ele>
        <time>2014-04-26T06:37:04Z</time>
      </trkpt>
      <trkpt lat="43.62112" lon="3.6022">
        <ele>182.3071289</ele>
        <time>2014-04-26T06:37:08Z</time>
      </trkpt>
      <trkpt lat="43.62111" lon="3.60185">
        <ele>180.8652344</ele>
        <time>2014-04-26T06:37:13Z</time>
      </trkpt>
      <trkpt lat="43.62115" lon="3.60179">
        <ele>180.3845215</ele>
        <time>2014-04-26T06:37:14Z</time>
      </trkpt>
      <trkpt lat="43.62128" lon="3.6016">
        <ele>179.9038086</ele>
        <time>2014-04-26T06:37:17Z</time>
      </trkpt>
      <trkpt lat="43.62155" lon="3.60132">
        <ele>178.4619141</ele>
        <time>2014-04-26T06:37:22Z</time>
      </trkpt>
      <trkpt lat="43.62165" lon="3.6012">
        <ele>177.9812012</ele>
        <time>2014-04-26T06:37:24Z</time>
      </trkpt>
      <trkpt lat="43.62181" lon="3.60082">
        <ele>177.5006104</ele>
        <time>2014-04-26T06:37:29Z</time>
      </trkpt>
      <trkpt lat="43.62196" lon="3.60051">
        <ele>175.5778809</ele>
        <time>2014-04-26T06:37:33Z</time>
      </trkpt>
      <trkpt lat="43.62222" lon="3.60006">
        <ele>174.6165771</ele>
        <time>2014-04-26T06:37:39Z</time>
      </trkpt>
      <trkpt lat="43.62231" lon="3.59969">
        <ele>173.6552734</ele>
        <time>2014-04-26T06:37:43Z</time>
      </trkpt>
      <trkpt lat="43.62235" lon="3.599">
        <ele>171.2520752</ele>
        <time>2014-04-26T06:37:50Z</time>
      </trkpt>
      <trkpt lat="43.62241" lon="3.59842">
        <ele>169.3294678</ele>
        <time>2014-04-26T06:37:56Z</time>
      </trkpt>
      <trkpt lat="43.62237" lon="3.59806">
        <ele>167.8873291</ele>
        <time>2014-04-26T06:38:00Z</time>
      </trkpt>
      <trkpt lat="43.62244" lon="3.59774">
        <ele>167.4067383</ele>
        <time>2014-04-26T06:38:04Z</time>
      </trkpt>
      <trkpt lat="43.62264" lon="3.59736">
        <ele>165.9647217</ele>
        <time>2014-04-26T06:38:09Z</time>
      </trkpt>
      <trkpt lat="43.62277" lon="3.59677">
        <ele>163.0808105</ele>
        <time>2014-04-26T06:38:15Z</time>
      </trkpt>
      <trkpt lat="43.62293" lon="3.59605">
        <ele>160.1968994</ele>
        <time>2014-04-26T06:38:22Z</time>
      </trkpt>
      <trkpt lat="43.62305" lon="3.59531">
        <ele>158.2741699</ele>
        <time>2014-04-26T06:38:29Z</time>
      </trkpt>
      <trkpt lat="43.62312" lon="3.59457">
        <ele>156.8321533</ele>
        <time>2014-04-26T06:38:36Z</time>
      </trkpt>
      <trkpt lat="43.62314" lon="3.59398">
        <ele>154.4289551</ele>
        <time>2014-04-26T06:38:42Z</time>
      </trkpt>
      <trkpt lat="43.62313" lon="3.59336">
        <ele>152.5063477</ele>
        <time>2014-04-26T06:38:48Z</time>
      </trkpt>
      <trkpt lat="43.62308" lon="3.59295">
        <ele>150.5836182</ele>
        <time>2014-04-26T06:38:52Z</time>
      </trkpt>
      <trkpt lat="43.62306" lon="3.59285">
        <ele>150.1030273</ele>
        <time>2014-04-26T06:38:53Z</time>
      </trkpt>
      <trkpt lat="43.62303" lon="3.59245">
        <ele>148.6610107</ele>
        <time>2014-04-26T06:38:57Z</time>
      </trkpt>
      <trkpt lat="43.62308" lon="3.59188">
        <ele>146.7384033</ele>
        <time>2014-04-26T06:39:03Z</time>
      </trkpt>
      <trkpt lat="43.62317" lon="3.59175">
        <ele>145.7770996</ele>
        <time>2014-04-26T06:39:07Z</time>
      </trkpt>
      <trkpt lat="43.62322" lon="3.59184">
        <ele>144.8157959</ele>
        <time>2014-04-26T06:39:10Z</time>
      </trkpt>
      <trkpt lat="43.62322" lon="3.59189">
        <ele>144.8157959</ele>
        <time>2014-04-26T06:39:11Z</time>
      </trkpt>
      <trkpt lat="43.62337" lon="3.59227">
        <ele>142.8930664</ele>
        <time>2014-04-26T06:39:17Z</time>
      </trkpt>
      <trkpt lat="43.62359" lon="3.59241">
        <ele>140.970459</ele>
        <time>2014-04-26T06:39:21Z</time>
      </trkpt>
      <trkpt lat="43.62387" lon="3.59248">
        <ele>137.605835</ele>
        <time>2014-04-26T06:39:26Z</time>
      </trkpt>
      <trkpt lat="43.62427" lon="3.59269">
        <ele>134.2412109</ele>
        <time>2014-04-26T06:39:32Z</time>
      </trkpt>
      <trkpt lat="43.62444" lon="3.59276">
        <ele>133.2799072</ele>
        <time>2014-04-26T06:39:34Z</time>
      </trkpt>
      <trkpt lat="43.62502" lon="3.59284">
        <ele>129.4346924</ele>
        <time>2014-04-26T06:39:40Z</time>
      </trkpt>
      <trkpt lat="43.62596" lon="3.59292">
        <ele>124.6280518</ele>
        <time>2014-04-26T06:39:49Z</time>
      </trkpt>
      <trkpt lat="43.62654" lon="3.59296">
        <ele>121.7441406</ele>
        <time>2014-04-26T06:39:55Z</time>
      </trkpt>
      <trkpt lat="43.62682" lon="3.59283">
        <ele>120.302124</ele>
        <time>2014-04-26T06:39:59Z</time>
      </trkpt>
      <trkpt lat="43.62734" lon="3.59232">
        <ele>117.4182129</ele>
        <time>2014-04-26T06:40:08Z</time>
      </trkpt>
      <trkpt lat="43.62754" lon="3.59223">
        <ele>117.4182129</ele>
        <time>2014-04-26T06:40:12Z</time>
      </trkpt>
      <trkpt lat="43.62776" lon="3.59221">
        <ele>116.4567871</ele>
        <time>2014-04-26T06:40:17Z</time>
      </trkpt>
      <trkpt lat="43.62815" lon="3.59172">
        <ele>117.4182129</ele>
        <time>2014-04-26T06:40:27Z</time>
      </trkpt>
      <trkpt lat="43.62848" lon="3.59121">
        <ele>117.8988037</ele>
        <time>2014-04-26T06:40:36Z</time>
      </trkpt>
      <trkpt lat="43.62877" lon="3.59074">
        <ele>118.3793945</ele>
        <time>2014-04-26T06:40:44Z</time>
      </trkpt>
      <trkpt lat="43.62904" lon="3.59031">
        <ele>118.3793945</ele>
        <time>2014-04-26T06:40:51Z</time>
      </trkpt>
      <trkpt lat="43.62932" lon="3.58986">
        <ele>118.8601074</ele>
        <time>2014-04-26T06:40:59Z</time>
      </trkpt>
      <trkpt lat="43.62951" lon="3.58961">
        <ele>119.3408203</ele>
        <time>2014-04-26T06:41:05Z</time>
      </trkpt>
      <trkpt lat="43.62973" lon="3.58937">
        <ele>119.3408203</ele>
        <time>2014-04-26T06:41:12Z</time>
      </trkpt>
      <trkpt lat="43.62994" lon="3.58919">
        <ele>119.8214111</ele>
        <time>2014-04-26T06:41:19Z</time>
      </trkpt>
      <trkpt lat="43.63016" lon="3.58909">
        <ele>121.2635498</ele>
        <time>2014-04-26T06:41:27Z</time>
      </trkpt>
      <trkpt lat="43.63033" lon="3.58899">
        <ele>122.2247314</ele>
        <time>2014-04-26T06:41:34Z</time>
      </trkpt>
      <trkpt lat="43.63043" lon="3.58885">
        <ele>122.2247314</ele>
        <time>2014-04-26T06:41:39Z</time>
      </trkpt>
      <trkpt lat="43.63063" lon="3.58867">
        <ele>121.2635498</ele>
        <time>2014-04-26T06:41:45Z</time>
      </trkpt>
      <trkpt lat="43.63099" lon="3.58843">
        <ele>122.2247314</ele>
        <time>2014-04-26T06:41:55Z</time>
      </trkpt>
      <trkpt lat="43.63126" lon="3.58827">
        <ele>122.2247314</ele>
        <time>2014-04-26T06:42:03Z</time>
      </trkpt>
      <trkpt lat="43.63138" lon="3.58816">
        <ele>121.7441406</ele>
        <time>2014-04-26T06:42:08Z</time>
      </trkpt>
      <trkpt lat="43.63146" lon="3.58797">
        <ele>120.7828369</ele>
        <time>2014-04-26T06:42:12Z</time>
      </trkpt>
      <trkpt lat="43.63149" lon="3.58791">
        <ele>120.302124</ele>
        <time>2014-04-26T06:42:13Z</time>
      </trkpt>
      <trkpt lat="43.63163" lon="3.58774">
        <ele>119.8214111</ele>
        <time>2014-04-26T06:42:17Z</time>
      </trkpt>
      <trkpt lat="43.63183" lon="3.58753">
        <ele>119.3408203</ele>
        <time>2014-04-26T06:42:24Z</time>
      </trkpt>
      <trkpt lat="43.63189" lon="3.58739">
        <ele>119.3408203</ele>
        <time>2014-04-26T06:42:28Z</time>
      </trkpt>
      <trkpt lat="43.63193" lon="3.58733">
        <ele>119.3408203</ele>
        <time>2014-04-26T06:42:30Z</time>
      </trkpt>
      <trkpt lat="43.632" lon="3.58727">
        <ele>119.8214111</ele>
        <time>2014-04-26T06:42:35Z</time>
      </trkpt>
      <trkpt lat="43.632" lon="3.58724">
        <ele>119.8214111</ele>
        <time>2014-04-26T06:42:36Z</time>
      </trkpt>
      <trkpt lat="43.63193" lon="3.58693">
        <ele>118.3793945</ele>
        <time>2014-04-26T06:42:44Z</time>
      </trkpt>
      <trkpt lat="43.63194" lon="3.58679">
        <ele>117.4182129</ele>
        <time>2014-04-26T06:42:49Z</time>
      </trkpt>
      <trkpt lat="43.63196" lon="3.58675">
        <ele>117.4182129</ele>
        <time>2014-04-26T06:42:50Z</time>
      </trkpt>
      <trkpt lat="43.63211" lon="3.58661">
        <ele>116.4567871</ele>
        <time>2014-04-26T06:42:54Z</time>
      </trkpt>
      <trkpt lat="43.63229" lon="3.58647">
        <ele>118.8601074</ele>
        <time>2014-04-26T06:43:00Z</time>
      </trkpt>
      <trkpt lat="43.63233" lon="3.58643">
        <ele>119.3408203</ele>
        <time>2014-04-26T06:43:02Z</time>
      </trkpt>
      <trkpt lat="43.63238" lon="3.58652">
        <ele>122.2247314</ele>
        <time>2014-04-26T06:43:07Z</time>
      </trkpt>
      <trkpt lat="43.63237" lon="3.58655">
        <ele>122.7054443</ele>
        <time>2014-04-26T06:43:08Z</time>
      </trkpt>
      <trkpt lat="43.63226" lon="3.5868">
        <ele>124.6280518</ele>
        <time>2014-04-26T06:43:16Z</time>
      </trkpt>
      <trkpt lat="43.63229" lon="3.58703">
        <ele>126.0699463</ele>
        <time>2014-04-26T06:43:23Z</time>
      </trkpt>
      <trkpt lat="43.63236" lon="3.58718">
        <ele>126.0699463</ele>
        <time>2014-04-26T06:43:28Z</time>
      </trkpt>
      <trkpt lat="43.63248" lon="3.58729">
        <ele>127.5119629</ele>
        <time>2014-04-26T06:43:33Z</time>
      </trkpt>
      <trkpt lat="43.63262" lon="3.58746">
        <ele>130.3959961</ele>
        <time>2014-04-26T06:43:41Z</time>
      </trkpt>
      <trkpt lat="43.63264" lon="3.58748">
        <ele>130.876709</ele>
        <time>2014-04-26T06:43:42Z</time>
      </trkpt>
      <trkpt lat="43.63273" lon="3.58771">
        <ele>132.3186035</ele>
        <time>2014-04-26T06:43:49Z</time>
      </trkpt>
      <trkpt lat="43.6329" lon="3.58775">
        <ele>131.8378906</ele>
        <time>2014-04-26T06:43:50Z</time>
      </trkpt>
      <trkpt lat="43.63301" lon="3.58792">
        <ele>131.8378906</ele>
        <time>2014-04-26T06:43:58Z</time>
      </trkpt>
      <trkpt lat="43.6332" lon="3.58791">
        <ele>130.876709</ele>
        <time>2014-04-26T06:44:04Z</time>
      </trkpt>
      <trkpt lat="43.63341" lon="3.58775">
        <ele>129.4346924</ele>
        <time>2014-04-26T06:44:11Z</time>
      </trkpt>
      <trkpt lat="43.63344" lon="3.58773">
        <ele>129.4346924</ele>
        <time>2014-04-26T06:44:12Z</time>
      </trkpt>
      <trkpt lat="43.63357" lon="3.58783">
        <ele>128.9541016</ele>
        <time>2014-04-26T06:44:16Z</time>
      </trkpt>
      <trkpt lat="43.63359" lon="3.58793">
        <ele>128.4733887</ele>
        <time>2014-04-26T06:44:18Z</time>
      </trkpt>
      <trkpt lat="43.63367" lon="3.58846">
        <ele>128.4733887</ele>
        <time>2014-04-26T06:44:28Z</time>
      </trkpt>
      <trkpt lat="43.63377" lon="3.58901">
        <ele>129.4346924</ele>
        <time>2014-04-26T06:44:38Z</time>
      </trkpt>
      <trkpt lat="43.63387" lon="3.58925">
        <ele>130.876709</ele>
        <time>2014-04-26T06:44:43Z</time>
      </trkpt>
      <trkpt lat="43.63398" lon="3.58956">
        <ele>132.3186035</ele>
        <time>2014-04-26T06:44:50Z</time>
      </trkpt>
      <trkpt lat="43.63407" lon="3.58985">
        <ele>133.760498</ele>
        <time>2014-04-26T06:44:56Z</time>
      </trkpt>
      <trkpt lat="43.63411" lon="3.59035">
        <ele>135.2025146</ele>
        <time>2014-04-26T06:45:05Z</time>
      </trkpt>
      <trkpt lat="43.63416" lon="3.5907">
        <ele>135.6831055</ele>
        <time>2014-04-26T06:45:12Z</time>
      </trkpt>
      <trkpt lat="43.63418" lon="3.59095">
        <ele>136.6446533</ele>
        <time>2014-04-26T06:45:19Z</time>
      </trkpt>
      <trkpt lat="43.63416" lon="3.59126">
        <ele>139.0478516</ele>
        <time>2014-04-26T06:45:29Z</time>
      </trkpt>
      <trkpt lat="43.63413" lon="3.59149">
        <ele>140.970459</ele>
        <time>2014-04-26T06:45:37Z</time>
      </trkpt>
      <trkpt lat="43.63404" lon="3.59167">
        <ele>143.3736572</ele>
        <time>2014-04-26T06:45:45Z</time>
      </trkpt>
      <trkpt lat="43.63395" lon="3.59183">
        <ele>146.2578125</ele>
        <time>2014-04-26T06:45:52Z</time>
      </trkpt>
      <trkpt lat="43.63389" lon="3.59205">
        <ele>149.1416016</ele>
        <time>2014-04-26T06:46:01Z</time>
      </trkpt>
      <trkpt lat="43.63383" lon="3.59225">
        <ele>151.064209</ele>
        <time>2014-04-26T06:46:10Z</time>
      </trkpt>
      <trkpt lat="43.63377" lon="3.59246">
        <ele>153.4676514</ele>
        <time>2014-04-26T06:46:19Z</time>
      </trkpt>
      <trkpt lat="43.6337" lon="3.59271">
        <ele>156.8321533</ele>
        <time>2014-04-26T06:46:30Z</time>
      </trkpt>
      <trkpt lat="43.63367" lon="3.5929">
        <ele>158.2741699</ele>
        <time>2014-04-26T06:46:38Z</time>
      </trkpt>
      <trkpt lat="43.63365" lon="3.59307">
        <ele>159.2354736</ele>
        <time>2014-04-26T06:46:45Z</time>
      </trkpt>
      <trkpt lat="43.63362" lon="3.59324">
        <ele>160.6774902</ele>
        <time>2014-04-26T06:46:52Z</time>
      </trkpt>
      <trkpt lat="43.63358" lon="3.59348">
        <ele>162.1195068</ele>
        <time>2014-04-26T06:47:01Z</time>
      </trkpt>
      <trkpt lat="43.63353" lon="3.59372">
        <ele>163.0808105</ele>
        <time>2014-04-26T06:47:09Z</time>
      </trkpt>
      <trkpt lat="43.6335" lon="3.59395">
        <ele>164.0421143</ele>
        <time>2014-04-26T06:47:17Z</time>
      </trkpt>
      <trkpt lat="43.63347" lon="3.59428">
        <ele>165.003418</ele>
        <time>2014-04-26T06:47:27Z</time>
      </trkpt>
      <trkpt lat="43.63341" lon="3.59452">
        <ele>165.9647217</ele>
        <time>2014-04-26T06:47:35Z</time>
      </trkpt>
      <trkpt lat="43.63328" lon="3.5947">
        <ele>166.9260254</ele>
        <time>2014-04-26T06:47:43Z</time>
      </trkpt>
      <trkpt lat="43.63318" lon="3.59497">
        <ele>168.368042</ele>
        <time>2014-04-26T06:47:52Z</time>
      </trkpt>
      <trkpt lat="43.63311" lon="3.59527">
        <ele>169.3294678</ele>
        <time>2014-04-26T06:48:01Z</time>
      </trkpt>
      <trkpt lat="43.63306" lon="3.59556">
        <ele>170.2906494</ele>
        <time>2014-04-26T06:48:10Z</time>
      </trkpt>
      <trkpt lat="43.63302" lon="3.59587">
        <ele>172.6939697</ele>
        <time>2014-04-26T06:48:20Z</time>
      </trkpt>
      <trkpt lat="43.63299" lon="3.59612">
        <ele>175.5778809</ele>
        <time>2014-04-26T06:48:30Z</time>
      </trkpt>
      <trkpt lat="43.63294" lon="3.59637">
        <ele>177.9812012</ele>
        <time>2014-04-26T06:48:40Z</time>
      </trkpt>
      <trkpt lat="43.63286" lon="3.59658">
        <ele>180.3845215</ele>
        <time>2014-04-26T06:48:49Z</time>
      </trkpt>
      <trkpt lat="43.63278" lon="3.59678">
        <ele>182.7878418</ele>
        <time>2014-04-26T06:48:59Z</time>
      </trkpt>
      <trkpt lat="43.6327" lon="3.597">
        <ele>186.1524658</ele>
        <time>2014-04-26T06:49:10Z</time>
      </trkpt>
      <trkpt lat="43.63264" lon="3.59715">
        <ele>187.1137695</ele>
        <time>2014-04-26T06:49:17Z</time>
      </trkpt>
      <trkpt lat="43.63256" lon="3.59733">
        <ele>187.5943604</ele>
        <time>2014-04-26T06:49:26Z</time>
      </trkpt>
      <trkpt lat="43.63246" lon="3.59744">
        <ele>189.5169678</ele>
        <time>2014-04-26T06:49:34Z</time>
      </trkpt>
      <trkpt lat="43.63237" lon="3.59754">
        <ele>190.4783936</ele>
        <time>2014-04-26T06:49:42Z</time>
      </trkpt>
      <trkpt lat="43.63226" lon="3.59766">
        <ele>191.9202881</ele>
        <time>2014-04-26T06:49:51Z</time>
      </trkpt>
      <trkpt lat="43.63215" lon="3.59778">
        <ele>193.8430176</ele>
        <time>2014-04-26T06:50:00Z</time>
      </trkpt>
      <trkpt lat="43.63204" lon="3.5979">
        <ele>198.1689453</ele>
        <time>2014-04-26T06:50:09Z</time>
      </trkpt>
      <trkpt lat="43.63194" lon="3.598">
        <ele>199.130127</ele>
        <time>2014-04-26T06:50:16Z</time>
      </trkpt>
      <trkpt lat="43.63182" lon="3.59813">
        <ele>202.0142822</ele>
        <time>2014-04-26T06:50:26Z</time>
      </trkpt>
      <trkpt lat="43.6317" lon="3.59825">
        <ele>205.8594971</ele>
        <time>2014-04-26T06:50:36Z</time>
      </trkpt>
      <trkpt lat="43.63159" lon="3.59836">
        <ele>208.2628174</ele>
        <time>2014-04-26T06:50:45Z</time>
      </trkpt>
      <trkpt lat="43.63148" lon="3.59847">
        <ele>211.1467285</ele>
        <time>2014-04-26T06:50:54Z</time>
      </trkpt>
      <trkpt lat="43.63141" lon="3.59857">
        <ele>212.1080322</ele>
        <time>2014-04-26T06:51:01Z</time>
      </trkpt>
      <trkpt lat="43.63131" lon="3.59877">
        <ele>214.0306396</ele>
        <time>2014-04-26T06:51:12Z</time>
      </trkpt>
      <trkpt lat="43.63125" lon="3.5989">
        <ele>214.5112305</ele>
        <time>2014-04-26T06:51:19Z</time>
      </trkpt>
      <trkpt lat="43.63114" lon="3.59909">
        <ele>215.9532471</ele>
        <time>2014-04-26T06:51:30Z</time>
      </trkpt>
      <trkpt lat="43.63107" lon="3.59929">
        <ele>216.43396</ele>
        <time>2014-04-26T06:51:40Z</time>
      </trkpt>
      <trkpt lat="43.63104" lon="3.59943">
        <ele>217.8759766</ele>
        <time>2014-04-26T06:51:46Z</time>
      </trkpt>
      <trkpt lat="43.63107" lon="3.59945">
        <ele>217.3953857</ele>
        <time>2014-04-26T06:51:51Z</time>
      </trkpt>
      <trkpt lat="43.63107" lon="3.59942">
        <ele>217.3953857</ele>
        <time>2014-04-26T06:51:52Z</time>
      </trkpt>
      <trkpt lat="43.63112" lon="3.5992">
        <ele>215.9532471</ele>
        <time>2014-04-26T06:51:59Z</time>
      </trkpt>
      <trkpt lat="43.63119" lon="3.59905">
        <ele>214.9919434</ele>
        <time>2014-04-26T06:52:05Z</time>
      </trkpt>
      <trkpt lat="43.63122" lon="3.59902">
        <ele>214.5112305</ele>
        <time>2014-04-26T06:52:08Z</time>
      </trkpt>
      <trkpt lat="43.6312" lon="3.59899">
        <ele>214.5112305</ele>
        <time>2014-04-26T06:52:13Z</time>
      </trkpt>
      <trkpt lat="43.63119" lon="3.599">
        <ele>214.5112305</ele>
        <time>2014-04-26T06:52:14Z</time>
      </trkpt>
      <trkpt lat="43.6311" lon="3.59927">
        <ele>214.0306396</ele>
        <time>2014-04-26T06:52:25Z</time>
      </trkpt>
      <trkpt lat="43.63107" lon="3.59946">
        <ele>215.4726563</ele>
        <time>2014-04-26T06:52:32Z</time>
      </trkpt>
      <trkpt lat="43.63107" lon="3.59974">
        <ele>217.3953857</ele>
        <time>2014-04-26T06:52:41Z</time>
      </trkpt>
      <trkpt lat="43.63106" lon="3.6">
        <ele>218.8372803</ele>
        <time>2014-04-26T06:52:49Z</time>
      </trkpt>
      <trkpt lat="43.63102" lon="3.60029">
        <ele>220.2791748</ele>
        <time>2014-04-26T06:52:58Z</time>
      </trkpt>
      <trkpt lat="43.63098" lon="3.60061">
        <ele>221.7211914</ele>
        <time>2014-04-26T06:53:08Z</time>
      </trkpt>
      <trkpt lat="43.63097" lon="3.60093">
        <ele>223.6437988</ele>
        <time>2014-04-26T06:53:18Z</time>
      </trkpt>
      <trkpt lat="43.63098" lon="3.6012">
        <ele>224.6052246</ele>
        <time>2014-04-26T06:53:26Z</time>
      </trkpt>
      <trkpt lat="43.63103" lon="3.60153">
        <ele>226.527832</ele>
        <time>2014-04-26T06:53:36Z</time>
      </trkpt>
      <trkpt lat="43.63104" lon="3.60183">
        <ele>227.9697266</ele>
        <time>2014-04-26T06:53:44Z</time>
      </trkpt>
      <trkpt lat="43.63099" lon="3.60214">
        <ele>230.8537598</ele>
        <time>2014-04-26T06:53:53Z</time>
      </trkpt>
      <trkpt lat="43.63093" lon="3.60244">
        <ele>232.2957764</ele>
        <time>2014-04-26T06:54:02Z</time>
      </trkpt>
      <trkpt lat="43.63087" lon="3.60282">
        <ele>234.2183838</ele>
        <time>2014-04-26T06:54:12Z</time>
      </trkpt>
      <trkpt lat="43.63078" lon="3.60327">
        <ele>236.1409912</ele>
        <time>2014-04-26T06:54:23Z</time>
      </trkpt>
      <trkpt lat="43.63074" lon="3.60371">
        <ele>238.0635986</ele>
        <time>2014-04-26T06:54:33Z</time>
      </trkpt>
      <trkpt lat="43.63068" lon="3.6042">
        <ele>239.0249023</ele>
        <time>2014-04-26T06:54:44Z</time>
      </trkpt>
      <trkpt lat="43.63063" lon="3.60463">
        <ele>239.9862061</ele>
        <time>2014-04-26T06:54:54Z</time>
      </trkpt>
      <trkpt lat="43.63061" lon="3.60499">
        <ele>241.4282227</ele>
        <time>2014-04-26T06:55:04Z</time>
      </trkpt>
      <trkpt lat="43.63058" lon="3.60526">
        <ele>243.3508301</ele>
        <time>2014-04-26T06:55:13Z</time>
      </trkpt>
      <trkpt lat="43.63047" lon="3.60538">
        <ele>245.2734375</ele>
        <time>2014-04-26T06:55:20Z</time>
      </trkpt>
      <trkpt lat="43.63033" lon="3.60538">
        <ele>247.6767578</ele>
        <time>2014-04-26T06:55:27Z</time>
      </trkpt>
      <trkpt lat="43.63019" lon="3.6053">
        <ele>248.6381836</ele>
        <time>2014-04-26T06:55:34Z</time>
      </trkpt>
      <trkpt lat="43.63007" lon="3.60528">
        <ele>249.5994873</ele>
        <time>2014-04-26T06:55:40Z</time>
      </trkpt>
      <trkpt lat="43.6299" lon="3.60521">
        <ele>249.5994873</ele>
        <time>2014-04-26T06:55:46Z</time>
      </trkpt>
      <trkpt lat="43.62977" lon="3.60515">
        <ele>249.1187744</ele>
        <time>2014-04-26T06:55:51Z</time>
      </trkpt>
      <trkpt lat="43.62975" lon="3.60514">
        <ele>248.6381836</ele>
        <time>2014-04-26T06:55:52Z</time>
      </trkpt>
      <trkpt lat="43.62973" lon="3.60517">
        <ele>248.6381836</ele>
        <time>2014-04-26T06:55:55Z</time>
      </trkpt>
      <trkpt lat="43.62984" lon="3.6052">
        <ele>247.1960449</ele>
        <time>2014-04-26T06:56:01Z</time>
      </trkpt>
      <trkpt lat="43.62992" lon="3.60523">
        <ele>247.1960449</ele>
        <time>2014-04-26T06:56:08Z</time>
      </trkpt>
      <trkpt lat="43.62992" lon="3.60523">
        <ele>247.1960449</ele>
        <time>2014-04-26T06:56:09Z</time>
      </trkpt>
      <trkpt lat="43.62994" lon="3.60522">
        <ele>248.1575928</ele>
        <time>2014-04-26T06:57:00Z</time>
      </trkpt>
      <trkpt lat="43.63004" lon="3.60523">
        <ele>248.6381836</ele>
        <time>2014-04-26T06:57:05Z</time>
      </trkpt>
      <trkpt lat="43.6302" lon="3.6053">
        <ele>248.6381836</ele>
        <time>2014-04-26T06:57:11Z</time>
      </trkpt>
      <trkpt lat="43.63032" lon="3.60542">
        <ele>248.1575928</ele>
        <time>2014-04-26T06:57:16Z</time>
      </trkpt>
      <trkpt lat="43.63046" lon="3.6057">
        <ele>246.7154541</ele>
        <time>2014-04-26T06:57:25Z</time>
      </trkpt>
      <trkpt lat="43.63049" lon="3.60596">
        <ele>247.1960449</ele>
        <time>2014-04-26T06:57:32Z</time>
      </trkpt>
      <trkpt lat="43.63046" lon="3.60619">
        <ele>247.6767578</ele>
        <time>2014-04-26T06:57:39Z</time>
      </trkpt>
      <trkpt lat="43.63039" lon="3.6064">
        <ele>248.1575928</ele>
        <time>2014-04-26T06:57:45Z</time>
      </trkpt>
      <trkpt lat="43.63026" lon="3.60658">
        <ele>247.6767578</ele>
        <time>2014-04-26T06:57:51Z</time>
      </trkpt>
      <trkpt lat="43.63018" lon="3.60669">
        <ele>247.1960449</ele>
        <time>2014-04-26T06:57:56Z</time>
      </trkpt>
      <trkpt lat="43.63004" lon="3.60686">
        <ele>245.7541504</ele>
        <time>2014-04-26T06:58:04Z</time>
      </trkpt>
      <trkpt lat="43.62991" lon="3.60705">
        <ele>246.7154541</ele>
        <time>2014-04-26T06:58:11Z</time>
      </trkpt>
      <trkpt lat="43.62975" lon="3.60723">
        <ele>250.0802002</ele>
        <time>2014-04-26T06:58:19Z</time>
      </trkpt>
      <trkpt lat="43.62962" lon="3.6074">
        <ele>253.4447021</ele>
        <time>2014-04-26T06:58:26Z</time>
      </trkpt>
      <trkpt lat="43.62954" lon="3.60768">
        <ele>255.8480225</ele>
        <time>2014-04-26T06:58:33Z</time>
      </trkpt>
      <trkpt lat="43.62952" lon="3.60779">
        <ele>256.8093262</ele>
        <time>2014-04-26T06:58:35Z</time>
      </trkpt>
      <trkpt lat="43.62947" lon="3.6082">
        <ele>255.8480225</ele>
        <time>2014-04-26T06:58:41Z</time>
      </trkpt>
      <trkpt lat="43.6294" lon="3.60874">
        <ele>254.4060059</ele>
        <time>2014-04-26T06:58:47Z</time>
      </trkpt>
      <trkpt lat="43.62936" lon="3.60914">
        <ele>251.0413818</ele>
        <time>2014-04-26T06:58:52Z</time>
      </trkpt>
      <trkpt lat="43.62937" lon="3.60951">
        <ele>247.6767578</ele>
        <time>2014-04-26T06:58:57Z</time>
      </trkpt>
      <trkpt lat="43.62943" lon="3.60988">
        <ele>243.831543</ele>
        <time>2014-04-26T06:59:02Z</time>
      </trkpt>
      <trkpt lat="43.62952" lon="3.61">
        <ele>241.4282227</ele>
        <time>2014-04-26T06:59:05Z</time>
      </trkpt>
      <trkpt lat="43.62975" lon="3.61014">
        <ele>238.0635986</ele>
        <time>2014-04-26T06:59:11Z</time>
      </trkpt>
      <trkpt lat="43.62992" lon="3.61022">
        <ele>241.4282227</ele>
        <time>2014-04-26T06:59:19Z</time>
      </trkpt>
      <trkpt lat="43.63003" lon="3.61024">
        <ele>243.3508301</ele>
        <time>2014-04-26T06:59:25Z</time>
      </trkpt>
      <trkpt lat="43.6302" lon="3.61028">
        <ele>246.7154541</ele>
        <time>2014-04-26T06:59:35Z</time>
      </trkpt>
      <trkpt lat="43.63023" lon="3.61028">
        <ele>247.1960449</ele>
        <time>2014-04-26T06:59:37Z</time>
      </trkpt>
      <trkpt lat="43.63034" lon="3.61038">
        <ele>250.0802002</ele>
        <time>2014-04-26T06:59:46Z</time>
      </trkpt>
      <trkpt lat="43.63045" lon="3.61044">
        <ele>252.9639893</ele>
        <time>2014-04-26T06:59:54Z</time>
      </trkpt>
      <trkpt lat="43.63056" lon="3.61049">
        <ele>255.3673096</ele>
        <time>2014-04-26T07:00:02Z</time>
      </trkpt>
      <trkpt lat="43.63067" lon="3.61055">
        <ele>257.770752</ele>
        <time>2014-04-26T07:00:10Z</time>
      </trkpt>
      <trkpt lat="43.63079" lon="3.61058">
        <ele>260.1739502</ele>
        <time>2014-04-26T07:00:18Z</time>
      </trkpt>
      <trkpt lat="43.63085" lon="3.61063">
        <ele>262.0965576</ele>
        <time>2014-04-26T07:00:24Z</time>
      </trkpt>
      <trkpt lat="43.63085" lon="3.61068">
        <ele>262.5771484</ele>
        <time>2014-04-26T07:00:30Z</time>
      </trkpt>
      <trkpt lat="43.63085" lon="3.61067">
        <ele>262.5771484</ele>
        <time>2014-04-26T07:00:33Z</time>
      </trkpt>
      <trkpt lat="43.63084" lon="3.61066">
        <ele>262.5771484</ele>
        <time>2014-04-26T07:00:34Z</time>
      </trkpt>
      <trkpt lat="43.63084" lon="3.6106">
        <ele>262.5771484</ele>
        <time>2014-04-26T07:00:37Z</time>
      </trkpt>
      <trkpt lat="43.63082" lon="3.61062">
        <ele>263.0578613</ele>
        <time>2014-04-26T07:00:42Z</time>
      </trkpt>
      <trkpt lat="43.63083" lon="3.61062">
        <ele>263.5385742</ele>
        <time>2014-04-26T07:00:43Z</time>
      </trkpt>
      <trkpt lat="43.63083" lon="3.61062">
        <ele>262.5771484</ele>
        <time>2014-04-26T07:00:51Z</time>
      </trkpt>
      <trkpt lat="43.63084" lon="3.61062">
        <ele>262.5771484</ele>
        <time>2014-04-26T07:00:52Z</time>
      </trkpt>
      <trkpt lat="43.63085" lon="3.61069">
        <ele>262.0965576</ele>
        <time>2014-04-26T07:00:56Z</time>
      </trkpt>
      <trkpt lat="43.63086" lon="3.61089">
        <ele>263.0578613</ele>
        <time>2014-04-26T07:01:07Z</time>
      </trkpt>
      <trkpt lat="43.63088" lon="3.61104">
        <ele>264.4998779</ele>
        <time>2014-04-26T07:01:16Z</time>
      </trkpt>
      <trkpt lat="43.63089" lon="3.61123">
        <ele>264.9805908</ele>
        <time>2014-04-26T07:01:25Z</time>
      </trkpt>
      <trkpt lat="43.63091" lon="3.61145">
        <ele>265.9418945</ele>
        <time>2014-04-26T07:01:35Z</time>
      </trkpt>
      <trkpt lat="43.63091" lon="3.61166">
        <ele>266.4224854</ele>
        <time>2014-04-26T07:01:44Z</time>
      </trkpt>
      <trkpt lat="43.63093" lon="3.61188">
        <ele>266.9031982</ele>
        <time>2014-04-26T07:01:53Z</time>
      </trkpt>
      <trkpt lat="43.63094" lon="3.61204">
        <ele>267.864502</ele>
        <time>2014-04-26T07:02:00Z</time>
      </trkpt>
      <trkpt lat="43.63096" lon="3.6123">
        <ele>268.3450928</ele>
        <time>2014-04-26T07:02:10Z</time>
      </trkpt>
      <trkpt lat="43.63098" lon="3.6125">
        <ele>269.3065186</ele>
        <time>2014-04-26T07:02:18Z</time>
      </trkpt>
      <trkpt lat="43.631" lon="3.61275">
        <ele>270.2677002</ele>
        <time>2014-04-26T07:02:28Z</time>
      </trkpt>
      <trkpt lat="43.63101" lon="3.61295">
        <ele>271.7097168</ele>
        <time>2014-04-26T07:02:36Z</time>
      </trkpt>
      <trkpt lat="43.63102" lon="3.61318">
        <ele>273.1518555</ele>
        <time>2014-04-26T07:02:46Z</time>
      </trkpt>
      <trkpt lat="43.63103" lon="3.61337">
        <ele>274.59375</ele>
        <time>2014-04-26T07:02:54Z</time>
      </trkpt>
      <trkpt lat="43.63105" lon="3.61355">
        <ele>275.5550537</ele>
        <time>2014-04-26T07:03:02Z</time>
      </trkpt>
      <trkpt lat="43.63107" lon="3.61373">
        <ele>276.5163574</ele>
        <time>2014-04-26T07:03:10Z</time>
      </trkpt>
      <trkpt lat="43.63108" lon="3.61395">
        <ele>277.958252</ele>
        <time>2014-04-26T07:03:19Z</time>
      </trkpt>
      <trkpt lat="43.6311" lon="3.61419">
        <ele>279.8808594</ele>
        <time>2014-04-26T07:03:29Z</time>
      </trkpt>
      <trkpt lat="43.63112" lon="3.61439">
        <ele>280.8424072</ele>
        <time>2014-04-26T07:03:37Z</time>
      </trkpt>
      <trkpt lat="43.63114" lon="3.61465">
        <ele>281.322998</ele>
        <time>2014-04-26T07:03:47Z</time>
      </trkpt>
      <trkpt lat="43.63117" lon="3.61486">
        <ele>281.322998</ele>
        <time>2014-04-26T07:03:54Z</time>
      </trkpt>
      <trkpt lat="43.63112" lon="3.61506">
        <ele>282.2843018</ele>
        <time>2014-04-26T07:04:01Z</time>
      </trkpt>
      <trkpt lat="43.63101" lon="3.61527">
        <ele>282.2843018</ele>
        <time>2014-04-26T07:04:09Z</time>
      </trkpt>
      <trkpt lat="43.63089" lon="3.61551">
        <ele>281.8035889</ele>
        <time>2014-04-26T07:04:18Z</time>
      </trkpt>
      <trkpt lat="43.63074" lon="3.61583">
        <ele>282.7650146</ele>
        <time>2014-04-26T07:04:29Z</time>
      </trkpt>
      <trkpt lat="43.63057" lon="3.61601">
        <ele>284.6876221</ele>
        <time>2014-04-26T07:04:37Z</time>
      </trkpt>
      <trkpt lat="43.63039" lon="3.61621">
        <ele>285.6488037</ele>
        <time>2014-04-26T07:04:45Z</time>
      </trkpt>
      <trkpt lat="43.63019" lon="3.6164">
        <ele>287.0908203</ele>
        <time>2014-04-26T07:04:53Z</time>
      </trkpt>
      <trkpt lat="43.63008" lon="3.61653">
        <ele>287.0908203</ele>
        <time>2014-04-26T07:04:59Z</time>
      </trkpt>
      <trkpt lat="43.63008" lon="3.61656">
        <ele>286.6102295</ele>
        <time>2014-04-26T07:05:00Z</time>
      </trkpt>
      <trkpt lat="43.63013" lon="3.61675">
        <ele>285.6488037</ele>
        <time>2014-04-26T07:05:07Z</time>
      </trkpt>
      <trkpt lat="43.63017" lon="3.61673">
        <ele>285.6488037</ele>
        <time>2014-04-26T07:05:12Z</time>
      </trkpt>
      <trkpt lat="43.63013" lon="3.61667">
        <ele>286.1295166</ele>
        <time>2014-04-26T07:05:17Z</time>
      </trkpt>
      <trkpt lat="43.63012" lon="3.61667">
        <ele>286.1295166</ele>
        <time>2014-04-26T07:05:19Z</time>
      </trkpt>
      <trkpt lat="43.63013" lon="3.61666">
        <ele>286.1295166</ele>
        <time>2014-04-26T07:05:49Z</time>
      </trkpt>
      <trkpt lat="43.63013" lon="3.61667">
        <ele>286.6102295</ele>
        <time>2014-04-26T07:05:50Z</time>
      </trkpt>
      <trkpt lat="43.63013" lon="3.61667">
        <ele>287.0908203</ele>
        <time>2014-04-26T07:05:55Z</time>
      </trkpt>
      <trkpt lat="43.63015" lon="3.6168">
        <ele>289.4941406</ele>
        <time>2014-04-26T07:06:00Z</time>
      </trkpt>
      <trkpt lat="43.63015" lon="3.617">
        <ele>288.0522461</ele>
        <time>2014-04-26T07:06:05Z</time>
      </trkpt>
      <trkpt lat="43.63014" lon="3.61722">
        <ele>286.6102295</ele>
        <time>2014-04-26T07:06:10Z</time>
      </trkpt>
      <trkpt lat="43.6302" lon="3.61735">
        <ele>285.6488037</ele>
        <time>2014-04-26T07:06:15Z</time>
      </trkpt>
      <trkpt lat="43.63033" lon="3.61735">
        <ele>285.1682129</ele>
        <time>2014-04-26T07:06:21Z</time>
      </trkpt>
      <trkpt lat="43.63054" lon="3.61733">
        <ele>283.7261963</ele>
        <time>2014-04-26T07:06:28Z</time>
      </trkpt>
      <trkpt lat="43.63077" lon="3.61732">
        <ele>282.7650146</ele>
        <time>2014-04-26T07:06:34Z</time>
      </trkpt>
      <trkpt lat="43.63096" lon="3.61737">
        <ele>280.8424072</ele>
        <time>2014-04-26T07:06:38Z</time>
      </trkpt>
      <trkpt lat="43.63126" lon="3.61762">
        <ele>278.4389648</ele>
        <time>2014-04-26T07:06:44Z</time>
      </trkpt>
      <trkpt lat="43.63159" lon="3.61805">
        <ele>276.9970703</ele>
        <time>2014-04-26T07:06:51Z</time>
      </trkpt>
      <trkpt lat="43.63164" lon="3.61811">
        <ele>276.5163574</ele>
        <time>2014-04-26T07:06:52Z</time>
      </trkpt>
      <trkpt lat="43.63192" lon="3.6184">
        <ele>274.59375</ele>
        <time>2014-04-26T07:06:57Z</time>
      </trkpt>
      <trkpt lat="43.6321" lon="3.61873">
        <ele>271.7097168</ele>
        <time>2014-04-26T07:07:02Z</time>
      </trkpt>
      <trkpt lat="43.63221" lon="3.6191">
        <ele>269.7871094</ele>
        <time>2014-04-26T07:07:07Z</time>
      </trkpt>
      <trkpt lat="43.6323" lon="3.61924">
        <ele>267.3839111</ele>
        <time>2014-04-26T07:07:11Z</time>
      </trkpt>
      <trkpt lat="43.63239" lon="3.61917">
        <ele>266.9031982</ele>
        <time>2014-04-26T07:07:14Z</time>
      </trkpt>
      <trkpt lat="43.63267" lon="3.61886">
        <ele>264.0192871</ele>
        <time>2014-04-26T07:07:20Z</time>
      </trkpt>
      <trkpt lat="43.63293" lon="3.61885">
        <ele>261.6159668</ele>
        <time>2014-04-26T07:07:24Z</time>
      </trkpt>
      <trkpt lat="43.63305" lon="3.61902">
        <ele>260.654541</ele>
        <time>2014-04-26T07:07:27Z</time>
      </trkpt>
      <trkpt lat="43.63309" lon="3.61916">
        <ele>261.1352539</ele>
        <time>2014-04-26T07:07:29Z</time>
      </trkpt>
      <trkpt lat="43.63312" lon="3.61931">
        <ele>261.1352539</ele>
        <time>2014-04-26T07:07:31Z</time>
      </trkpt>
      <trkpt lat="43.63323" lon="3.61964">
        <ele>261.6159668</ele>
        <time>2014-04-26T07:07:36Z</time>
      </trkpt>
      <trkpt lat="43.63339" lon="3.61987">
        <ele>262.5771484</ele>
        <time>2014-04-26T07:07:42Z</time>
      </trkpt>
      <trkpt lat="43.63362" lon="3.62004">
        <ele>265.4613037</ele>
        <time>2014-04-26T07:07:51Z</time>
      </trkpt>
      <trkpt lat="43.63377" lon="3.62014">
        <ele>267.864502</ele>
        <time>2014-04-26T07:07:58Z</time>
      </trkpt>
      <trkpt lat="43.63393" lon="3.62026">
        <ele>270.2677002</ele>
        <time>2014-04-26T07:08:05Z</time>
      </trkpt>
      <trkpt lat="43.63414" lon="3.62047">
        <ele>272.1904297</ele>
        <time>2014-04-26T07:08:15Z</time>
      </trkpt>
      <trkpt lat="43.63432" lon="3.62072">
        <ele>274.1130371</ele>
        <time>2014-04-26T07:08:25Z</time>
      </trkpt>
      <trkpt lat="43.63455" lon="3.62095">
        <ele>275.0744629</ele>
        <time>2014-04-26T07:08:34Z</time>
      </trkpt>
      <trkpt lat="43.6348" lon="3.62109">
        <ele>275.5550537</ele>
        <time>2014-04-26T07:08:41Z</time>
      </trkpt>
      <trkpt lat="43.63516" lon="3.6212">
        <ele>276.0356445</ele>
        <time>2014-04-26T07:08:50Z</time>
      </trkpt>
      <trkpt lat="43.63542" lon="3.62126">
        <ele>277.958252</ele>
        <time>2014-04-26T07:08:58Z</time>
      </trkpt>
      <trkpt lat="43.63571" lon="3.62128">
        <ele>280.3616943</ele>
        <time>2014-04-26T07:09:08Z</time>
      </trkpt>
      <trkpt lat="43.63592" lon="3.62128">
        <ele>283.2456055</ele>
        <time>2014-04-26T07:09:17Z</time>
      </trkpt>
      <trkpt lat="43.63606" lon="3.62127">
        <ele>283.7261963</ele>
        <time>2014-04-26T07:09:23Z</time>
      </trkpt>
      <trkpt lat="43.63626" lon="3.62124">
        <ele>285.6488037</ele>
        <time>2014-04-26T07:09:32Z</time>
      </trkpt>
      <trkpt lat="43.63652" lon="3.62117">
        <ele>287.0908203</ele>
        <time>2014-04-26T07:09:43Z</time>
      </trkpt>
      <trkpt lat="43.63678" lon="3.62104">
        <ele>288.0522461</ele>
        <time>2014-04-26T07:09:54Z</time>
      </trkpt>
      <trkpt lat="43.63703" lon="3.62089">
        <ele>288.532959</ele>
        <time>2014-04-26T07:10:03Z</time>
      </trkpt>
      <trkpt lat="43.6373" lon="3.62073">
        <ele>288.532959</ele>
        <time>2014-04-26T07:10:12Z</time>
      </trkpt>
      <trkpt lat="43.63747" lon="3.6207">
        <ele>288.532959</ele>
        <time>2014-04-26T07:10:18Z</time>
      </trkpt>
      <trkpt lat="43.63749" lon="3.6207">
        <ele>288.532959</ele>
        <time>2014-04-26T07:10:19Z</time>
      </trkpt>
      <trkpt lat="43.63748" lon="3.62064">
        <ele>289.0135498</ele>
        <time>2014-04-26T07:10:23Z</time>
      </trkpt>
      <trkpt lat="43.63744" lon="3.62065">
        <ele>289.4941406</ele>
        <time>2014-04-26T07:10:25Z</time>
      </trkpt>
      <trkpt lat="43.63718" lon="3.62077">
        <ele>291.416748</ele>
        <time>2014-04-26T07:10:35Z</time>
      </trkpt>
      <trkpt lat="43.63692" lon="3.62091">
        <ele>291.8974609</ele>
        <time>2014-04-26T07:10:44Z</time>
      </trkpt>
      <trkpt lat="43.63684" lon="3.62096">
        <ele>291.8974609</ele>
        <time>2014-04-26T07:10:47Z</time>
      </trkpt>
      <trkpt lat="43.63683" lon="3.62101">
        <ele>291.416748</ele>
        <time>2014-04-26T07:10:51Z</time>
      </trkpt>
      <trkpt lat="43.63687" lon="3.62099">
        <ele>290.9361572</ele>
        <time>2014-04-26T07:10:53Z</time>
      </trkpt>
      <trkpt lat="43.63707" lon="3.62085">
        <ele>290.4555664</ele>
        <time>2014-04-26T07:11:00Z</time>
      </trkpt>
      <trkpt lat="43.63736" lon="3.62072">
        <ele>289.4941406</ele>
        <time>2014-04-26T07:11:08Z</time>
      </trkpt>
      <trkpt lat="43.63772" lon="3.6206">
        <ele>287.0908203</ele>
        <time>2014-04-26T07:11:16Z</time>
      </trkpt>
      <trkpt lat="43.63799" lon="3.62049">
        <ele>284.6876221</ele>
        <time>2014-04-26T07:11:21Z</time>
      </trkpt>
      <trkpt lat="43.63836" lon="3.62043">
        <ele>280.8424072</ele>
        <time>2014-04-26T07:11:26Z</time>
      </trkpt>
      <trkpt lat="43.63874" lon="3.62027">
        <ele>278.4389648</ele>
        <time>2014-04-26T07:11:31Z</time>
      </trkpt>
      <trkpt lat="43.63906" lon="3.62018">
        <ele>278.4389648</ele>
        <time>2014-04-26T07:11:36Z</time>
      </trkpt>
      <trkpt lat="43.63948" lon="3.62014">
        <ele>279.4002686</ele>
        <time>2014-04-26T07:11:44Z</time>
      </trkpt>
      <trkpt lat="43.64001" lon="3.62009">
        <ele>280.8424072</ele>
        <time>2014-04-26T07:11:55Z</time>
      </trkpt>
      <trkpt lat="43.64006" lon="3.62007">
        <ele>280.8424072</ele>
        <time>2014-04-26T07:11:56Z</time>
      </trkpt>
      <trkpt lat="43.64029" lon="3.61992">
        <ele>280.8424072</ele>
        <time>2014-04-26T07:12:01Z</time>
      </trkpt>
      <trkpt lat="43.64058" lon="3.61963">
        <ele>280.8424072</ele>
        <time>2014-04-26T07:12:08Z</time>
      </trkpt>
      <trkpt lat="43.64068" lon="3.61957">
        <ele>280.3616943</ele>
        <time>2014-04-26T07:12:10Z</time>
      </trkpt>
      <trkpt lat="43.64091" lon="3.61951">
        <ele>279.4002686</ele>
        <time>2014-04-26T07:12:14Z</time>
      </trkpt>
      <trkpt lat="43.64145" lon="3.61952">
        <ele>277.958252</ele>
        <time>2014-04-26T07:12:22Z</time>
      </trkpt>
      <trkpt lat="43.64184" lon="3.61954">
        <ele>278.9196777</ele>
        <time>2014-04-26T07:12:29Z</time>
      </trkpt>
      <trkpt lat="43.64193" lon="3.61955">
        <ele>279.8808594</ele>
        <time>2014-04-26T07:12:31Z</time>
      </trkpt>
      <trkpt lat="43.64241" lon="3.61962">
        <ele>282.7650146</ele>
        <time>2014-04-26T07:12:42Z</time>
      </trkpt>
      <trkpt lat="43.64292" lon="3.61958">
        <ele>283.7261963</ele>
        <time>2014-04-26T07:12:53Z</time>
      </trkpt>
      <trkpt lat="43.6433" lon="3.61949">
        <ele>284.6876221</ele>
        <time>2014-04-26T07:13:02Z</time>
      </trkpt>
      <trkpt lat="43.64353" lon="3.61939">
        <ele>285.6488037</ele>
        <time>2014-04-26T07:13:09Z</time>
      </trkpt>
      <trkpt lat="43.64366" lon="3.61933">
        <ele>285.1682129</ele>
        <time>2014-04-26T07:13:14Z</time>
      </trkpt>
      <trkpt lat="43.64403" lon="3.61917">
        <ele>285.1682129</ele>
        <time>2014-04-26T07:13:23Z</time>
      </trkpt>
      <trkpt lat="43.64412" lon="3.61913">
        <ele>284.6876221</ele>
        <time>2014-04-26T07:13:25Z</time>
      </trkpt>
      <trkpt lat="43.64449" lon="3.619">
        <ele>283.2456055</ele>
        <time>2014-04-26T07:13:32Z</time>
      </trkpt>
      <trkpt lat="43.64491" lon="3.61891">
        <ele>280.8424072</ele>
        <time>2014-04-26T07:13:38Z</time>
      </trkpt>
      <trkpt lat="43.64499" lon="3.61891">
        <ele>280.3616943</ele>
        <time>2014-04-26T07:13:39Z</time>
      </trkpt>
      <trkpt lat="43.6456" lon="3.61895">
        <ele>276.5163574</ele>
        <time>2014-04-26T07:13:46Z</time>
      </trkpt>
      <trkpt lat="43.64613" lon="3.6189">
        <ele>274.1130371</ele>
        <time>2014-04-26T07:13:52Z</time>
      </trkpt>
      <trkpt lat="43.64655" lon="3.61888">
        <ele>271.7097168</ele>
        <time>2014-04-26T07:13:57Z</time>
      </trkpt>
      <trkpt lat="43.64671" lon="3.61888">
        <ele>270.7484131</ele>
        <time>2014-04-26T07:13:59Z</time>
      </trkpt>
      <trkpt lat="43.64703" lon="3.61873">
        <ele>268.3450928</ele>
        <time>2014-04-26T07:14:03Z</time>
      </trkpt>
      <trkpt lat="43.64716" lon="3.61865">
        <ele>267.3839111</ele>
        <time>2014-04-26T07:14:05Z</time>
      </trkpt>
      <trkpt lat="43.64746" lon="3.6186">
        <ele>265.9418945</ele>
        <time>2014-04-26T07:14:10Z</time>
      </trkpt>
      <trkpt lat="43.64762" lon="3.61864">
        <ele>264.9805908</ele>
        <time>2014-04-26T07:14:13Z</time>
      </trkpt>
      <trkpt lat="43.64781" lon="3.61875">
        <ele>264.9805908</ele>
        <time>2014-04-26T07:14:17Z</time>
      </trkpt>
      <trkpt lat="43.64803" lon="3.61906">
        <ele>268.3450928</ele>
        <time>2014-04-26T07:14:24Z</time>
      </trkpt>
      <trkpt lat="43.64818" lon="3.61924">
        <ele>270.7484131</ele>
        <time>2014-04-26T07:14:30Z</time>
      </trkpt>
      <trkpt lat="43.64838" lon="3.61948">
        <ele>273.6324463</ele>
        <time>2014-04-26T07:14:38Z</time>
      </trkpt>
      <trkpt lat="43.64855" lon="3.61975">
        <ele>275.0744629</ele>
        <time>2014-04-26T07:14:47Z</time>
      </trkpt>
      <trkpt lat="43.64866" lon="3.62">
        <ele>276.0356445</ele>
        <time>2014-04-26T07:14:54Z</time>
      </trkpt>
      <trkpt lat="43.64881" lon="3.62022">
        <ele>276.5163574</ele>
        <time>2014-04-26T07:15:01Z</time>
      </trkpt>
      <trkpt lat="43.64906" lon="3.62048">
        <ele>277.4776611</ele>
        <time>2014-04-26T07:15:11Z</time>
      </trkpt>
      <trkpt lat="43.64933" lon="3.62073">
        <ele>280.8424072</ele>
        <time>2014-04-26T07:15:22Z</time>
      </trkpt>
      <trkpt lat="43.64957" lon="3.62083">
        <ele>282.7650146</ele>
        <time>2014-04-26T07:15:32Z</time>
      </trkpt>
      <trkpt lat="43.64977" lon="3.62087">
        <ele>283.7261963</ele>
        <time>2014-04-26T07:15:40Z</time>
      </trkpt>
      <trkpt lat="43.64994" lon="3.62099">
        <ele>285.6488037</ele>
        <time>2014-04-26T07:15:48Z</time>
      </trkpt>
      <trkpt lat="43.65008" lon="3.62116">
        <ele>287.0908203</ele>
        <time>2014-04-26T07:15:56Z</time>
      </trkpt>
      <trkpt lat="43.65024" lon="3.62141">
        <ele>289.4941406</ele>
        <time>2014-04-26T07:16:06Z</time>
      </trkpt>
      <trkpt lat="43.65043" lon="3.62168">
        <ele>291.416748</ele>
        <time>2014-04-26T07:16:18Z</time>
      </trkpt>
      <trkpt lat="43.65068" lon="3.62188">
        <ele>293.3393555</ele>
        <time>2014-04-26T07:16:30Z</time>
      </trkpt>
      <trkpt lat="43.65091" lon="3.62196">
        <ele>294.7813721</ele>
        <time>2014-04-26T07:16:40Z</time>
      </trkpt>
      <trkpt lat="43.65109" lon="3.62197">
        <ele>295.7426758</ele>
        <time>2014-04-26T07:16:48Z</time>
      </trkpt>
      <trkpt lat="43.65131" lon="3.62196">
        <ele>297.1846924</ele>
        <time>2014-04-26T07:16:57Z</time>
      </trkpt>
      <trkpt lat="43.65149" lon="3.62195">
        <ele>299.1072998</ele>
        <time>2014-04-26T07:17:05Z</time>
      </trkpt>
      <trkpt lat="43.65167" lon="3.62193">
        <ele>303.9139404</ele>
        <time>2014-04-26T07:17:13Z</time>
      </trkpt>
      <trkpt lat="43.65185" lon="3.62192">
        <ele>308.720459</ele>
        <time>2014-04-26T07:17:21Z</time>
      </trkpt>
      <trkpt lat="43.65198" lon="3.62197">
        <ele>309.2011719</ele>
        <time>2014-04-26T07:17:27Z</time>
      </trkpt>
      <trkpt lat="43.65219" lon="3.62211">
        <ele>308.720459</ele>
        <time>2014-04-26T07:17:36Z</time>
      </trkpt>
      <trkpt lat="43.65231" lon="3.62232">
        <ele>310.1624756</ele>
        <time>2014-04-26T07:17:44Z</time>
      </trkpt>
      <trkpt lat="43.65235" lon="3.62253">
        <ele>311.1237793</ele>
        <time>2014-04-26T07:17:51Z</time>
      </trkpt>
      <trkpt lat="43.6524" lon="3.62287">
        <ele>310.6430664</ele>
        <time>2014-04-26T07:18:00Z</time>
      </trkpt>
      <trkpt lat="43.65249" lon="3.62313">
        <ele>310.1624756</ele>
        <time>2014-04-26T07:18:06Z</time>
      </trkpt>
      <trkpt lat="43.65265" lon="3.62361">
        <ele>308.720459</ele>
        <time>2014-04-26T07:18:15Z</time>
      </trkpt>
      <trkpt lat="43.65278" lon="3.6241">
        <ele>306.3172607</ele>
        <time>2014-04-26T07:18:23Z</time>
      </trkpt>
      <trkpt lat="43.65292" lon="3.62451">
        <ele>303.4332275</ele>
        <time>2014-04-26T07:18:28Z</time>
      </trkpt>
      <trkpt lat="43.6531" lon="3.62488">
        <ele>301.991333</ele>
        <time>2014-04-26T07:18:32Z</time>
      </trkpt>
      <trkpt lat="43.65332" lon="3.62522">
        <ele>299.5880127</ele>
        <time>2014-04-26T07:18:36Z</time>
      </trkpt>
      <trkpt lat="43.65358" lon="3.62566">
        <ele>298.626709</ele>
        <time>2014-04-26T07:18:41Z</time>
      </trkpt>
      <trkpt lat="43.65381" lon="3.62614">
        <ele>298.626709</ele>
        <time>2014-04-26T07:18:47Z</time>
      </trkpt>
      <trkpt lat="43.65406" lon="3.62647">
        <ele>298.626709</ele>
        <time>2014-04-26T07:18:53Z</time>
      </trkpt>
      <trkpt lat="43.65428" lon="3.62675">
        <ele>299.1072998</ele>
        <time>2014-04-26T07:18:59Z</time>
      </trkpt>
      <trkpt lat="43.65452" lon="3.627">
        <ele>299.5880127</ele>
        <time>2014-04-26T07:19:06Z</time>
      </trkpt>
      <trkpt lat="43.65463" lon="3.62714">
        <ele>299.5880127</ele>
        <time>2014-04-26T07:19:10Z</time>
      </trkpt>
      <trkpt lat="43.65466" lon="3.6271">
        <ele>299.5880127</ele>
        <time>2014-04-26T07:19:14Z</time>
      </trkpt>
      <trkpt lat="43.65461" lon="3.62705">
        <ele>299.5880127</ele>
        <time>2014-04-26T07:19:17Z</time>
      </trkpt>
      <trkpt lat="43.65442" lon="3.62689">
        <ele>300.5493164</ele>
        <time>2014-04-26T07:19:25Z</time>
      </trkpt>
      <trkpt lat="43.65429" lon="3.62672">
        <ele>300.0687256</ele>
        <time>2014-04-26T07:19:32Z</time>
      </trkpt>
      <trkpt lat="43.65426" lon="3.62668">
        <ele>300.0687256</ele>
        <time>2014-04-26T07:19:34Z</time>
      </trkpt>
      <trkpt lat="43.65425" lon="3.62674">
        <ele>300.0687256</ele>
        <time>2014-04-26T07:19:39Z</time>
      </trkpt>
      <trkpt lat="43.65427" lon="3.62677">
        <ele>300.0687256</ele>
        <time>2014-04-26T07:19:40Z</time>
      </trkpt>
      <trkpt lat="43.65451" lon="3.62698">
        <ele>300.5493164</ele>
        <time>2014-04-26T07:19:47Z</time>
      </trkpt>
      <trkpt lat="43.65471" lon="3.62723">
        <ele>301.0299072</ele>
        <time>2014-04-26T07:19:53Z</time>
      </trkpt>
      <trkpt lat="43.65481" lon="3.62753">
        <ele>302.4719238</ele>
        <time>2014-04-26T07:19:59Z</time>
      </trkpt>
      <trkpt lat="43.65481" lon="3.62787">
        <ele>304.3946533</ele>
        <time>2014-04-26T07:20:07Z</time>
      </trkpt>
      <trkpt lat="43.65479" lon="3.62813">
        <ele>305.355957</ele>
        <time>2014-04-26T07:20:15Z</time>
      </trkpt>
      <trkpt lat="43.65469" lon="3.62826">
        <ele>306.3172607</ele>
        <time>2014-04-26T07:20:21Z</time>
      </trkpt>
      <trkpt lat="43.65465" lon="3.6284">
        <ele>307.2785645</ele>
        <time>2014-04-26T07:20:26Z</time>
      </trkpt>
      <trkpt lat="43.65459" lon="3.62856">
        <ele>308.720459</ele>
        <time>2014-04-26T07:20:31Z</time>
      </trkpt>
      <trkpt lat="43.65445" lon="3.62879">
        <ele>309.2011719</ele>
        <time>2014-04-26T07:20:38Z</time>
      </trkpt>
      <trkpt lat="43.65431" lon="3.62907">
        <ele>309.2011719</ele>
        <time>2014-04-26T07:20:45Z</time>
      </trkpt>
      <trkpt lat="43.65423" lon="3.62926">
        <ele>309.2011719</ele>
        <time>2014-04-26T07:20:49Z</time>
      </trkpt>
      <trkpt lat="43.6541" lon="3.62943">
        <ele>309.2011719</ele>
        <time>2014-04-26T07:20:53Z</time>
      </trkpt>
      <trkpt lat="43.65396" lon="3.62962">
        <ele>308.720459</ele>
        <time>2014-04-26T07:20:58Z</time>
      </trkpt>
      <trkpt lat="43.65401" lon="3.62974">
        <ele>308.720459</ele>
        <time>2014-04-26T07:21:02Z</time>
      </trkpt>
      <trkpt lat="43.65403" lon="3.62976">
        <ele>308.720459</ele>
        <time>2014-04-26T07:21:03Z</time>
      </trkpt>
      <trkpt lat="43.65417" lon="3.62999">
        <ele>309.2011719</ele>
        <time>2014-04-26T07:21:11Z</time>
      </trkpt>
      <trkpt lat="43.65426" lon="3.63011">
        <ele>310.1624756</ele>
        <time>2014-04-26T07:21:17Z</time>
      </trkpt>
      <trkpt lat="43.65439" lon="3.63025">
        <ele>311.1237793</ele>
        <time>2014-04-26T07:21:25Z</time>
      </trkpt>
      <trkpt lat="43.6545" lon="3.63038">
        <ele>313.5272217</ele>
        <time>2014-04-26T07:21:33Z</time>
      </trkpt>
      <trkpt lat="43.65455" lon="3.6304">
        <ele>314.4884033</ele>
        <time>2014-04-26T07:21:36Z</time>
      </trkpt>
      <trkpt lat="43.65466" lon="3.63036">
        <ele>317.8530273</ele>
        <time>2014-04-26T07:21:44Z</time>
      </trkpt>
      <trkpt lat="43.65477" lon="3.63035">
        <ele>319.7756348</ele>
        <time>2014-04-26T07:21:51Z</time>
      </trkpt>
      <trkpt lat="43.65491" lon="3.63043">
        <ele>321.6983643</ele>
        <time>2014-04-26T07:22:00Z</time>
      </trkpt>
      <trkpt lat="43.65503" lon="3.63052">
        <ele>323.6209717</ele>
        <time>2014-04-26T07:22:08Z</time>
      </trkpt>
      <trkpt lat="43.65511" lon="3.63061">
        <ele>325.5435791</ele>
        <time>2014-04-26T07:22:15Z</time>
      </trkpt>
      <trkpt lat="43.65517" lon="3.6307">
        <ele>327.4661865</ele>
        <time>2014-04-26T07:22:21Z</time>
      </trkpt>
      <trkpt lat="43.65529" lon="3.63075">
        <ele>327.9467773</ele>
        <time>2014-04-26T07:22:29Z</time>
      </trkpt>
      <trkpt lat="43.65536" lon="3.63068">
        <ele>328.9083252</ele>
        <time>2014-04-26T07:22:34Z</time>
      </trkpt>
      <trkpt lat="43.65542" lon="3.63074">
        <ele>328.9083252</ele>
        <time>2014-04-26T07:22:39Z</time>
      </trkpt>
      <trkpt lat="43.65549" lon="3.63083">
        <ele>330.8309326</ele>
        <time>2014-04-26T07:22:46Z</time>
      </trkpt>
      <trkpt lat="43.65557" lon="3.63089">
        <ele>332.2728271</ele>
        <time>2014-04-26T07:22:52Z</time>
      </trkpt>
      <trkpt lat="43.65558" lon="3.63097">
        <ele>333.2341309</ele>
        <time>2014-04-26T07:22:56Z</time>
      </trkpt>
      <trkpt lat="43.65551" lon="3.63108">
        <ele>332.75354</ele>
        <time>2014-04-26T07:23:01Z</time>
      </trkpt>
      <trkpt lat="43.65551" lon="3.6311">
        <ele>332.75354</ele>
        <time>2014-04-26T07:23:02Z</time>
      </trkpt>
      <trkpt lat="43.6555" lon="3.63129">
        <ele>333.7147217</ele>
        <time>2014-04-26T07:23:09Z</time>
      </trkpt>
      <trkpt lat="43.65551" lon="3.63131">
        <ele>334.1954346</ele>
        <time>2014-04-26T07:23:10Z</time>
      </trkpt>
      <trkpt lat="43.65561" lon="3.63137">
        <ele>335.1567383</ele>
        <time>2014-04-26T07:23:17Z</time>
      </trkpt>
      <trkpt lat="43.65564" lon="3.63141">
        <ele>336.1181641</ele>
        <time>2014-04-26T07:23:20Z</time>
      </trkpt>
      <trkpt lat="43.65578" lon="3.63152">
        <ele>337.5600586</ele>
        <time>2014-04-26T07:23:29Z</time>
      </trkpt>
      <trkpt lat="43.65581" lon="3.63163">
        <ele>339.0020752</ele>
        <time>2014-04-26T07:23:34Z</time>
      </trkpt>
      <trkpt lat="43.65582" lon="3.63175">
        <ele>342.3666992</ele>
        <time>2014-04-26T07:23:40Z</time>
      </trkpt>
      <trkpt lat="43.6559" lon="3.63188">
        <ele>345.7313232</ele>
        <time>2014-04-26T07:23:49Z</time>
      </trkpt>
      <trkpt lat="43.65597" lon="3.63204">
        <ele>344.7700195</ele>
        <time>2014-04-26T07:23:58Z</time>
      </trkpt>
      <trkpt lat="43.65603" lon="3.63216">
        <ele>346.692627</ele>
        <time>2014-04-26T07:24:05Z</time>
      </trkpt>
      <trkpt lat="43.6561" lon="3.63229">
        <ele>349.5765381</ele>
        <time>2014-04-26T07:24:13Z</time>
      </trkpt>
      <trkpt lat="43.65617" lon="3.6324">
        <ele>352.9411621</ele>
        <time>2014-04-26T07:24:21Z</time>
      </trkpt>
      <trkpt lat="43.65619" lon="3.63242">
        <ele>353.9025879</ele>
        <time>2014-04-26T07:24:23Z</time>
      </trkpt>
      <trkpt lat="43.65618" lon="3.63251">
        <ele>355.3444824</ele>
        <time>2014-04-26T07:24:28Z</time>
      </trkpt>
      <trkpt lat="43.6562" lon="3.63265">
        <ele>355.8251953</ele>
        <time>2014-04-26T07:24:35Z</time>
      </trkpt>
      <trkpt lat="43.65624" lon="3.63275">
        <ele>356.786377</ele>
        <time>2014-04-26T07:24:40Z</time>
      </trkpt>
      <trkpt lat="43.65638" lon="3.63281">
        <ele>359.6704102</ele>
        <time>2014-04-26T07:24:50Z</time>
      </trkpt>
      <trkpt lat="43.65647" lon="3.63289">
        <ele>360.6317139</ele>
        <time>2014-04-26T07:24:57Z</time>
      </trkpt>
      <trkpt lat="43.6565" lon="3.63305">
        <ele>363.5157471</ele>
        <time>2014-04-26T07:25:05Z</time>
      </trkpt>
      <trkpt lat="43.65651" lon="3.63313">
        <ele>364.9576416</ele>
        <time>2014-04-26T07:25:09Z</time>
      </trkpt>
      <trkpt lat="43.6566" lon="3.63319">
        <ele>364.4769287</ele>
        <time>2014-04-26T07:25:15Z</time>
      </trkpt>
      <trkpt lat="43.65669" lon="3.63328">
        <ele>365.9189453</ele>
        <time>2014-04-26T07:25:22Z</time>
      </trkpt>
      <trkpt lat="43.6567" lon="3.63344">
        <ele>366.3995361</ele>
        <time>2014-04-26T07:25:30Z</time>
      </trkpt>
      <trkpt lat="43.65671" lon="3.63352">
        <ele>368.3222656</ele>
        <time>2014-04-26T07:25:34Z</time>
      </trkpt>
      <trkpt lat="43.65685" lon="3.63368">
        <ele>367.8415527</ele>
        <time>2014-04-26T07:25:44Z</time>
      </trkpt>
      <trkpt lat="43.6569" lon="3.63381">
        <ele>369.2836914</ele>
        <time>2014-04-26T07:25:50Z</time>
      </trkpt>
      <trkpt lat="43.6569" lon="3.63403">
        <ele>371.2062988</ele>
        <time>2014-04-26T07:25:58Z</time>
      </trkpt>
      <trkpt lat="43.65694" lon="3.6342">
        <ele>371.6868896</ele>
        <time>2014-04-26T07:26:05Z</time>
      </trkpt>
      <trkpt lat="43.65691" lon="3.63431">
        <ele>372.1674805</ele>
        <time>2014-04-26T07:26:10Z</time>
      </trkpt>
      <trkpt lat="43.65684" lon="3.63433">
        <ele>372.6481934</ele>
        <time>2014-04-26T07:26:15Z</time>
      </trkpt>
      <trkpt lat="43.65675" lon="3.63439">
        <ele>373.6094971</ele>
        <time>2014-04-26T07:26:21Z</time>
      </trkpt>
      <trkpt lat="43.65671" lon="3.63447">
        <ele>374.0900879</ele>
        <time>2014-04-26T07:26:25Z</time>
      </trkpt>
      <trkpt lat="43.65663" lon="3.63451">
        <ele>374.5708008</ele>
        <time>2014-04-26T07:26:31Z</time>
      </trkpt>
      <trkpt lat="43.65663" lon="3.6346">
        <ele>374.0900879</ele>
        <time>2014-04-26T07:26:36Z</time>
      </trkpt>
      <trkpt lat="43.65666" lon="3.6346">
        <ele>374.0900879</ele>
        <time>2014-04-26T07:26:38Z</time>
      </trkpt>
      <trkpt lat="43.65677" lon="3.63448">
        <ele>374.0900879</ele>
        <time>2014-04-26T07:26:45Z</time>
      </trkpt>
      <trkpt lat="43.65689" lon="3.63434">
        <ele>373.6094971</ele>
        <time>2014-04-26T07:26:51Z</time>
      </trkpt>
      <trkpt lat="43.65695" lon="3.6343">
        <ele>373.1289063</ele>
        <time>2014-04-26T07:26:54Z</time>
      </trkpt>
      <trkpt lat="43.65695" lon="3.6342">
        <ele>371.6868896</ele>
        <time>2014-04-26T07:26:59Z</time>
      </trkpt>
      <trkpt lat="43.65693" lon="3.63414">
        <ele>371.2062988</ele>
        <time>2014-04-26T07:27:01Z</time>
      </trkpt>
      <trkpt lat="43.65691" lon="3.6339">
        <ele>368.8029785</ele>
        <time>2014-04-26T07:27:07Z</time>
      </trkpt>
      <trkpt lat="43.65687" lon="3.63369">
        <ele>367.3609619</ele>
        <time>2014-04-26T07:27:12Z</time>
      </trkpt>
      <trkpt lat="43.65672" lon="3.63351">
        <ele>366.880249</ele>
        <time>2014-04-26T07:27:19Z</time>
      </trkpt>
      <trkpt lat="43.6567" lon="3.63348">
        <ele>365.9189453</ele>
        <time>2014-04-26T07:27:23Z</time>
      </trkpt>
      <trkpt lat="43.6567" lon="3.63348">
        <ele>364.9576416</ele>
        <time>2014-04-26T07:27:36Z</time>
      </trkpt>
      <trkpt lat="43.6567" lon="3.63349">
        <ele>364.9576416</ele>
        <time>2014-04-26T07:27:38Z</time>
      </trkpt>
      <trkpt lat="43.65671" lon="3.63349">
        <ele>369.7642822</ele>
        <time>2014-04-26T07:28:04Z</time>
      </trkpt>
      <trkpt lat="43.65671" lon="3.6335">
        <ele>369.7642822</ele>
        <time>2014-04-26T07:28:05Z</time>
      </trkpt>
      <trkpt lat="43.65683" lon="3.63364">
        <ele>369.7642822</ele>
        <time>2014-04-26T07:28:13Z</time>
      </trkpt>
      <trkpt lat="43.65689" lon="3.63378">
        <ele>370.7255859</ele>
        <time>2014-04-26T07:28:19Z</time>
      </trkpt>
      <trkpt lat="43.65689" lon="3.63401">
        <ele>372.6481934</ele>
        <time>2014-04-26T07:28:27Z</time>
      </trkpt>
      <trkpt lat="43.65694" lon="3.63418">
        <ele>371.6868896</ele>
        <time>2014-04-26T07:28:35Z</time>
      </trkpt>
      <trkpt lat="43.65692" lon="3.63429">
        <ele>371.2062988</ele>
        <time>2014-04-26T07:28:40Z</time>
      </trkpt>
      <trkpt lat="43.65684" lon="3.63437">
        <ele>371.6868896</ele>
        <time>2014-04-26T07:28:46Z</time>
      </trkpt>
      <trkpt lat="43.65673" lon="3.63442">
        <ele>372.1674805</ele>
        <time>2014-04-26T07:28:53Z</time>
      </trkpt>
      <trkpt lat="43.65672" lon="3.63447">
        <ele>372.6481934</ele>
        <time>2014-04-26T07:28:56Z</time>
      </trkpt>
      <trkpt lat="43.65678" lon="3.6346">
        <ele>372.1674805</ele>
        <time>2014-04-26T07:29:02Z</time>
      </trkpt>
      <trkpt lat="43.65682" lon="3.63479">
        <ele>370.7255859</ele>
        <time>2014-04-26T07:29:07Z</time>
      </trkpt>
      <trkpt lat="43.65685" lon="3.63493">
        <ele>367.8415527</ele>
        <time>2014-04-26T07:29:14Z</time>
      </trkpt>
      <trkpt lat="43.65686" lon="3.63497">
        <ele>366.3995361</ele>
        <time>2014-04-26T07:29:18Z</time>
      </trkpt>
      <trkpt lat="43.65686" lon="3.63497">
        <ele>362.5543213</ele>
        <time>2014-04-26T07:29:45Z</time>
      </trkpt>
      <trkpt lat="43.65686" lon="3.63495">
        <ele>362.0737305</ele>
        <time>2014-04-26T07:29:46Z</time>
      </trkpt>
      <trkpt lat="43.65685" lon="3.63487">
        <ele>363.0350342</ele>
        <time>2014-04-26T07:29:54Z</time>
      </trkpt>
      <trkpt lat="43.65684" lon="3.63481">
        <ele>364.4769287</ele>
        <time>2014-04-26T07:30:02Z</time>
      </trkpt>
      <trkpt lat="43.65684" lon="3.6348">
        <ele>364.9576416</ele>
        <time>2014-04-26T07:30:10Z</time>
      </trkpt>
      <trkpt lat="43.65682" lon="3.63475">
        <ele>365.4383545</ele>
        <time>2014-04-26T07:30:14Z</time>
      </trkpt>
      <trkpt lat="43.6568" lon="3.63464">
        <ele>367.3609619</ele>
        <time>2014-04-26T07:30:23Z</time>
      </trkpt>
      <trkpt lat="43.65679" lon="3.63464">
        <ele>367.3609619</ele>
        <time>2014-04-26T07:30:24Z</time>
      </trkpt>
      <trkpt lat="43.65679" lon="3.63463">
        <ele>367.8415527</ele>
        <time>2014-04-26T07:30:29Z</time>
      </trkpt>
      <trkpt lat="43.65679" lon="3.63459">
        <ele>367.8415527</ele>
        <time>2014-04-26T07:30:30Z</time>
      </trkpt>
      <trkpt lat="43.65677" lon="3.63453">
        <ele>368.3222656</ele>
        <time>2014-04-26T07:30:33Z</time>
      </trkpt>
      <trkpt lat="43.6568" lon="3.63443">
        <ele>368.8029785</ele>
        <time>2014-04-26T07:30:38Z</time>
      </trkpt>
      <trkpt lat="43.65697" lon="3.63428">
        <ele>368.8029785</ele>
        <time>2014-04-26T07:30:45Z</time>
      </trkpt>
      <trkpt lat="43.65708" lon="3.63418">
        <ele>367.8415527</ele>
        <time>2014-04-26T07:30:50Z</time>
      </trkpt>
      <trkpt lat="43.65726" lon="3.63402">
        <ele>366.3995361</ele>
        <time>2014-04-26T07:30:55Z</time>
      </trkpt>
      <trkpt lat="43.65731" lon="3.63395">
        <ele>365.9189453</ele>
        <time>2014-04-26T07:30:57Z</time>
      </trkpt>
      <trkpt lat="43.65755" lon="3.63369">
        <ele>363.5157471</ele>
        <time>2014-04-26T07:31:03Z</time>
      </trkpt>
      <trkpt lat="43.65758" lon="3.63365">
        <ele>363.0350342</ele>
        <time>2014-04-26T07:31:04Z</time>
      </trkpt>
      <trkpt lat="43.65765" lon="3.63341">
        <ele>361.1124268</ele>
        <time>2014-04-26T07:31:08Z</time>
      </trkpt>
      <trkpt lat="43.65779" lon="3.6331">
        <ele>358.2283936</ele>
        <time>2014-04-26T07:31:13Z</time>
      </trkpt>
      <trkpt lat="43.65782" lon="3.63302">
        <ele>357.2670898</ele>
        <time>2014-04-26T07:31:14Z</time>
      </trkpt>
      <trkpt lat="43.65785" lon="3.63276">
        <ele>353.9025879</ele>
        <time>2014-04-26T07:31:18Z</time>
      </trkpt>
      <trkpt lat="43.65775" lon="3.63261">
        <ele>351.9798584</ele>
        <time>2014-04-26T07:31:21Z</time>
      </trkpt>
      <trkpt lat="43.65761" lon="3.63236">
        <ele>347.6539307</ele>
        <time>2014-04-26T07:31:26Z</time>
      </trkpt>
      <trkpt lat="43.65769" lon="3.63225">
        <ele>345.7313232</ele>
        <time>2014-04-26T07:31:29Z</time>
      </trkpt>
      <trkpt lat="43.65773" lon="3.63223">
        <ele>345.7313232</ele>
        <time>2014-04-26T07:31:30Z</time>
      </trkpt>
      <trkpt lat="43.65796" lon="3.63214">
        <ele>343.8085938</ele>
        <time>2014-04-26T07:31:34Z</time>
      </trkpt>
      <trkpt lat="43.65827" lon="3.63211">
        <ele>341.8859863</ele>
        <time>2014-04-26T07:31:39Z</time>
      </trkpt>
      <trkpt lat="43.6584" lon="3.63217">
        <ele>339.482666</ele>
        <time>2014-04-26T07:31:43Z</time>
      </trkpt>
      <trkpt lat="43.65842" lon="3.63219">
        <ele>339.0020752</ele>
        <time>2014-04-26T07:31:44Z</time>
      </trkpt>
      <trkpt lat="43.65845" lon="3.63222">
        <ele>337.5600586</ele>
        <time>2014-04-26T07:31:48Z</time>
      </trkpt>
      <trkpt lat="43.65844" lon="3.63223">
        <ele>336.1181641</ele>
        <time>2014-04-26T07:32:08Z</time>
      </trkpt>
      <trkpt lat="43.6585" lon="3.63232">
        <ele>334.1954346</ele>
        <time>2014-04-26T07:32:11Z</time>
      </trkpt>
      <trkpt lat="43.65857" lon="3.6324">
        <ele>332.75354</ele>
        <time>2014-04-26T07:32:13Z</time>
      </trkpt>
      <trkpt lat="43.65864" lon="3.6325">
        <ele>330.8309326</ele>
        <time>2014-04-26T07:32:15Z</time>
      </trkpt>
      <trkpt lat="43.65873" lon="3.63267">
        <ele>328.9083252</ele>
        <time>2014-04-26T07:32:18Z</time>
      </trkpt>
      <trkpt lat="43.65878" lon="3.63306">
        <ele>325.0629883</ele>
        <time>2014-04-26T07:32:23Z</time>
      </trkpt>
      <trkpt lat="43.65881" lon="3.63336">
        <ele>320.7370605</ele>
        <time>2014-04-26T07:32:27Z</time>
      </trkpt>
      <trkpt lat="43.65884" lon="3.63374">
        <ele>316.4110107</ele>
        <time>2014-04-26T07:32:31Z</time>
      </trkpt>
      <trkpt lat="43.65878" lon="3.63402">
        <ele>313.5272217</ele>
        <time>2014-04-26T07:32:35Z</time>
      </trkpt>
      <trkpt lat="43.6587" lon="3.63415">
        <ele>312.0852051</ele>
        <time>2014-04-26T07:32:38Z</time>
      </trkpt>
      <trkpt lat="43.6586" lon="3.63435">
        <ele>311.1237793</ele>
        <time>2014-04-26T07:32:44Z</time>
      </trkpt>
      <trkpt lat="43.65852" lon="3.63467">
        <ele>308.2398682</ele>
        <time>2014-04-26T07:32:49Z</time>
      </trkpt>
      <trkpt lat="43.65843" lon="3.63505">
        <ele>304.3946533</ele>
        <time>2014-04-26T07:32:53Z</time>
      </trkpt>
      <trkpt lat="43.6583" lon="3.63553">
        <ele>300.5493164</ele>
        <time>2014-04-26T07:32:57Z</time>
      </trkpt>
      <trkpt lat="43.65808" lon="3.63609">
        <ele>295.2619629</ele>
        <time>2014-04-26T07:33:02Z</time>
      </trkpt>
      <trkpt lat="43.65789" lon="3.63649">
        <ele>291.8974609</ele>
        <time>2014-04-26T07:33:06Z</time>
      </trkpt>
      <trkpt lat="43.65772" lon="3.63673">
        <ele>289.4941406</ele>
        <time>2014-04-26T07:33:09Z</time>
      </trkpt>
      <trkpt lat="43.65747" lon="3.63694">
        <ele>286.6102295</ele>
        <time>2014-04-26T07:33:13Z</time>
      </trkpt>
      <trkpt lat="43.65706" lon="3.63711">
        <ele>283.7261963</ele>
        <time>2014-04-26T07:33:19Z</time>
      </trkpt>
      <trkpt lat="43.65672" lon="3.63732">
        <ele>279.8808594</ele>
        <time>2014-04-26T07:33:24Z</time>
      </trkpt>
      <trkpt lat="43.6565" lon="3.63748">
        <ele>276.5163574</ele>
        <time>2014-04-26T07:33:28Z</time>
      </trkpt>
      <trkpt lat="43.65623" lon="3.63766">
        <ele>271.7097168</ele>
        <time>2014-04-26T07:33:32Z</time>
      </trkpt>
      <trkpt lat="43.65595" lon="3.63782">
        <ele>266.9031982</ele>
        <time>2014-04-26T07:33:36Z</time>
      </trkpt>
      <trkpt lat="43.6558" lon="3.63789">
        <ele>264.4998779</ele>
        <time>2014-04-26T07:33:38Z</time>
      </trkpt>
      <trkpt lat="43.65536" lon="3.63799">
        <ele>258.2513428</ele>
        <time>2014-04-26T07:33:43Z</time>
      </trkpt>
      <trkpt lat="43.65479" lon="3.63797">
        <ele>252.9639893</ele>
        <time>2014-04-26T07:33:49Z</time>
      </trkpt>
      <trkpt lat="43.65457" lon="3.63793">
        <ele>251.5220947</ele>
        <time>2014-04-26T07:33:52Z</time>
      </trkpt>
      <trkpt lat="43.65422" lon="3.63783">
        <ele>249.5994873</ele>
        <time>2014-04-26T07:33:58Z</time>
      </trkpt>
      <trkpt lat="43.65413" lon="3.63778">
        <ele>248.6381836</ele>
        <time>2014-04-26T07:34:00Z</time>
      </trkpt>
      <trkpt lat="43.6538" lon="3.6375">
        <ele>245.7541504</ele>
        <time>2014-04-26T07:34:07Z</time>
      </trkpt>
      <trkpt lat="43.65353" lon="3.63715">
        <ele>242.8702393</ele>
        <time>2014-04-26T07:34:13Z</time>
      </trkpt>
      <trkpt lat="43.6534" lon="3.63685">
        <ele>241.4282227</ele>
        <time>2014-04-26T07:34:17Z</time>
      </trkpt>
      <trkpt lat="43.65319" lon="3.63646">
        <ele>239.9862061</ele>
        <time>2014-04-26T07:34:23Z</time>
      </trkpt>
      <trkpt lat="43.65291" lon="3.63605">
        <ele>235.6602783</ele>
        <time>2014-04-26T07:34:29Z</time>
      </trkpt>
      <trkpt lat="43.6528" lon="3.6359">
        <ele>233.7376709</ele>
        <time>2014-04-26T07:34:32Z</time>
      </trkpt>
      <trkpt lat="43.65268" lon="3.63596">
        <ele>230.8537598</ele>
        <time>2014-04-26T07:34:36Z</time>
      </trkpt>
      <trkpt lat="43.65266" lon="3.63609">
        <ele>229.4117432</ele>
        <time>2014-04-26T07:34:38Z</time>
      </trkpt>
      <trkpt lat="43.65266" lon="3.63634">
        <ele>228.9311523</ele>
        <time>2014-04-26T07:34:41Z</time>
      </trkpt>
      <trkpt lat="43.65259" lon="3.63673">
        <ele>227.0085449</ele>
        <time>2014-04-26T07:34:46Z</time>
      </trkpt>
      <trkpt lat="43.65253" lon="3.63692">
        <ele>225.5665283</ele>
        <time>2014-04-26T07:34:49Z</time>
      </trkpt>
      <trkpt lat="43.6525" lon="3.63725">
        <ele>224.1245117</ele>
        <time>2014-04-26T07:34:53Z</time>
      </trkpt>
      <trkpt lat="43.65248" lon="3.63771">
        <ele>223.6437988</ele>
        <time>2014-04-26T07:34:58Z</time>
      </trkpt>
      <trkpt lat="43.65256" lon="3.63816">
        <ele>224.1245117</ele>
        <time>2014-04-26T07:35:02Z</time>
      </trkpt>
      <trkpt lat="43.65275" lon="3.63855">
        <ele>220.2791748</ele>
        <time>2014-04-26T07:35:07Z</time>
      </trkpt>
      <trkpt lat="43.65284" lon="3.63867">
        <ele>218.8372803</ele>
        <time>2014-04-26T07:35:09Z</time>
      </trkpt>
      <trkpt lat="43.65323" lon="3.63903">
        <ele>216.9146729</ele>
        <time>2014-04-26T07:35:16Z</time>
      </trkpt>
      <trkpt lat="43.6537" lon="3.63942">
        <ele>212.1080322</ele>
        <time>2014-04-26T07:35:23Z</time>
      </trkpt>
      <trkpt lat="43.65407" lon="3.63976">
        <ele>208.2628174</ele>
        <time>2014-04-26T07:35:29Z</time>
      </trkpt>
      <trkpt lat="43.65422" lon="3.64009">
        <ele>204.8980713</ele>
        <time>2014-04-26T07:35:34Z</time>
      </trkpt>
      <trkpt lat="43.65424" lon="3.64023">
        <ele>203.9368896</ele>
        <time>2014-04-26T07:35:36Z</time>
      </trkpt>
      <trkpt lat="43.65421" lon="3.6408">
        <ele>198.6495361</ele>
        <time>2014-04-26T07:35:43Z</time>
      </trkpt>
      <trkpt lat="43.65418" lon="3.64119">
        <ele>194.8043213</ele>
        <time>2014-04-26T07:35:47Z</time>
      </trkpt>
      <trkpt lat="43.65423" lon="3.64156">
        <ele>192.8817139</ele>
        <time>2014-04-26T07:35:51Z</time>
      </trkpt>
      <trkpt lat="43.65426" lon="3.64196">
        <ele>190.9589844</ele>
        <time>2014-04-26T07:35:56Z</time>
      </trkpt>
      <trkpt lat="43.65421" lon="3.64212">
        <ele>189.5169678</ele>
        <time>2014-04-26T07:35:58Z</time>
      </trkpt>
      <trkpt lat="43.65398" lon="3.64264">
        <ele>187.1137695</ele>
        <time>2014-04-26T07:36:05Z</time>
      </trkpt>
      <trkpt lat="43.65385" lon="3.64311">
        <ele>186.1524658</ele>
        <time>2014-04-26T07:36:11Z</time>
      </trkpt>
      <trkpt lat="43.6537" lon="3.64367">
        <ele>183.7490234</ele>
        <time>2014-04-26T07:36:18Z</time>
      </trkpt>
      <trkpt lat="43.65362" lon="3.64421">
        <ele>181.3458252</ele>
        <time>2014-04-26T07:36:24Z</time>
      </trkpt>
      <trkpt lat="43.65343" lon="3.64487">
        <ele>178.942627</ele>
        <time>2014-04-26T07:36:31Z</time>
      </trkpt>
      <trkpt lat="43.65325" lon="3.64545">
        <ele>177.5006104</ele>
        <time>2014-04-26T07:36:38Z</time>
      </trkpt>
      <trkpt lat="43.65317" lon="3.64569">
        <ele>177.0200195</ele>
        <time>2014-04-26T07:36:42Z</time>
      </trkpt>
      <trkpt lat="43.65307" lon="3.64582">
        <ele>176.5393066</ele>
        <time>2014-04-26T07:36:46Z</time>
      </trkpt>
      <trkpt lat="43.65275" lon="3.64597">
        <ele>176.0585938</ele>
        <time>2014-04-26T07:36:55Z</time>
      </trkpt>
      <trkpt lat="43.65246" lon="3.6461">
        <ele>175.5778809</ele>
        <time>2014-04-26T07:37:03Z</time>
      </trkpt>
      <trkpt lat="43.65201" lon="3.64631">
        <ele>175.5778809</ele>
        <time>2014-04-26T07:37:14Z</time>
      </trkpt>
      <trkpt lat="43.65157" lon="3.64652">
        <ele>175.09729</ele>
        <time>2014-04-26T07:37:24Z</time>
      </trkpt>
      <trkpt lat="43.65124" lon="3.64668">
        <ele>175.09729</ele>
        <time>2014-04-26T07:37:31Z</time>
      </trkpt>
      <trkpt lat="43.65085" lon="3.64687">
        <ele>174.6165771</ele>
        <time>2014-04-26T07:37:39Z</time>
      </trkpt>
      <trkpt lat="43.6503" lon="3.64713">
        <ele>173.6552734</ele>
        <time>2014-04-26T07:37:50Z</time>
      </trkpt>
      <trkpt lat="43.6501" lon="3.64723">
        <ele>173.6552734</ele>
        <time>2014-04-26T07:37:55Z</time>
      </trkpt>
      <trkpt lat="43.64998" lon="3.64727">
        <ele>173.1746826</ele>
        <time>2014-04-26T07:37:59Z</time>
      </trkpt>
      <trkpt lat="43.64967" lon="3.64741">
        <ele>172.2132568</ele>
        <time>2014-04-26T07:38:06Z</time>
      </trkpt>
      <trkpt lat="43.64933" lon="3.64758">
        <ele>171.2520752</ele>
        <time>2014-04-26T07:38:13Z</time>
      </trkpt>
      <trkpt lat="43.64922" lon="3.64775">
        <ele>170.7713623</ele>
        <time>2014-04-26T07:38:17Z</time>
      </trkpt>
      <trkpt lat="43.64915" lon="3.64795">
        <ele>171.2520752</ele>
        <time>2014-04-26T07:38:23Z</time>
      </trkpt>
      <trkpt lat="43.64907" lon="3.64824">
        <ele>170.7713623</ele>
        <time>2014-04-26T07:38:29Z</time>
      </trkpt>
      <trkpt lat="43.64895" lon="3.64861">
        <ele>169.3294678</ele>
        <time>2014-04-26T07:38:35Z</time>
      </trkpt>
      <trkpt lat="43.64891" lon="3.64889">
        <ele>167.8873291</ele>
        <time>2014-04-26T07:38:39Z</time>
      </trkpt>
      <trkpt lat="43.64899" lon="3.64931">
        <ele>165.4841309</ele>
        <time>2014-04-26T07:38:45Z</time>
      </trkpt>
      <trkpt lat="43.64905" lon="3.64971">
        <ele>164.0421143</ele>
        <time>2014-04-26T07:38:50Z</time>
      </trkpt>
      <trkpt lat="43.64908" lon="3.64992">
        <ele>164.5227051</ele>
        <time>2014-04-26T07:38:54Z</time>
      </trkpt>
      <trkpt lat="43.64902" lon="3.64993">
        <ele>165.4841309</ele>
        <time>2014-04-26T07:38:59Z</time>
      </trkpt>
      <trkpt lat="43.64898" lon="3.64992">
        <ele>165.4841309</ele>
        <time>2014-04-26T07:39:04Z</time>
      </trkpt>
      <trkpt lat="43.64899" lon="3.64992">
        <ele>165.4841309</ele>
        <time>2014-04-26T07:39:05Z</time>
      </trkpt>
      <trkpt lat="43.64899" lon="3.64991">
        <ele>164.5227051</ele>
        <time>2014-04-26T07:39:16Z</time>
      </trkpt>
      <trkpt lat="43.64907" lon="3.64996">
        <ele>165.003418</ele>
        <time>2014-04-26T07:39:20Z</time>
      </trkpt>
      <trkpt lat="43.64916" lon="3.65005">
        <ele>165.003418</ele>
        <time>2014-04-26T07:39:24Z</time>
      </trkpt>
      <trkpt lat="43.6493" lon="3.65016">
        <ele>165.003418</ele>
        <time>2014-04-26T07:39:32Z</time>
      </trkpt>
      <trkpt lat="43.64948" lon="3.65022">
        <ele>166.4453125</ele>
        <time>2014-04-26T07:39:38Z</time>
      </trkpt>
      <trkpt lat="43.64964" lon="3.65032">
        <ele>166.9260254</ele>
        <time>2014-04-26T07:39:44Z</time>
      </trkpt>
      <trkpt lat="43.64964" lon="3.65048">
        <ele>166.4453125</ele>
        <time>2014-04-26T07:39:48Z</time>
      </trkpt>
      <trkpt lat="43.64956" lon="3.65091">
        <ele>165.9647217</ele>
        <time>2014-04-26T07:39:57Z</time>
      </trkpt>
      <trkpt lat="43.64949" lon="3.65132">
        <ele>166.9260254</ele>
        <time>2014-04-26T07:40:06Z</time>
      </trkpt>
      <trkpt lat="43.64943" lon="3.65159">
        <ele>167.4067383</ele>
        <time>2014-04-26T07:40:13Z</time>
      </trkpt>
      <trkpt lat="43.64935" lon="3.65187">
        <ele>168.368042</ele>
        <time>2014-04-26T07:40:21Z</time>
      </trkpt>
      <trkpt lat="43.64932" lon="3.65207">
        <ele>169.8100586</ele>
        <time>2014-04-26T07:40:28Z</time>
      </trkpt>
      <trkpt lat="43.64929" lon="3.65227">
        <ele>170.7713623</ele>
        <time>2014-04-26T07:40:35Z</time>
      </trkpt>
      <trkpt lat="43.64925" lon="3.65248">
        <ele>172.2132568</ele>
        <time>2014-04-26T07:40:42Z</time>
      </trkpt>
      <trkpt lat="43.6492" lon="3.65278">
        <ele>173.6552734</ele>
        <time>2014-04-26T07:40:52Z</time>
      </trkpt>
      <trkpt lat="43.64911" lon="3.6531">
        <ele>175.5778809</ele>
        <time>2014-04-26T07:41:03Z</time>
      </trkpt>
      <trkpt lat="43.64907" lon="3.65332">
        <ele>177.0200195</ele>
        <time>2014-04-26T07:41:11Z</time>
      </trkpt>
      <trkpt lat="43.64903" lon="3.65352">
        <ele>178.4619141</ele>
        <time>2014-04-26T07:41:19Z</time>
      </trkpt>
      <trkpt lat="43.64901" lon="3.65372">
        <ele>179.4232178</ele>
        <time>2014-04-26T07:41:27Z</time>
      </trkpt>
      <trkpt lat="43.64896" lon="3.6539">
        <ele>179.9038086</ele>
        <time>2014-04-26T07:41:34Z</time>
      </trkpt>
      <trkpt lat="43.64892" lon="3.65412">
        <ele>182.7878418</ele>
        <time>2014-04-26T07:41:43Z</time>
      </trkpt>
      <trkpt lat="43.64888" lon="3.6543">
        <ele>183.7490234</ele>
        <time>2014-04-26T07:41:51Z</time>
      </trkpt>
      <trkpt lat="43.64881" lon="3.65446">
        <ele>185.6717529</ele>
        <time>2014-04-26T07:41:59Z</time>
      </trkpt>
      <trkpt lat="43.64874" lon="3.65468">
        <ele>186.6331787</ele>
        <time>2014-04-26T07:42:10Z</time>
      </trkpt>
      <trkpt lat="43.64866" lon="3.65485">
        <ele>188.5557861</ele>
        <time>2014-04-26T07:42:19Z</time>
      </trkpt>
      <trkpt lat="43.64857" lon="3.65499">
        <ele>189.9976807</ele>
        <time>2014-04-26T07:42:27Z</time>
      </trkpt>
      <trkpt lat="43.64856" lon="3.65513">
        <ele>191.4395752</ele>
        <time>2014-04-26T07:42:34Z</time>
      </trkpt>
      <trkpt lat="43.64861" lon="3.65531">
        <ele>193.3623047</ele>
        <time>2014-04-26T07:42:42Z</time>
      </trkpt>
      <trkpt lat="43.64868" lon="3.65541">
        <ele>195.765625</ele>
        <time>2014-04-26T07:42:48Z</time>
      </trkpt>
      <trkpt lat="43.64863" lon="3.65553">
        <ele>196.7269287</ele>
        <time>2014-04-26T07:42:54Z</time>
      </trkpt>
      <trkpt lat="43.64842" lon="3.65566">
        <ele>196.7269287</ele>
        <time>2014-04-26T07:43:04Z</time>
      </trkpt>
      <trkpt lat="43.64822" lon="3.6557">
        <ele>195.765625</ele>
        <time>2014-04-26T07:43:12Z</time>
      </trkpt>
      <trkpt lat="43.64813" lon="3.65574">
        <ele>196.2463379</ele>
        <time>2014-04-26T07:43:18Z</time>
      </trkpt>
      <trkpt lat="43.64807" lon="3.6558">
        <ele>196.2463379</ele>
        <time>2014-04-26T07:43:23Z</time>
      </trkpt>
      <trkpt lat="43.64797" lon="3.65585">
        <ele>197.2075195</ele>
        <time>2014-04-26T07:43:30Z</time>
      </trkpt>
      <trkpt lat="43.64784" lon="3.65588">
        <ele>196.7269287</ele>
        <time>2014-04-26T07:43:38Z</time>
      </trkpt>
      <trkpt lat="43.64772" lon="3.65588">
        <ele>197.2075195</ele>
        <time>2014-04-26T07:43:44Z</time>
      </trkpt>
      <trkpt lat="43.64758" lon="3.65589">
        <ele>197.2075195</ele>
        <time>2014-04-26T07:43:51Z</time>
      </trkpt>
      <trkpt lat="43.64741" lon="3.65588">
        <ele>197.6882324</ele>
        <time>2014-04-26T07:43:59Z</time>
      </trkpt>
      <trkpt lat="43.64726" lon="3.65587">
        <ele>198.1689453</ele>
        <time>2014-04-26T07:44:05Z</time>
      </trkpt>
      <trkpt lat="43.64703" lon="3.65585">
        <ele>197.6882324</ele>
        <time>2014-04-26T07:44:13Z</time>
      </trkpt>
      <trkpt lat="43.64694" lon="3.65593">
        <ele>197.6882324</ele>
        <time>2014-04-26T07:44:21Z</time>
      </trkpt>
      <trkpt lat="43.64691" lon="3.65601">
        <ele>198.1689453</ele>
        <time>2014-04-26T07:44:26Z</time>
      </trkpt>
      <trkpt lat="43.64685" lon="3.65616">
        <ele>200.5722656</ele>
        <time>2014-04-26T07:44:34Z</time>
      </trkpt>
      <trkpt lat="43.64675" lon="3.6563">
        <ele>201.0528564</ele>
        <time>2014-04-26T07:44:41Z</time>
      </trkpt>
      <trkpt lat="43.6467" lon="3.65633">
        <ele>200.5722656</ele>
        <time>2014-04-26T07:44:44Z</time>
      </trkpt>
      <trkpt lat="43.64657" lon="3.65647">
        <ele>201.0528564</ele>
        <time>2014-04-26T07:44:51Z</time>
      </trkpt>
      <trkpt lat="43.6465" lon="3.65656">
        <ele>201.5335693</ele>
        <time>2014-04-26T07:44:55Z</time>
      </trkpt>
      <trkpt lat="43.64653" lon="3.65665">
        <ele>202.494873</ele>
        <time>2014-04-26T07:44:59Z</time>
      </trkpt>
      <trkpt lat="43.64667" lon="3.65683">
        <ele>204.8980713</ele>
        <time>2014-04-26T07:45:08Z</time>
      </trkpt>
      <trkpt lat="43.64685" lon="3.65693">
        <ele>205.8594971</ele>
        <time>2014-04-26T07:45:16Z</time>
      </trkpt>
      <trkpt lat="43.64702" lon="3.65697">
        <ele>206.3400879</ele>
        <time>2014-04-26T07:45:23Z</time>
      </trkpt>
      <trkpt lat="43.64715" lon="3.65703">
        <ele>207.7821045</ele>
        <time>2014-04-26T07:45:29Z</time>
      </trkpt>
      <trkpt lat="43.6472" lon="3.65722">
        <ele>208.7434082</ele>
        <time>2014-04-26T07:45:35Z</time>
      </trkpt>
      <trkpt lat="43.64725" lon="3.65744">
        <ele>209.704834</ele>
        <time>2014-04-26T07:45:41Z</time>
      </trkpt>
      <trkpt lat="43.64724" lon="3.65761">
        <ele>210.1854248</ele>
        <time>2014-04-26T07:45:46Z</time>
      </trkpt>
      <trkpt lat="43.64718" lon="3.65778">
        <ele>208.7434082</ele>
        <time>2014-04-26T07:45:52Z</time>
      </trkpt>
      <trkpt lat="43.64709" lon="3.65805">
        <ele>207.7821045</ele>
        <time>2014-04-26T07:45:58Z</time>
      </trkpt>
      <trkpt lat="43.64698" lon="3.65837">
        <ele>204.8980713</ele>
        <time>2014-04-26T07:46:03Z</time>
      </trkpt>
      <trkpt lat="43.64696" lon="3.65872">
        <ele>203.9368896</ele>
        <time>2014-04-26T07:46:08Z</time>
      </trkpt>
      <trkpt lat="43.64694" lon="3.65886">
        <ele>204.4174805</ele>
        <time>2014-04-26T07:46:12Z</time>
      </trkpt>
      <trkpt lat="43.64683" lon="3.65908">
        <ele>205.3787842</ele>
        <time>2014-04-26T07:46:20Z</time>
      </trkpt>
      <trkpt lat="43.64674" lon="3.65925">
        <ele>206.3400879</ele>
        <time>2014-04-26T07:46:27Z</time>
      </trkpt>
      <trkpt lat="43.64669" lon="3.65943">
        <ele>207.3013916</ele>
        <time>2014-04-26T07:46:34Z</time>
      </trkpt>
      <trkpt lat="43.64669" lon="3.6597">
        <ele>208.2628174</ele>
        <time>2014-04-26T07:46:42Z</time>
      </trkpt>
      <trkpt lat="43.64673" lon="3.65992">
        <ele>208.7434082</ele>
        <time>2014-04-26T07:46:49Z</time>
      </trkpt>
      <trkpt lat="43.64672" lon="3.66011">
        <ele>208.7434082</ele>
        <time>2014-04-26T07:46:55Z</time>
      </trkpt>
      <trkpt lat="43.64668" lon="3.66032">
        <ele>209.704834</ele>
        <time>2014-04-26T07:47:02Z</time>
      </trkpt>
      <trkpt lat="43.64666" lon="3.66062">
        <ele>210.1854248</ele>
        <time>2014-04-26T07:47:10Z</time>
      </trkpt>
      <trkpt lat="43.64661" lon="3.6609">
        <ele>210.1854248</ele>
        <time>2014-04-26T07:47:18Z</time>
      </trkpt>
      <trkpt lat="43.64654" lon="3.66115">
        <ele>209.704834</ele>
        <time>2014-04-26T07:47:25Z</time>
      </trkpt>
      <trkpt lat="43.64657" lon="3.66144">
        <ele>210.6660156</ele>
        <time>2014-04-26T07:47:33Z</time>
      </trkpt>
      <trkpt lat="43.64661" lon="3.66166">
        <ele>210.6660156</ele>
        <time>2014-04-26T07:47:39Z</time>
      </trkpt>
      <trkpt lat="43.64663" lon="3.66201">
        <ele>210.6660156</ele>
        <time>2014-04-26T07:47:48Z</time>
      </trkpt>
      <trkpt lat="43.64666" lon="3.66223">
        <ele>210.6660156</ele>
        <time>2014-04-26T07:47:55Z</time>
      </trkpt>
      <trkpt lat="43.64664" lon="3.66244">
        <ele>210.1854248</ele>
        <time>2014-04-26T07:48:02Z</time>
      </trkpt>
      <trkpt lat="43.64664" lon="3.66264">
        <ele>208.2628174</ele>
        <time>2014-04-26T07:48:09Z</time>
      </trkpt>
      <trkpt lat="43.64663" lon="3.66275">
        <ele>206.8206787</ele>
        <time>2014-04-26T07:48:15Z</time>
      </trkpt>
      <trkpt lat="43.6466" lon="3.66284">
        <ele>204.8980713</ele>
        <time>2014-04-26T07:48:22Z</time>
      </trkpt>
      <trkpt lat="43.64657" lon="3.66294">
        <ele>202.494873</ele>
        <time>2014-04-26T07:48:28Z</time>
      </trkpt>
      <trkpt lat="43.64657" lon="3.66296">
        <ele>201.5335693</ele>
        <time>2014-04-26T07:48:32Z</time>
      </trkpt>
      <trkpt lat="43.64656" lon="3.66297">
        <ele>201.5335693</ele>
        <time>2014-04-26T07:48:35Z</time>
      </trkpt>
      <trkpt lat="43.64654" lon="3.66304">
        <ele>200.5722656</ele>
        <time>2014-04-26T07:48:40Z</time>
      </trkpt>
      <trkpt lat="43.64652" lon="3.66309">
        <ele>199.130127</ele>
        <time>2014-04-26T07:48:47Z</time>
      </trkpt>
      <trkpt lat="43.64652" lon="3.66309">
        <ele>199.130127</ele>
        <time>2014-04-26T07:48:53Z</time>
      </trkpt>
      <trkpt lat="43.64652" lon="3.6631">
        <ele>199.130127</ele>
        <time>2014-04-26T07:48:54Z</time>
      </trkpt>
      <trkpt lat="43.64652" lon="3.66311">
        <ele>199.6108398</ele>
        <time>2014-04-26T07:48:58Z</time>
      </trkpt>
      <trkpt lat="43.64645" lon="3.66326">
        <ele>197.6882324</ele>
        <time>2014-04-26T07:49:03Z</time>
      </trkpt>
      <trkpt lat="43.64651" lon="3.66333">
        <ele>196.7269287</ele>
        <time>2014-04-26T07:49:07Z</time>
      </trkpt>
      <trkpt lat="43.64653" lon="3.66334">
        <ele>196.7269287</ele>
        <time>2014-04-26T07:49:08Z</time>
      </trkpt>
      <trkpt lat="43.64669" lon="3.66343">
        <ele>197.2075195</ele>
        <time>2014-04-26T07:49:15Z</time>
      </trkpt>
      <trkpt lat="43.64684" lon="3.66357">
        <ele>198.1689453</ele>
        <time>2014-04-26T07:49:22Z</time>
      </trkpt>
      <trkpt lat="43.64698" lon="3.66373">
        <ele>199.130127</ele>
        <time>2014-04-26T07:49:29Z</time>
      </trkpt>
      <trkpt lat="43.64714" lon="3.66388">
        <ele>200.5722656</ele>
        <time>2014-04-26T07:49:37Z</time>
      </trkpt>
      <trkpt lat="43.64734" lon="3.66398">
        <ele>202.9754639</ele>
        <time>2014-04-26T07:49:45Z</time>
      </trkpt>
      <trkpt lat="43.64747" lon="3.66409">
        <ele>205.8594971</ele>
        <time>2014-04-26T07:49:51Z</time>
      </trkpt>
      <trkpt lat="43.64761" lon="3.66429">
        <ele>206.8206787</ele>
        <time>2014-04-26T07:49:59Z</time>
      </trkpt>
      <trkpt lat="43.64774" lon="3.66439">
        <ele>206.8206787</ele>
        <time>2014-04-26T07:50:05Z</time>
      </trkpt>
      <trkpt lat="43.64779" lon="3.66452">
        <ele>206.8206787</ele>
        <time>2014-04-26T07:50:11Z</time>
      </trkpt>
      <trkpt lat="43.64783" lon="3.66458">
        <ele>206.3400879</ele>
        <time>2014-04-26T07:50:15Z</time>
      </trkpt>
      <trkpt lat="43.64793" lon="3.66479">
        <ele>206.3400879</ele>
        <time>2014-04-26T07:50:23Z</time>
      </trkpt>
      <trkpt lat="43.648" lon="3.665">
        <ele>206.8206787</ele>
        <time>2014-04-26T07:50:30Z</time>
      </trkpt>
      <trkpt lat="43.64804" lon="3.66518">
        <ele>206.3400879</ele>
        <time>2014-04-26T07:50:36Z</time>
      </trkpt>
      <trkpt lat="43.64805" lon="3.66521">
        <ele>206.3400879</ele>
        <time>2014-04-26T07:50:37Z</time>
      </trkpt>
      <trkpt lat="43.64813" lon="3.66537">
        <ele>205.8594971</ele>
        <time>2014-04-26T07:50:44Z</time>
      </trkpt>
      <trkpt lat="43.64825" lon="3.66556">
        <ele>206.8206787</ele>
        <time>2014-04-26T07:50:52Z</time>
      </trkpt>
      <trkpt lat="43.6484" lon="3.66578">
        <ele>207.7821045</ele>
        <time>2014-04-26T07:51:01Z</time>
      </trkpt>
      <trkpt lat="43.64852" lon="3.66604">
        <ele>208.2628174</ele>
        <time>2014-04-26T07:51:10Z</time>
      </trkpt>
      <trkpt lat="43.64858" lon="3.66625">
        <ele>207.7821045</ele>
        <time>2014-04-26T07:51:18Z</time>
      </trkpt>
      <trkpt lat="43.64859" lon="3.66627">
        <ele>207.7821045</ele>
        <time>2014-04-26T07:51:20Z</time>
      </trkpt>
      <trkpt lat="43.64859" lon="3.66635">
        <ele>208.7434082</ele>
        <time>2014-04-26T07:51:24Z</time>
      </trkpt>
      <trkpt lat="43.64862" lon="3.66661">
        <ele>211.1467285</ele>
        <time>2014-04-26T07:51:33Z</time>
      </trkpt>
      <trkpt lat="43.64857" lon="3.66686">
        <ele>213.5500488</ele>
        <time>2014-04-26T07:51:41Z</time>
      </trkpt>
      <trkpt lat="43.64853" lon="3.66712">
        <ele>214.5112305</ele>
        <time>2014-04-26T07:51:49Z</time>
      </trkpt>
      <trkpt lat="43.64843" lon="3.66734">
        <ele>214.5112305</ele>
        <time>2014-04-26T07:51:57Z</time>
      </trkpt>
      <trkpt lat="43.64831" lon="3.66755">
        <ele>214.5112305</ele>
        <time>2014-04-26T07:52:05Z</time>
      </trkpt>
      <trkpt lat="43.64819" lon="3.66772">
        <ele>214.5112305</ele>
        <time>2014-04-26T07:52:12Z</time>
      </trkpt>
      <trkpt lat="43.64804" lon="3.66786">
        <ele>214.5112305</ele>
        <time>2014-04-26T07:52:20Z</time>
      </trkpt>
      <trkpt lat="43.64804" lon="3.66786">
        <ele>214.9919434</ele>
        <time>2014-04-26T07:52:21Z</time>
      </trkpt>
      <trkpt lat="43.64804" lon="3.66788">
        <ele>213.5500488</ele>
        <time>2014-04-26T07:52:33Z</time>
      </trkpt>
      <trkpt lat="43.64803" lon="3.66789">
        <ele>213.0693359</ele>
        <time>2014-04-26T07:52:34Z</time>
      </trkpt>
      <trkpt lat="43.64793" lon="3.66796">
        <ele>212.588623</ele>
        <time>2014-04-26T07:52:38Z</time>
      </trkpt>
      <trkpt lat="43.64778" lon="3.66809">
        <ele>212.588623</ele>
        <time>2014-04-26T07:52:45Z</time>
      </trkpt>
      <trkpt lat="43.6476" lon="3.6683">
        <ele>213.0693359</ele>
        <time>2014-04-26T07:52:54Z</time>
      </trkpt>
      <trkpt lat="43.64743" lon="3.66846">
        <ele>214.9919434</ele>
        <time>2014-04-26T07:53:02Z</time>
      </trkpt>
      <trkpt lat="43.64738" lon="3.66862">
        <ele>215.9532471</ele>
        <time>2014-04-26T07:53:08Z</time>
      </trkpt>
      <trkpt lat="43.64734" lon="3.66879">
        <ele>216.9146729</ele>
        <time>2014-04-26T07:53:14Z</time>
      </trkpt>
      <trkpt lat="43.64728" lon="3.669">
        <ele>217.3953857</ele>
        <time>2014-04-26T07:53:21Z</time>
      </trkpt>
      <trkpt lat="43.64724" lon="3.66918">
        <ele>217.3953857</ele>
        <time>2014-04-26T07:53:28Z</time>
      </trkpt>
      <trkpt lat="43.64717" lon="3.66937">
        <ele>219.3179932</ele>
        <time>2014-04-26T07:53:36Z</time>
      </trkpt>
      <trkpt lat="43.64716" lon="3.66944">
        <ele>220.2791748</ele>
        <time>2014-04-26T07:53:41Z</time>
      </trkpt>
      <trkpt lat="43.64716" lon="3.66946">
        <ele>222.6824951</ele>
        <time>2014-04-26T07:53:46Z</time>
      </trkpt>
      <trkpt lat="43.64713" lon="3.66952">
        <ele>222.6824951</ele>
        <time>2014-04-26T07:53:51Z</time>
      </trkpt>
      <trkpt lat="43.64712" lon="3.66954">
        <ele>222.6824951</ele>
        <time>2014-04-26T07:53:54Z</time>
      </trkpt>
      <trkpt lat="43.64711" lon="3.66954">
        <ele>221.2406006</ele>
        <time>2014-04-26T07:54:11Z</time>
      </trkpt>
      <trkpt lat="43.64711" lon="3.66955">
        <ele>221.2406006</ele>
        <time>2014-04-26T07:54:12Z</time>
      </trkpt>
      <trkpt lat="43.64711" lon="3.66956">
        <ele>221.7211914</ele>
        <time>2014-04-26T07:54:41Z</time>
      </trkpt>
      <trkpt lat="43.6471" lon="3.66956">
        <ele>221.7211914</ele>
        <time>2014-04-26T07:54:45Z</time>
      </trkpt>
      <trkpt lat="43.6471" lon="3.66958">
        <ele>221.2406006</ele>
        <time>2014-04-26T07:54:47Z</time>
      </trkpt>
      <trkpt lat="43.6471" lon="3.66959">
        <ele>221.7211914</ele>
        <time>2014-04-26T07:55:05Z</time>
      </trkpt>
      <trkpt lat="43.64709" lon="3.66961">
        <ele>223.163208</ele>
        <time>2014-04-26T07:55:07Z</time>
      </trkpt>
      <trkpt lat="43.64707" lon="3.66965">
        <ele>222.6824951</ele>
        <time>2014-04-26T07:55:10Z</time>
      </trkpt>
      <trkpt lat="43.64697" lon="3.6698">
        <ele>223.6437988</ele>
        <time>2014-04-26T07:55:18Z</time>
      </trkpt>
      <trkpt lat="43.64685" lon="3.66997">
        <ele>224.1245117</ele>
        <time>2014-04-26T07:55:26Z</time>
      </trkpt>
      <trkpt lat="43.64667" lon="3.67012">
        <ele>225.0859375</ele>
        <time>2014-04-26T07:55:35Z</time>
      </trkpt>
      <trkpt lat="43.64648" lon="3.67032">
        <ele>226.0471191</ele>
        <time>2014-04-26T07:55:46Z</time>
      </trkpt>
      <trkpt lat="43.64633" lon="3.67049">
        <ele>227.0085449</ele>
        <time>2014-04-26T07:55:56Z</time>
      </trkpt>
      <trkpt lat="43.64619" lon="3.6707">
        <ele>228.4504395</ele>
        <time>2014-04-26T07:56:06Z</time>
      </trkpt>
      <trkpt lat="43.64606" lon="3.67089">
        <ele>229.4117432</ele>
        <time>2014-04-26T07:56:16Z</time>
      </trkpt>
      <trkpt lat="43.64597" lon="3.67106">
        <ele>231.3343506</ele>
        <time>2014-04-26T07:56:25Z</time>
      </trkpt>
      <trkpt lat="43.64589" lon="3.67124">
        <ele>234.2183838</ele>
        <time>2014-04-26T07:56:33Z</time>
      </trkpt>
      <trkpt lat="43.64579" lon="3.67145">
        <ele>236.6217041</ele>
        <time>2014-04-26T07:56:42Z</time>
      </trkpt>
      <trkpt lat="43.64578" lon="3.67148">
        <ele>237.5828857</ele>
        <time>2014-04-26T07:56:44Z</time>
      </trkpt>
      <trkpt lat="43.64576" lon="3.67152">
        <ele>235.1796875</ele>
        <time>2014-04-26T07:58:27Z</time>
      </trkpt>
      <trkpt lat="43.64577" lon="3.67151">
        <ele>236.1409912</ele>
        <time>2014-04-26T07:58:28Z</time>
      </trkpt>
      <trkpt lat="43.64582" lon="3.67152">
        <ele>224.1245117</ele>
        <time>2014-04-26T08:00:57Z</time>
      </trkpt>
      <trkpt lat="43.64583" lon="3.6715">
        <ele>223.163208</ele>
        <time>2014-04-26T08:00:58Z</time>
      </trkpt>
      <trkpt lat="43.64581" lon="3.67147">
        <ele>235.1796875</ele>
        <time>2014-04-26T08:01:22Z</time>
      </trkpt>
      <trkpt lat="43.64582" lon="3.67144">
        <ele>237.5828857</ele>
        <time>2014-04-26T08:01:27Z</time>
      </trkpt>
      <trkpt lat="43.64581" lon="3.67146">
        <ele>238.5443115</ele>
        <time>2014-04-26T08:01:30Z</time>
      </trkpt>
      <trkpt lat="43.64579" lon="3.67148">
        <ele>241.9089355</ele>
        <time>2014-04-26T08:01:32Z</time>
      </trkpt>
      <trkpt lat="43.64577" lon="3.6715">
        <ele>240.467041</ele>
        <time>2014-04-26T08:02:00Z</time>
      </trkpt>
      <trkpt lat="43.64577" lon="3.6715">
        <ele>239.9862061</ele>
        <time>2014-04-26T08:02:02Z</time>
      </trkpt>
      <trkpt lat="43.64576" lon="3.67154">
        <ele>235.1796875</ele>
        <time>2014-04-26T08:03:34Z</time>
      </trkpt>
      <trkpt lat="43.64575" lon="3.67155">
        <ele>235.1796875</ele>
        <time>2014-04-26T08:03:35Z</time>
      </trkpt>
      <trkpt lat="43.6457" lon="3.67168">
        <ele>236.1409912</ele>
        <time>2014-04-26T08:03:42Z</time>
      </trkpt>
      <trkpt lat="43.6456" lon="3.67186">
        <ele>237.1022949</ele>
        <time>2014-04-26T08:03:52Z</time>
      </trkpt>
      <trkpt lat="43.6455" lon="3.672">
        <ele>238.5443115</ele>
        <time>2014-04-26T08:03:59Z</time>
      </trkpt>
      <trkpt lat="43.64543" lon="3.67219">
        <ele>239.9862061</ele>
        <time>2014-04-26T08:04:06Z</time>
      </trkpt>
      <trkpt lat="43.6454" lon="3.67244">
        <ele>240.9476318</ele>
        <time>2014-04-26T08:04:13Z</time>
      </trkpt>
      <trkpt lat="43.64534" lon="3.67268">
        <ele>241.9089355</ele>
        <time>2014-04-26T08:04:20Z</time>
      </trkpt>
      <trkpt lat="43.64523" lon="3.67289">
        <ele>243.3508301</ele>
        <time>2014-04-26T08:04:28Z</time>
      </trkpt>
      <trkpt lat="43.64512" lon="3.67308">
        <ele>244.7928467</ele>
        <time>2014-04-26T08:04:36Z</time>
      </trkpt>
      <trkpt lat="43.64496" lon="3.67329">
        <ele>246.2348633</ele>
        <time>2014-04-26T08:04:46Z</time>
      </trkpt>
      <trkpt lat="43.64479" lon="3.6734">
        <ele>247.1960449</ele>
        <time>2014-04-26T08:04:55Z</time>
      </trkpt>
      <trkpt lat="43.64465" lon="3.67347">
        <ele>248.6381836</ele>
        <time>2014-04-26T08:05:02Z</time>
      </trkpt>
      <trkpt lat="43.64448" lon="3.6736">
        <ele>250.0802002</ele>
        <time>2014-04-26T08:05:12Z</time>
      </trkpt>
      <trkpt lat="43.64436" lon="3.67369">
        <ele>251.5220947</ele>
        <time>2014-04-26T08:05:19Z</time>
      </trkpt>
      <trkpt lat="43.64418" lon="3.67384">
        <ele>252.9639893</ele>
        <time>2014-04-26T08:05:29Z</time>
      </trkpt>
      <trkpt lat="43.64406" lon="3.67399">
        <ele>254.4060059</ele>
        <time>2014-04-26T08:05:37Z</time>
      </trkpt>
      <trkpt lat="43.64402" lon="3.67417">
        <ele>255.8480225</ele>
        <time>2014-04-26T08:05:44Z</time>
      </trkpt>
      <trkpt lat="43.64399" lon="3.67439">
        <ele>257.2900391</ele>
        <time>2014-04-26T08:05:52Z</time>
      </trkpt>
      <trkpt lat="43.6439" lon="3.6746">
        <ele>258.7319336</ele>
        <time>2014-04-26T08:06:01Z</time>
      </trkpt>
      <trkpt lat="43.64388" lon="3.67478">
        <ele>260.1739502</ele>
        <time>2014-04-26T08:06:08Z</time>
      </trkpt>
      <trkpt lat="43.64389" lon="3.67497">
        <ele>261.1352539</ele>
        <time>2014-04-26T08:06:15Z</time>
      </trkpt>
      <trkpt lat="43.64393" lon="3.67515">
        <ele>263.0578613</ele>
        <time>2014-04-26T08:06:23Z</time>
      </trkpt>
      <trkpt lat="43.64396" lon="3.67532">
        <ele>264.4998779</ele>
        <time>2014-04-26T08:06:31Z</time>
      </trkpt>
      <trkpt lat="43.64405" lon="3.6755">
        <ele>267.864502</ele>
        <time>2014-04-26T08:06:41Z</time>
      </trkpt>
      <trkpt lat="43.64411" lon="3.67567">
        <ele>268.8258057</ele>
        <time>2014-04-26T08:06:50Z</time>
      </trkpt>
      <trkpt lat="43.64414" lon="3.67581">
        <ele>270.7484131</ele>
        <time>2014-04-26T08:06:57Z</time>
      </trkpt>
      <trkpt lat="43.64416" lon="3.67603">
        <ele>271.229126</ele>
        <time>2014-04-26T08:07:07Z</time>
      </trkpt>
      <trkpt lat="43.64416" lon="3.67626">
        <ele>271.7097168</ele>
        <time>2014-04-26T08:07:17Z</time>
      </trkpt>
      <trkpt lat="43.64416" lon="3.67643">
        <ele>272.1904297</ele>
        <time>2014-04-26T08:07:25Z</time>
      </trkpt>
      <trkpt lat="43.64416" lon="3.67657">
        <ele>272.1904297</ele>
        <time>2014-04-26T08:07:33Z</time>
      </trkpt>
      <trkpt lat="43.64416" lon="3.67666">
        <ele>272.1904297</ele>
        <time>2014-04-26T08:07:37Z</time>
      </trkpt>
      <trkpt lat="43.6441" lon="3.67673">
        <ele>271.7097168</ele>
        <time>2014-04-26T08:07:43Z</time>
      </trkpt>
      <trkpt lat="43.64392" lon="3.67673">
        <ele>271.7097168</ele>
        <time>2014-04-26T08:07:52Z</time>
      </trkpt>
      <trkpt lat="43.64369" lon="3.67671">
        <ele>273.1518555</ele>
        <time>2014-04-26T08:08:02Z</time>
      </trkpt>
      <trkpt lat="43.64346" lon="3.67669">
        <ele>274.1130371</ele>
        <time>2014-04-26T08:08:12Z</time>
      </trkpt>
      <trkpt lat="43.6432" lon="3.67665">
        <ele>274.59375</ele>
        <time>2014-04-26T08:08:20Z</time>
      </trkpt>
      <trkpt lat="43.64287" lon="3.67661">
        <ele>274.1130371</ele>
        <time>2014-04-26T08:08:28Z</time>
      </trkpt>
      <trkpt lat="43.64249" lon="3.67649">
        <ele>273.1518555</ele>
        <time>2014-04-26T08:08:36Z</time>
      </trkpt>
      <trkpt lat="43.64211" lon="3.6763">
        <ele>272.6711426</ele>
        <time>2014-04-26T08:08:44Z</time>
      </trkpt>
      <trkpt lat="43.6417" lon="3.67615">
        <ele>271.229126</ele>
        <time>2014-04-26T08:08:52Z</time>
      </trkpt>
      <trkpt lat="43.64142" lon="3.67608">
        <ele>270.7484131</ele>
        <time>2014-04-26T08:08:57Z</time>
      </trkpt>
      <trkpt lat="43.64101" lon="3.67605">
        <ele>270.2677002</ele>
        <time>2014-04-26T08:09:04Z</time>
      </trkpt>
      <trkpt lat="43.64047" lon="3.67605">
        <ele>269.3065186</ele>
        <time>2014-04-26T08:09:13Z</time>
      </trkpt>
      <trkpt lat="43.64024" lon="3.67611">
        <ele>268.8258057</ele>
        <time>2014-04-26T08:09:17Z</time>
      </trkpt>
      <trkpt lat="43.63984" lon="3.67634">
        <ele>266.4224854</ele>
        <time>2014-04-26T08:09:24Z</time>
      </trkpt>
      <trkpt lat="43.63929" lon="3.67656">
        <ele>262.0965576</ele>
        <time>2014-04-26T08:09:33Z</time>
      </trkpt>
      <trkpt lat="43.63917" lon="3.6766">
        <ele>261.6159668</ele>
        <time>2014-04-26T08:09:35Z</time>
      </trkpt>
      <trkpt lat="43.63883" lon="3.67656">
        <ele>261.1352539</ele>
        <time>2014-04-26T08:09:41Z</time>
      </trkpt>
      <trkpt lat="43.63847" lon="3.67637">
        <ele>263.0578613</ele>
        <time>2014-04-26T08:09:49Z</time>
      </trkpt>
      <trkpt lat="43.63818" lon="3.67612">
        <ele>263.5385742</ele>
        <time>2014-04-26T08:09:56Z</time>
      </trkpt>
      <trkpt lat="43.63799" lon="3.67577">
        <ele>264.0192871</ele>
        <time>2014-04-26T08:10:03Z</time>
      </trkpt>
      <trkpt lat="43.63778" lon="3.67559">
        <ele>264.0192871</ele>
        <time>2014-04-26T08:10:09Z</time>
      </trkpt>
      <trkpt lat="43.63758" lon="3.67544">
        <ele>266.4224854</ele>
        <time>2014-04-26T08:10:15Z</time>
      </trkpt>
      <trkpt lat="43.63744" lon="3.67524">
        <ele>268.3450928</ele>
        <time>2014-04-26T08:10:21Z</time>
      </trkpt>
      <trkpt lat="43.63733" lon="3.67501">
        <ele>269.7871094</ele>
        <time>2014-04-26T08:10:27Z</time>
      </trkpt>
      <trkpt lat="43.63715" lon="3.67466">
        <ele>271.229126</ele>
        <time>2014-04-26T08:10:35Z</time>
      </trkpt>
      <trkpt lat="43.63697" lon="3.67434">
        <ele>271.7097168</ele>
        <time>2014-04-26T08:10:42Z</time>
      </trkpt>
      <trkpt lat="43.63683" lon="3.67416">
        <ele>272.1904297</ele>
        <time>2014-04-26T08:10:47Z</time>
      </trkpt>
      <trkpt lat="43.63658" lon="3.67395">
        <ele>272.1904297</ele>
        <time>2014-04-26T08:10:54Z</time>
      </trkpt>
      <trkpt lat="43.63627" lon="3.6737">
        <ele>273.1518555</ele>
        <time>2014-04-26T08:11:03Z</time>
      </trkpt>
      <trkpt lat="43.63601" lon="3.67356">
        <ele>273.6324463</ele>
        <time>2014-04-26T08:11:10Z</time>
      </trkpt>
      <trkpt lat="43.63581" lon="3.67352">
        <ele>274.1130371</ele>
        <time>2014-04-26T08:11:16Z</time>
      </trkpt>
      <trkpt lat="43.63561" lon="3.6735">
        <ele>275.5550537</ele>
        <time>2014-04-26T08:11:23Z</time>
      </trkpt>
      <trkpt lat="43.63544" lon="3.67339">
        <ele>277.4776611</ele>
        <time>2014-04-26T08:11:30Z</time>
      </trkpt>
      <trkpt lat="43.63531" lon="3.67316">
        <ele>279.4002686</ele>
        <time>2014-04-26T08:11:37Z</time>
      </trkpt>
      <trkpt lat="43.63516" lon="3.67286">
        <ele>281.322998</ele>
        <time>2014-04-26T08:11:46Z</time>
      </trkpt>
      <trkpt lat="43.63503" lon="3.67261">
        <ele>282.7650146</ele>
        <time>2014-04-26T08:11:54Z</time>
      </trkpt>
      <trkpt lat="43.63491" lon="3.6724">
        <ele>283.7261963</ele>
        <time>2014-04-26T08:12:02Z</time>
      </trkpt>
      <trkpt lat="43.63479" lon="3.67223">
        <ele>284.6876221</ele>
        <time>2014-04-26T08:12:09Z</time>
      </trkpt>
      <trkpt lat="43.63461" lon="3.67212">
        <ele>285.1682129</ele>
        <time>2014-04-26T08:12:16Z</time>
      </trkpt>
      <trkpt lat="43.63445" lon="3.67209">
        <ele>285.6488037</ele>
        <time>2014-04-26T08:12:22Z</time>
      </trkpt>
      <trkpt lat="43.63418" lon="3.67203">
        <ele>285.6488037</ele>
        <time>2014-04-26T08:12:30Z</time>
      </trkpt>
      <trkpt lat="43.63398" lon="3.67196">
        <ele>284.6876221</ele>
        <time>2014-04-26T08:12:35Z</time>
      </trkpt>
      <trkpt lat="43.63386" lon="3.67178">
        <ele>283.2456055</ele>
        <time>2014-04-26T08:12:39Z</time>
      </trkpt>
      <trkpt lat="43.6337" lon="3.67156">
        <ele>280.8424072</ele>
        <time>2014-04-26T08:12:45Z</time>
      </trkpt>
      <trkpt lat="43.63354" lon="3.67162">
        <ele>279.4002686</ele>
        <time>2014-04-26T08:12:49Z</time>
      </trkpt>
      <trkpt lat="43.63311" lon="3.67193">
        <ele>277.4776611</ele>
        <time>2014-04-26T08:12:57Z</time>
      </trkpt>
      <trkpt lat="43.63282" lon="3.67205">
        <ele>275.0744629</ele>
        <time>2014-04-26T08:13:02Z</time>
      </trkpt>
      <trkpt lat="43.63247" lon="3.67216">
        <ele>271.229126</ele>
        <time>2014-04-26T08:13:09Z</time>
      </trkpt>
      <trkpt lat="43.63238" lon="3.6722">
        <ele>270.2677002</ele>
        <time>2014-04-26T08:13:11Z</time>
      </trkpt>
      <trkpt lat="43.63206" lon="3.67238">
        <ele>267.3839111</ele>
        <time>2014-04-26T08:13:17Z</time>
      </trkpt>
      <trkpt lat="43.63201" lon="3.6724">
        <ele>266.9031982</ele>
        <time>2014-04-26T08:13:19Z</time>
      </trkpt>
      <trkpt lat="43.632" lon="3.67242">
        <ele>265.9418945</ele>
        <time>2014-04-26T08:13:23Z</time>
      </trkpt>
      <trkpt lat="43.63202" lon="3.67241">
        <ele>265.9418945</ele>
        <time>2014-04-26T08:13:25Z</time>
      </trkpt>
      <trkpt lat="43.63215" lon="3.67233">
        <ele>268.8258057</ele>
        <time>2014-04-26T08:13:32Z</time>
      </trkpt>
      <trkpt lat="43.63232" lon="3.67221">
        <ele>272.6711426</ele>
        <time>2014-04-26T08:13:39Z</time>
      </trkpt>
      <trkpt lat="43.63253" lon="3.67211">
        <ele>276.0356445</ele>
        <time>2014-04-26T08:13:47Z</time>
      </trkpt>
      <trkpt lat="43.63255" lon="3.67209">
        <ele>276.0356445</ele>
        <time>2014-04-26T08:13:48Z</time>
      </trkpt>
      <trkpt lat="43.63256" lon="3.67194">
        <ele>274.59375</ele>
        <time>2014-04-26T08:13:54Z</time>
      </trkpt>
      <trkpt lat="43.63255" lon="3.67176">
        <ele>272.1904297</ele>
        <time>2014-04-26T08:14:00Z</time>
      </trkpt>
      <trkpt lat="43.63254" lon="3.67154">
        <ele>269.3065186</ele>
        <time>2014-04-26T08:14:05Z</time>
      </trkpt>
      <trkpt lat="43.63247" lon="3.67138">
        <ele>266.4224854</ele>
        <time>2014-04-26T08:14:09Z</time>
      </trkpt>
      <trkpt lat="43.63241" lon="3.67131">
        <ele>264.4998779</ele>
        <time>2014-04-26T08:14:11Z</time>
      </trkpt>
      <trkpt lat="43.63234" lon="3.6711">
        <ele>261.1352539</ele>
        <time>2014-04-26T08:14:15Z</time>
      </trkpt>
      <trkpt lat="43.63229" lon="3.67086">
        <ele>255.8480225</ele>
        <time>2014-04-26T08:14:21Z</time>
      </trkpt>
      <trkpt lat="43.63219" lon="3.67061">
        <ele>249.5994873</ele>
        <time>2014-04-26T08:14:27Z</time>
      </trkpt>
      <trkpt lat="43.63217" lon="3.67044">
        <ele>246.2348633</ele>
        <time>2014-04-26T08:14:32Z</time>
      </trkpt>
      <trkpt lat="43.63217" lon="3.67021">
        <ele>242.8702393</ele>
        <time>2014-04-26T08:14:36Z</time>
      </trkpt>
      <trkpt lat="43.63219" lon="3.66987">
        <ele>239.0249023</ele>
        <time>2014-04-26T08:14:40Z</time>
      </trkpt>
      <trkpt lat="43.63216" lon="3.66953">
        <ele>235.6602783</ele>
        <time>2014-04-26T08:14:44Z</time>
      </trkpt>
      <trkpt lat="43.63217" lon="3.66907">
        <ele>230.8537598</ele>
        <time>2014-04-26T08:14:49Z</time>
      </trkpt>
      <trkpt lat="43.6322" lon="3.66892">
        <ele>228.9311523</ele>
        <time>2014-04-26T08:14:51Z</time>
      </trkpt>
      <trkpt lat="43.63228" lon="3.66861">
        <ele>226.0471191</ele>
        <time>2014-04-26T08:14:55Z</time>
      </trkpt>
      <trkpt lat="43.63234" lon="3.66839">
        <ele>223.163208</ele>
        <time>2014-04-26T08:14:58Z</time>
      </trkpt>
      <trkpt lat="43.63236" lon="3.66816">
        <ele>220.7598877</ele>
        <time>2014-04-26T08:15:01Z</time>
      </trkpt>
      <trkpt lat="43.63242" lon="3.66789">
        <ele>216.9146729</ele>
        <time>2014-04-26T08:15:06Z</time>
      </trkpt>
      <trkpt lat="43.63246" lon="3.66777">
        <ele>214.0306396</ele>
        <time>2014-04-26T08:15:10Z</time>
      </trkpt>
      <trkpt lat="43.6325" lon="3.66755">
        <ele>210.6660156</ele>
        <time>2014-04-26T08:15:15Z</time>
      </trkpt>
      <trkpt lat="43.63249" lon="3.66707">
        <ele>205.8594971</ele>
        <time>2014-04-26T08:15:21Z</time>
      </trkpt>
      <trkpt lat="43.63247" lon="3.66657">
        <ele>201.5335693</ele>
        <time>2014-04-26T08:15:27Z</time>
      </trkpt>
      <trkpt lat="43.63244" lon="3.66625">
        <ele>199.130127</ele>
        <time>2014-04-26T08:15:31Z</time>
      </trkpt>
      <trkpt lat="43.63233" lon="3.66582">
        <ele>195.2849121</ele>
        <time>2014-04-26T08:15:37Z</time>
      </trkpt>
      <trkpt lat="43.63224" lon="3.6655">
        <ele>191.9202881</ele>
        <time>2014-04-26T08:15:41Z</time>
      </trkpt>
      <trkpt lat="43.63201" lon="3.66501">
        <ele>189.036377</ele>
        <time>2014-04-26T08:15:47Z</time>
      </trkpt>
      <trkpt lat="43.63182" lon="3.66464">
        <ele>187.1137695</ele>
        <time>2014-04-26T08:15:52Z</time>
      </trkpt>
      <trkpt lat="43.63174" lon="3.66446">
        <ele>186.1524658</ele>
        <time>2014-04-26T08:15:55Z</time>
      </trkpt>
      <trkpt lat="43.63153" lon="3.66424">
        <ele>184.7105713</ele>
        <time>2014-04-26T08:16:01Z</time>
      </trkpt>
      <trkpt lat="43.63142" lon="3.66416">
        <ele>183.7490234</ele>
        <time>2014-04-26T08:16:04Z</time>
      </trkpt>
      <trkpt lat="43.63104" lon="3.66401">
        <ele>181.3458252</ele>
        <time>2014-04-26T08:16:12Z</time>
      </trkpt>
      <trkpt lat="43.63077" lon="3.664">
        <ele>180.3845215</ele>
        <time>2014-04-26T08:16:17Z</time>
      </trkpt>
      <trkpt lat="43.63051" lon="3.66398">
        <ele>179.9038086</ele>
        <time>2014-04-26T08:16:22Z</time>
      </trkpt>
      <trkpt lat="43.63046" lon="3.66398">
        <ele>180.8652344</ele>
        <time>2014-04-26T08:16:25Z</time>
      </trkpt>
      <trkpt lat="43.63046" lon="3.66398">
        <ele>181.3458252</ele>
        <time>2014-04-26T08:16:33Z</time>
      </trkpt>
      <trkpt lat="43.63035" lon="3.66403">
        <ele>180.8652344</ele>
        <time>2014-04-26T08:16:38Z</time>
      </trkpt>
      <trkpt lat="43.63015" lon="3.66411">
        <ele>180.8652344</ele>
        <time>2014-04-26T08:16:43Z</time>
      </trkpt>
      <trkpt lat="43.63002" lon="3.6642">
        <ele>179.9038086</ele>
        <time>2014-04-26T08:16:46Z</time>
      </trkpt>
      <trkpt lat="43.62986" lon="3.66428">
        <ele>179.9038086</ele>
        <time>2014-04-26T08:16:50Z</time>
      </trkpt>
      <trkpt lat="43.62959" lon="3.66437">
        <ele>178.4619141</ele>
        <time>2014-04-26T08:16:57Z</time>
      </trkpt>
      <trkpt lat="43.6294" lon="3.66435">
        <ele>177.9812012</ele>
        <time>2014-04-26T08:17:02Z</time>
      </trkpt>
      <trkpt lat="43.62923" lon="3.66431">
        <ele>176.5393066</ele>
        <time>2014-04-26T08:17:07Z</time>
      </trkpt>
      <trkpt lat="43.6291" lon="3.66422">
        <ele>176.5393066</ele>
        <time>2014-04-26T08:17:11Z</time>
      </trkpt>
      <trkpt lat="43.62884" lon="3.66392">
        <ele>175.09729</ele>
        <time>2014-04-26T08:17:19Z</time>
      </trkpt>
      <trkpt lat="43.62874" lon="3.66375">
        <ele>172.6939697</ele>
        <time>2014-04-26T08:17:23Z</time>
      </trkpt>
      <trkpt lat="43.62867" lon="3.66367">
        <ele>171.732666</ele>
        <time>2014-04-26T08:17:25Z</time>
      </trkpt>
      <trkpt lat="43.6285" lon="3.66351">
        <ele>169.8100586</ele>
        <time>2014-04-26T08:17:29Z</time>
      </trkpt>
      <trkpt lat="43.62834" lon="3.66325">
        <ele>168.368042</ele>
        <time>2014-04-26T08:17:35Z</time>
      </trkpt>
      <trkpt lat="43.62827" lon="3.6631">
        <ele>164.5227051</ele>
        <time>2014-04-26T08:17:39Z</time>
      </trkpt>
      <trkpt lat="43.62821" lon="3.66299">
        <ele>162.1195068</ele>
        <time>2014-04-26T08:17:41Z</time>
      </trkpt>
      <trkpt lat="43.62801" lon="3.66278">
        <ele>161.1582031</ele>
        <time>2014-04-26T08:17:46Z</time>
      </trkpt>
      <trkpt lat="43.62786" lon="3.66273">
        <ele>159.7161865</ele>
        <time>2014-04-26T08:17:50Z</time>
      </trkpt>
      <trkpt lat="43.62767" lon="3.66275">
        <ele>156.8321533</ele>
        <time>2014-04-26T08:17:55Z</time>
      </trkpt>
      <trkpt lat="43.62751" lon="3.6627">
        <ele>155.3902588</ele>
        <time>2014-04-26T08:17:59Z</time>
      </trkpt>
      <trkpt lat="43.62729" lon="3.66267">
        <ele>152.9869385</ele>
        <time>2014-04-26T08:18:05Z</time>
      </trkpt>
      <trkpt lat="43.62714" lon="3.66268">
        <ele>151.064209</ele>
        <time>2014-04-26T08:18:10Z</time>
      </trkpt>
      <trkpt lat="43.62704" lon="3.66266">
        <ele>148.1804199</ele>
        <time>2014-04-26T08:18:15Z</time>
      </trkpt>
      <trkpt lat="43.62691" lon="3.66269">
        <ele>147.2189941</ele>
        <time>2014-04-26T08:18:20Z</time>
      </trkpt>
      <trkpt lat="43.62683" lon="3.66276">
        <ele>146.2578125</ele>
        <time>2014-04-26T08:18:23Z</time>
      </trkpt>
      <trkpt lat="43.62629" lon="3.66306">
        <ele>140.0091553</ele>
        <time>2014-04-26T08:18:48Z</time>
      </trkpt>
      <trkpt lat="43.62634" lon="3.66304">
        <ele>140.970459</ele>
        <time>2014-04-26T08:18:50Z</time>
      </trkpt>
      <trkpt lat="43.62636" lon="3.66307">
        <ele>142.4124756</ele>
        <time>2014-04-26T08:21:50Z</time>
      </trkpt>
      <trkpt lat="43.62635" lon="3.66309">
        <ele>142.4124756</ele>
        <time>2014-04-26T08:21:51Z</time>
      </trkpt>
      <trkpt lat="43.62641" lon="3.66302">
        <ele>150.5836182</ele>
        <time>2014-04-26T08:22:51Z</time>
      </trkpt>
      <trkpt lat="43.62641" lon="3.66302">
        <ele>150.1030273</ele>
        <time>2014-04-26T08:22:52Z</time>
      </trkpt>
      <trkpt lat="43.62639" lon="3.66302">
        <ele>147.699707</ele>
        <time>2014-04-26T08:23:20Z</time>
      </trkpt>
      <trkpt lat="43.62639" lon="3.66301">
        <ele>146.7384033</ele>
        <time>2014-04-26T08:23:21Z</time>
      </trkpt>
      <trkpt lat="43.62638" lon="3.66302">
        <ele>146.2578125</ele>
        <time>2014-04-26T08:23:24Z</time>
      </trkpt>
      <trkpt lat="43.62638" lon="3.66302">
        <ele>146.7384033</ele>
        <time>2014-04-26T08:23:25Z</time>
      </trkpt>
      <trkpt lat="43.62636" lon="3.66301">
        <ele>143.3736572</ele>
        <time>2014-04-26T08:26:24Z</time>
      </trkpt>
      <trkpt lat="43.62637" lon="3.66302">
        <ele>143.3736572</ele>
        <time>2014-04-26T08:26:26Z</time>
      </trkpt>
      <trkpt lat="43.62637" lon="3.66304">
        <ele>145.2963867</ele>
        <time>2014-04-26T08:26:41Z</time>
      </trkpt>
      <trkpt lat="43.62636" lon="3.66304">
        <ele>145.7770996</ele>
        <time>2014-04-26T08:26:42Z</time>
      </trkpt>
      <trkpt lat="43.62636" lon="3.66304">
        <ele>146.2578125</ele>
        <time>2014-04-26T08:26:47Z</time>
      </trkpt>
      <trkpt lat="43.62636" lon="3.66304">
        <ele>146.7384033</ele>
        <time>2014-04-26T08:26:48Z</time>
      </trkpt>
      <trkpt lat="43.62636" lon="3.66304">
        <ele>147.2189941</ele>
        <time>2014-04-26T08:26:49Z</time>
      </trkpt>
      <trkpt lat="43.62635" lon="3.66304">
        <ele>149.6223145</ele>
        <time>2014-04-26T08:27:02Z</time>
      </trkpt>
      <trkpt lat="43.62628" lon="3.6631">
        <ele>149.6223145</ele>
        <time>2014-04-26T08:27:07Z</time>
      </trkpt>
      <trkpt lat="43.62627" lon="3.66312">
        <ele>150.1030273</ele>
        <time>2014-04-26T08:27:11Z</time>
      </trkpt>
      <trkpt lat="43.62626" lon="3.66313">
        <ele>150.1030273</ele>
        <time>2014-04-26T08:27:21Z</time>
      </trkpt>
      <trkpt lat="43.6262" lon="3.66324">
        <ele>149.6223145</ele>
        <time>2014-04-26T08:27:24Z</time>
      </trkpt>
      <trkpt lat="43.62617" lon="3.6635">
        <ele>150.1030273</ele>
        <time>2014-04-26T08:27:28Z</time>
      </trkpt>
      <trkpt lat="43.62612" lon="3.66419">
        <ele>150.1030273</ele>
        <time>2014-04-26T08:27:36Z</time>
      </trkpt>
      <trkpt lat="43.62605" lon="3.66529">
        <ele>150.1030273</ele>
        <time>2014-04-26T08:27:48Z</time>
      </trkpt>
      <trkpt lat="43.626" lon="3.66611">
        <ele>150.5836182</ele>
        <time>2014-04-26T08:27:57Z</time>
      </trkpt>
      <trkpt lat="43.62596" lon="3.66666">
        <ele>151.5449219</ele>
        <time>2014-04-26T08:28:03Z</time>
      </trkpt>
      <trkpt lat="43.6259" lon="3.66754">
        <ele>150.5836182</ele>
        <time>2014-04-26T08:28:12Z</time>
      </trkpt>
      <trkpt lat="43.62587" lon="3.66808">
        <ele>151.064209</ele>
        <time>2014-04-26T08:28:17Z</time>
      </trkpt>
      <trkpt lat="43.62582" lon="3.66877">
        <ele>152.0257568</ele>
        <time>2014-04-26T08:28:23Z</time>
      </trkpt>
      <trkpt lat="43.62576" lon="3.66956">
        <ele>152.5063477</ele>
        <time>2014-04-26T08:28:30Z</time>
      </trkpt>
      <trkpt lat="43.62576" lon="3.66976">
        <ele>152.9869385</ele>
        <time>2014-04-26T08:28:32Z</time>
      </trkpt>
      <trkpt lat="43.62569" lon="3.66994">
        <ele>150.1030273</ele>
        <time>2014-04-26T08:28:35Z</time>
      </trkpt>
      <trkpt lat="43.62559" lon="3.66991">
        <ele>149.6223145</ele>
        <time>2014-04-26T08:28:37Z</time>
      </trkpt>
      <trkpt lat="43.62543" lon="3.66967">
        <ele>147.699707</ele>
        <time>2014-04-26T08:28:42Z</time>
      </trkpt>
      <trkpt lat="43.62543" lon="3.66961">
        <ele>147.2189941</ele>
        <time>2014-04-26T08:28:43Z</time>
      </trkpt>
      <trkpt lat="43.6254" lon="3.66916">
        <ele>145.2963867</ele>
        <time>2014-04-26T08:28:50Z</time>
      </trkpt>
      <trkpt lat="43.62539" lon="3.66884">
        <ele>143.8543701</ele>
        <time>2014-04-26T08:28:56Z</time>
      </trkpt>
      <trkpt lat="43.62537" lon="3.66889">
        <ele>143.8543701</ele>
        <time>2014-04-26T08:29:01Z</time>
      </trkpt>
      <trkpt lat="43.62538" lon="3.66897">
        <ele>143.8543701</ele>
        <time>2014-04-26T08:29:03Z</time>
      </trkpt>
      <trkpt lat="43.62542" lon="3.66955">
        <ele>144.8157959</ele>
        <time>2014-04-26T08:29:12Z</time>
      </trkpt>
      <trkpt lat="43.62549" lon="3.66986">
        <ele>145.7770996</ele>
        <time>2014-04-26T08:29:18Z</time>
      </trkpt>
      <trkpt lat="43.62563" lon="3.66996">
        <ele>147.699707</ele>
        <time>2014-04-26T08:29:23Z</time>
      </trkpt>
      <trkpt lat="43.62571" lon="3.67002">
        <ele>149.1416016</ele>
        <time>2014-04-26T08:29:28Z</time>
      </trkpt>
      <trkpt lat="43.62572" lon="3.67003">
        <ele>149.6223145</ele>
        <time>2014-04-26T08:29:29Z</time>
      </trkpt>
      <trkpt lat="43.62573" lon="3.67017">
        <ele>149.1416016</ele>
        <time>2014-04-26T08:29:35Z</time>
      </trkpt>
      <trkpt lat="43.62572" lon="3.67027">
        <ele>149.1416016</ele>
        <time>2014-04-26T08:29:38Z</time>
      </trkpt>
      <trkpt lat="43.62577" lon="3.67031">
        <ele>149.1416016</ele>
        <time>2014-04-26T08:29:42Z</time>
      </trkpt>
      <trkpt lat="43.62578" lon="3.67026">
        <ele>149.1416016</ele>
        <time>2014-04-26T08:29:44Z</time>
      </trkpt>
      <trkpt lat="43.62575" lon="3.67008">
        <ele>147.699707</ele>
        <time>2014-04-26T08:29:50Z</time>
      </trkpt>
      <trkpt lat="43.62563" lon="3.66993">
        <ele>146.2578125</ele>
        <time>2014-04-26T08:29:56Z</time>
      </trkpt>
      <trkpt lat="43.62555" lon="3.66987">
        <ele>146.7384033</ele>
        <time>2014-04-26T08:30:00Z</time>
      </trkpt>
      <trkpt lat="43.62556" lon="3.66992">
        <ele>147.2189941</ele>
        <time>2014-04-26T08:30:04Z</time>
      </trkpt>
      <trkpt lat="43.62566" lon="3.66996">
        <ele>148.6610107</ele>
        <time>2014-04-26T08:30:10Z</time>
      </trkpt>
      <trkpt lat="43.6257" lon="3.66995">
        <ele>149.1416016</ele>
        <time>2014-04-26T08:30:15Z</time>
      </trkpt>
      <trkpt lat="43.62566" lon="3.66992">
        <ele>148.6610107</ele>
        <time>2014-04-26T08:30:17Z</time>
      </trkpt>
      <trkpt lat="43.6255" lon="3.66987">
        <ele>147.2189941</ele>
        <time>2014-04-26T08:30:22Z</time>
      </trkpt>
      <trkpt lat="43.62542" lon="3.66979">
        <ele>147.2189941</ele>
        <time>2014-04-26T08:30:26Z</time>
      </trkpt>
      <trkpt lat="43.62543" lon="3.6697">
        <ele>145.7770996</ele>
        <time>2014-04-26T08:30:32Z</time>
      </trkpt>
      <trkpt lat="43.62542" lon="3.66953">
        <ele>144.8157959</ele>
        <time>2014-04-26T08:30:37Z</time>
      </trkpt>
      <trkpt lat="43.6254" lon="3.66914">
        <ele>143.8543701</ele>
        <time>2014-04-26T08:30:44Z</time>
      </trkpt>
      <trkpt lat="43.62536" lon="3.6686">
        <ele>142.8930664</ele>
        <time>2014-04-26T08:30:52Z</time>
      </trkpt>
      <trkpt lat="43.62531" lon="3.668">
        <ele>141.4510498</ele>
        <time>2014-04-26T08:31:00Z</time>
      </trkpt>
      <trkpt lat="43.62522" lon="3.66719">
        <ele>140.4898682</ele>
        <time>2014-04-26T08:31:10Z</time>
      </trkpt>
      <trkpt lat="43.62516" lon="3.66639">
        <ele>139.5284424</ele>
        <time>2014-04-26T08:31:19Z</time>
      </trkpt>
      <trkpt lat="43.62513" lon="3.66548">
        <ele>137.605835</ele>
        <time>2014-04-26T08:31:29Z</time>
      </trkpt>
      <trkpt lat="43.62506" lon="3.66461">
        <ele>136.6446533</ele>
        <time>2014-04-26T08:31:39Z</time>
      </trkpt>
      <trkpt lat="43.62496" lon="3.66396">
        <ele>135.6831055</ele>
        <time>2014-04-26T08:31:47Z</time>
      </trkpt>
      <trkpt lat="43.62483" lon="3.66345">
        <ele>134.7219238</ele>
        <time>2014-04-26T08:31:54Z</time>
      </trkpt>
      <trkpt lat="43.6247" lon="3.66302">
        <ele>134.2412109</ele>
        <time>2014-04-26T08:32:00Z</time>
      </trkpt>
      <trkpt lat="43.62468" lon="3.66296">
        <ele>134.7219238</ele>
        <time>2014-04-26T08:32:01Z</time>
      </trkpt>
      <trkpt lat="43.6247" lon="3.66267">
        <ele>134.2412109</ele>
        <time>2014-04-26T08:32:06Z</time>
      </trkpt>
      <trkpt lat="43.62479" lon="3.66224">
        <ele>132.7993164</ele>
        <time>2014-04-26T08:32:13Z</time>
      </trkpt>
      <trkpt lat="43.62479" lon="3.66177">
        <ele>131.3572998</ele>
        <time>2014-04-26T08:32:21Z</time>
      </trkpt>
      <trkpt lat="43.62479" lon="3.66138">
        <ele>132.7993164</ele>
        <time>2014-04-26T08:32:28Z</time>
      </trkpt>
      <trkpt lat="43.62476" lon="3.66101">
        <ele>134.7219238</ele>
        <time>2014-04-26T08:32:36Z</time>
      </trkpt>
      <trkpt lat="43.62475" lon="3.66068">
        <ele>137.605835</ele>
        <time>2014-04-26T08:32:44Z</time>
      </trkpt>
      <trkpt lat="43.62472" lon="3.6604">
        <ele>139.5284424</ele>
        <time>2014-04-26T08:32:52Z</time>
      </trkpt>
      <trkpt lat="43.6247" lon="3.66019">
        <ele>140.0091553</ele>
        <time>2014-04-26T08:32:58Z</time>
      </trkpt>
      <trkpt lat="43.6247" lon="3.65998">
        <ele>140.4898682</ele>
        <time>2014-04-26T08:33:04Z</time>
      </trkpt>
      <trkpt lat="43.62469" lon="3.65988">
        <ele>140.970459</ele>
        <time>2014-04-26T08:33:08Z</time>
      </trkpt>
      <trkpt lat="43.62468" lon="3.65957">
        <ele>142.4124756</ele>
        <time>2014-04-26T08:33:17Z</time>
      </trkpt>
      <trkpt lat="43.62467" lon="3.65924">
        <ele>143.8543701</ele>
        <time>2014-04-26T08:33:26Z</time>
      </trkpt>
      <trkpt lat="43.62465" lon="3.65889">
        <ele>144.3352051</ele>
        <time>2014-04-26T08:33:35Z</time>
      </trkpt>
      <trkpt lat="43.62463" lon="3.65857">
        <ele>144.8157959</ele>
        <time>2014-04-26T08:33:43Z</time>
      </trkpt>
      <trkpt lat="43.62458" lon="3.65837">
        <ele>145.2963867</ele>
        <time>2014-04-26T08:33:49Z</time>
      </trkpt>
      <trkpt lat="43.62448" lon="3.65819">
        <ele>148.1804199</ele>
        <time>2014-04-26T08:33:56Z</time>
      </trkpt>
      <trkpt lat="43.62436" lon="3.65818">
        <ele>152.0257568</ele>
        <time>2014-04-26T08:34:02Z</time>
      </trkpt>
      <trkpt lat="43.62426" lon="3.65833">
        <ele>154.4289551</ele>
        <time>2014-04-26T08:34:09Z</time>
      </trkpt>
      <trkpt lat="43.62419" lon="3.65855">
        <ele>155.8709717</ele>
        <time>2014-04-26T08:34:17Z</time>
      </trkpt>
      <trkpt lat="43.62412" lon="3.65877">
        <ele>158.2741699</ele>
        <time>2014-04-26T08:34:25Z</time>
      </trkpt>
      <trkpt lat="43.62404" lon="3.65893">
        <ele>159.7161865</ele>
        <time>2014-04-26T08:34:31Z</time>
      </trkpt>
      <trkpt lat="43.62395" lon="3.65907">
        <ele>161.638916</ele>
        <time>2014-04-26T08:34:38Z</time>
      </trkpt>
      <trkpt lat="43.62383" lon="3.65908">
        <ele>163.0808105</ele>
        <time>2014-04-26T08:34:44Z</time>
      </trkpt>
      <trkpt lat="43.62366" lon="3.65898">
        <ele>165.4841309</ele>
        <time>2014-04-26T08:34:53Z</time>
      </trkpt>
      <trkpt lat="43.62358" lon="3.6588">
        <ele>166.4453125</ele>
        <time>2014-04-26T08:35:00Z</time>
      </trkpt>
      <trkpt lat="43.62349" lon="3.65864">
        <ele>167.8873291</ele>
        <time>2014-04-26T08:35:07Z</time>
      </trkpt>
      <trkpt lat="43.62338" lon="3.65859">
        <ele>169.3294678</ele>
        <time>2014-04-26T08:35:14Z</time>
      </trkpt>
      <trkpt lat="43.62337" lon="3.65858">
        <ele>169.8100586</ele>
        <time>2014-04-26T08:35:15Z</time>
      </trkpt>
      <trkpt lat="43.62335" lon="3.6586">
        <ele>169.8100586</ele>
        <time>2014-04-26T08:35:18Z</time>
      </trkpt>
      <trkpt lat="43.62341" lon="3.65861">
        <ele>169.3294678</ele>
        <time>2014-04-26T08:35:23Z</time>
      </trkpt>
      <trkpt lat="43.62342" lon="3.65859">
        <ele>169.8100586</ele>
        <time>2014-04-26T08:35:24Z</time>
      </trkpt>
      <trkpt lat="43.62346" lon="3.6585">
        <ele>169.3294678</ele>
        <time>2014-04-26T08:35:30Z</time>
      </trkpt>
      <trkpt lat="43.62345" lon="3.65849">
        <ele>169.3294678</ele>
        <time>2014-04-26T08:35:33Z</time>
      </trkpt>
      <trkpt lat="43.62346" lon="3.65849">
        <ele>169.8100586</ele>
        <time>2014-04-26T08:35:57Z</time>
      </trkpt>
      <trkpt lat="43.62348" lon="3.65829">
        <ele>168.368042</ele>
        <time>2014-04-26T08:36:02Z</time>
      </trkpt>
      <trkpt lat="43.62346" lon="3.65815">
        <ele>167.4067383</ele>
        <time>2014-04-26T08:36:06Z</time>
      </trkpt>
      <trkpt lat="43.62343" lon="3.65797">
        <ele>165.003418</ele>
        <time>2014-04-26T08:36:10Z</time>
      </trkpt>
      <trkpt lat="43.62338" lon="3.65785">
        <ele>163.5615234</ele>
        <time>2014-04-26T08:36:13Z</time>
      </trkpt>
      <trkpt lat="43.62337" lon="3.65766">
        <ele>160.1968994</ele>
        <time>2014-04-26T08:36:17Z</time>
      </trkpt>
      <trkpt lat="43.62335" lon="3.6576">
        <ele>159.2354736</ele>
        <time>2014-04-26T08:36:18Z</time>
      </trkpt>
      <trkpt lat="43.62328" lon="3.65725">
        <ele>154.9095459</ele>
        <time>2014-04-26T08:36:24Z</time>
      </trkpt>
      <trkpt lat="43.62329" lon="3.65681">
        <ele>153.4676514</ele>
        <time>2014-04-26T08:36:30Z</time>
      </trkpt>
      <trkpt lat="43.62329" lon="3.65672">
        <ele>153.4676514</ele>
        <time>2014-04-26T08:36:31Z</time>
      </trkpt>
      <trkpt lat="43.62336" lon="3.65642">
        <ele>152.0257568</ele>
        <time>2014-04-26T08:36:35Z</time>
      </trkpt>
      <trkpt lat="43.62345" lon="3.65586">
        <ele>148.6610107</ele>
        <time>2014-04-26T08:36:42Z</time>
      </trkpt>
      <trkpt lat="43.62346" lon="3.65578">
        <ele>148.1804199</ele>
        <time>2014-04-26T08:36:43Z</time>
      </trkpt>
      <trkpt lat="43.62343" lon="3.65529">
        <ele>146.2578125</ele>
        <time>2014-04-26T08:36:49Z</time>
      </trkpt>
      <trkpt lat="43.62343" lon="3.65484">
        <ele>146.7384033</ele>
        <time>2014-04-26T08:36:56Z</time>
      </trkpt>
      <trkpt lat="43.6234" lon="3.65438">
        <ele>146.7384033</ele>
        <time>2014-04-26T08:37:04Z</time>
      </trkpt>
      <trkpt lat="43.62339" lon="3.65406">
        <ele>148.1804199</ele>
        <time>2014-04-26T08:37:10Z</time>
      </trkpt>
      <trkpt lat="43.62339" lon="3.65396">
        <ele>148.1804199</ele>
        <time>2014-04-26T08:37:14Z</time>
      </trkpt>
      <trkpt lat="43.62339" lon="3.65396">
        <ele>148.1804199</ele>
        <time>2014-04-26T08:37:16Z</time>
      </trkpt>
      <trkpt lat="43.62339" lon="3.65397">
        <ele>147.2189941</ele>
        <time>2014-04-26T08:37:21Z</time>
      </trkpt>
      <trkpt lat="43.6234" lon="3.65395">
        <ele>146.7384033</ele>
        <time>2014-04-26T08:37:22Z</time>
      </trkpt>
      <trkpt lat="43.6234" lon="3.65387">
        <ele>145.7770996</ele>
        <time>2014-04-26T08:37:27Z</time>
      </trkpt>
      <trkpt lat="43.62338" lon="3.65371">
        <ele>146.2578125</ele>
        <time>2014-04-26T08:37:34Z</time>
      </trkpt>
      <trkpt lat="43.62329" lon="3.65344">
        <ele>148.1804199</ele>
        <time>2014-04-26T08:37:40Z</time>
      </trkpt>
      <trkpt lat="43.62323" lon="3.65324">
        <ele>149.6223145</ele>
        <time>2014-04-26T08:37:44Z</time>
      </trkpt>
      <trkpt lat="43.62319" lon="3.65298">
        <ele>150.1030273</ele>
        <time>2014-04-26T08:37:49Z</time>
      </trkpt>
      <trkpt lat="43.62321" lon="3.65273">
        <ele>150.5836182</ele>
        <time>2014-04-26T08:37:57Z</time>
      </trkpt>
      <trkpt lat="43.62324" lon="3.65251">
        <ele>152.0257568</ele>
        <time>2014-04-26T08:38:04Z</time>
      </trkpt>
      <trkpt lat="43.62325" lon="3.65235">
        <ele>153.4676514</ele>
        <time>2014-04-26T08:38:10Z</time>
      </trkpt>
      <trkpt lat="43.62324" lon="3.65222">
        <ele>153.9483643</ele>
        <time>2014-04-26T08:38:15Z</time>
      </trkpt>
      <trkpt lat="43.6232" lon="3.65204">
        <ele>155.3902588</ele>
        <time>2014-04-26T08:38:23Z</time>
      </trkpt>
      <trkpt lat="43.62316" lon="3.65193">
        <ele>156.3515625</ele>
        <time>2014-04-26T08:38:31Z</time>
      </trkpt>
      <trkpt lat="43.62314" lon="3.65185">
        <ele>156.3515625</ele>
        <time>2014-04-26T08:38:36Z</time>
      </trkpt>
      <trkpt lat="43.62309" lon="3.6517">
        <ele>156.8321533</ele>
        <time>2014-04-26T08:38:44Z</time>
      </trkpt>
      <trkpt lat="43.62303" lon="3.65155">
        <ele>155.3902588</ele>
        <time>2014-04-26T08:38:52Z</time>
      </trkpt>
      <trkpt lat="43.62295" lon="3.6514">
        <ele>154.4289551</ele>
        <time>2014-04-26T08:38:56Z</time>
      </trkpt>
      <trkpt lat="43.62291" lon="3.65134">
        <ele>155.8709717</ele>
        <time>2014-04-26T08:39:00Z</time>
      </trkpt>
      <trkpt lat="43.62289" lon="3.65133">
        <ele>156.8321533</ele>
        <time>2014-04-26T08:39:02Z</time>
      </trkpt>
      <trkpt lat="43.62284" lon="3.65143">
        <ele>157.3128662</ele>
        <time>2014-04-26T08:39:07Z</time>
      </trkpt>
      <trkpt lat="43.62271" lon="3.65161">
        <ele>156.8321533</ele>
        <time>2014-04-26T08:39:14Z</time>
      </trkpt>
      <trkpt lat="43.62263" lon="3.65167">
        <ele>155.8709717</ele>
        <time>2014-04-26T08:39:16Z</time>
      </trkpt>
      <trkpt lat="43.62241" lon="3.65173">
        <ele>154.4289551</ele>
        <time>2014-04-26T08:39:20Z</time>
      </trkpt>
      <trkpt lat="43.62219" lon="3.6517">
        <ele>155.8709717</ele>
        <time>2014-04-26T08:39:25Z</time>
      </trkpt>
      <trkpt lat="43.62207" lon="3.65174">
        <ele>156.3515625</ele>
        <time>2014-04-26T08:39:31Z</time>
      </trkpt>
      <trkpt lat="43.62185" lon="3.65185">
        <ele>157.7935791</ele>
        <time>2014-04-26T08:39:38Z</time>
      </trkpt>
      <trkpt lat="43.62168" lon="3.65203">
        <ele>157.7935791</ele>
        <time>2014-04-26T08:39:43Z</time>
      </trkpt>
      <trkpt lat="43.62152" lon="3.65227">
        <ele>154.9095459</ele>
        <time>2014-04-26T08:39:48Z</time>
      </trkpt>
      <trkpt lat="43.62142" lon="3.65229">
        <ele>154.9095459</ele>
        <time>2014-04-26T08:39:51Z</time>
      </trkpt>
      <trkpt lat="43.62124" lon="3.65215">
        <ele>155.8709717</ele>
        <time>2014-04-26T08:39:59Z</time>
      </trkpt>
      <trkpt lat="43.62113" lon="3.65203">
        <ele>156.8321533</ele>
        <time>2014-04-26T08:40:05Z</time>
      </trkpt>
      <trkpt lat="43.62098" lon="3.65187">
        <ele>157.3128662</ele>
        <time>2014-04-26T08:40:12Z</time>
      </trkpt>
      <trkpt lat="43.62086" lon="3.65166">
        <ele>158.2741699</ele>
        <time>2014-04-26T08:40:19Z</time>
      </trkpt>
      <trkpt lat="43.62075" lon="3.65138">
        <ele>159.7161865</ele>
        <time>2014-04-26T08:40:28Z</time>
      </trkpt>
      <trkpt lat="43.62069" lon="3.65118">
        <ele>160.6774902</ele>
        <time>2014-04-26T08:40:34Z</time>
      </trkpt>
      <trkpt lat="43.62061" lon="3.6509">
        <ele>161.638916</ele>
        <time>2014-04-26T08:40:44Z</time>
      </trkpt>
      <trkpt lat="43.6205" lon="3.65079">
        <ele>163.5615234</ele>
        <time>2014-04-26T08:40:50Z</time>
      </trkpt>
      <trkpt lat="43.62036" lon="3.65066">
        <ele>165.9647217</ele>
        <time>2014-04-26T08:40:58Z</time>
      </trkpt>
      <trkpt lat="43.62022" lon="3.65051">
        <ele>166.9260254</ele>
        <time>2014-04-26T08:41:07Z</time>
      </trkpt>
      <trkpt lat="43.62014" lon="3.65038">
        <ele>167.8873291</ele>
        <time>2014-04-26T08:41:14Z</time>
      </trkpt>
      <trkpt lat="43.62006" lon="3.65025">
        <ele>169.8100586</ele>
        <time>2014-04-26T08:41:21Z</time>
      </trkpt>
      <trkpt lat="43.62003" lon="3.65019">
        <ele>168.8487549</ele>
        <time>2014-04-26T08:41:26Z</time>
      </trkpt>
      <trkpt lat="43.61999" lon="3.65011">
        <ele>168.368042</ele>
        <time>2014-04-26T08:41:30Z</time>
      </trkpt>
      <trkpt lat="43.6199" lon="3.64995">
        <ele>168.8487549</ele>
        <time>2014-04-26T08:41:38Z</time>
      </trkpt>
      <trkpt lat="43.61982" lon="3.64982">
        <ele>167.8873291</ele>
        <time>2014-04-26T08:41:45Z</time>
      </trkpt>
      <trkpt lat="43.61974" lon="3.64969">
        <ele>168.8487549</ele>
        <time>2014-04-26T08:41:52Z</time>
      </trkpt>
      <trkpt lat="43.61963" lon="3.64956">
        <ele>171.2520752</ele>
        <time>2014-04-26T08:42:01Z</time>
      </trkpt>
      <trkpt lat="43.61963" lon="3.64956">
        <ele>171.2520752</ele>
        <time>2014-04-26T08:42:02Z</time>
      </trkpt>
      <trkpt lat="43.61962" lon="3.64955">
        <ele>171.2520752</ele>
        <time>2014-04-26T08:42:08Z</time>
      </trkpt>
      <trkpt lat="43.61961" lon="3.64953">
        <ele>172.2132568</ele>
        <time>2014-04-26T08:42:10Z</time>
      </trkpt>
      <trkpt lat="43.6196" lon="3.64952">
        <ele>172.6939697</ele>
        <time>2014-04-26T08:42:16Z</time>
      </trkpt>
      <trkpt lat="43.61956" lon="3.64951">
        <ele>172.6939697</ele>
        <time>2014-04-26T08:42:19Z</time>
      </trkpt>
      <trkpt lat="43.61955" lon="3.64949">
        <ele>171.732666</ele>
        <time>2014-04-26T08:42:25Z</time>
      </trkpt>
      <trkpt lat="43.61945" lon="3.64941">
        <ele>174.6165771</ele>
        <time>2014-04-26T08:42:31Z</time>
      </trkpt>
      <trkpt lat="43.61932" lon="3.64935">
        <ele>174.6165771</ele>
        <time>2014-04-26T08:42:38Z</time>
      </trkpt>
      <trkpt lat="43.61927" lon="3.64932">
        <ele>174.6165771</ele>
        <time>2014-04-26T08:42:40Z</time>
      </trkpt>
      <trkpt lat="43.6191" lon="3.64921">
        <ele>174.1358643</ele>
        <time>2014-04-26T08:42:47Z</time>
      </trkpt>
      <trkpt lat="43.61899" lon="3.64911">
        <ele>176.5393066</ele>
        <time>2014-04-26T08:42:54Z</time>
      </trkpt>
      <trkpt lat="43.6189" lon="3.64904">
        <ele>177.9812012</ele>
        <time>2014-04-26T08:43:00Z</time>
      </trkpt>
      <trkpt lat="43.61878" lon="3.64893">
        <ele>178.4619141</ele>
        <time>2014-04-26T08:43:07Z</time>
      </trkpt>
      <trkpt lat="43.61873" lon="3.64885">
        <ele>179.4232178</ele>
        <time>2014-04-26T08:43:13Z</time>
      </trkpt>
      <trkpt lat="43.61867" lon="3.64876">
        <ele>179.9038086</ele>
        <time>2014-04-26T08:43:19Z</time>
      </trkpt>
      <trkpt lat="43.61863" lon="3.64867">
        <ele>183.7490234</ele>
        <time>2014-04-26T08:43:24Z</time>
      </trkpt>
      <trkpt lat="43.6186" lon="3.64863">
        <ele>187.1137695</ele>
        <time>2014-04-26T08:43:27Z</time>
      </trkpt>
      <trkpt lat="43.61852" lon="3.64852">
        <ele>189.5169678</ele>
        <time>2014-04-26T08:43:34Z</time>
      </trkpt>
      <trkpt lat="43.61841" lon="3.64843">
        <ele>191.9202881</ele>
        <time>2014-04-26T08:43:40Z</time>
      </trkpt>
      <trkpt lat="43.61833" lon="3.64834">
        <ele>193.8430176</ele>
        <time>2014-04-26T08:43:45Z</time>
      </trkpt>
      <trkpt lat="43.6182" lon="3.64818">
        <ele>190.4783936</ele>
        <time>2014-04-26T08:43:52Z</time>
      </trkpt>
      <trkpt lat="43.61813" lon="3.64806">
        <ele>185.6717529</ele>
        <time>2014-04-26T08:43:57Z</time>
      </trkpt>
      <trkpt lat="43.61803" lon="3.6478">
        <ele>180.8652344</ele>
        <time>2014-04-26T08:44:04Z</time>
      </trkpt>
      <trkpt lat="43.61799" lon="3.64761">
        <ele>188.0750732</ele>
        <time>2014-04-26T08:44:09Z</time>
      </trkpt>
      <trkpt lat="43.61796" lon="3.64741">
        <ele>193.8430176</ele>
        <time>2014-04-26T08:44:15Z</time>
      </trkpt>
      <trkpt lat="43.61795" lon="3.64721">
        <ele>198.6495361</ele>
        <time>2014-04-26T08:44:21Z</time>
      </trkpt>
      <trkpt lat="43.61793" lon="3.64698">
        <ele>203.4561768</ele>
        <time>2014-04-26T08:44:27Z</time>
      </trkpt>
      <trkpt lat="43.6179" lon="3.64671">
        <ele>203.4561768</ele>
        <time>2014-04-26T08:44:33Z</time>
      </trkpt>
      <trkpt lat="43.61791" lon="3.6465">
        <ele>202.9754639</ele>
        <time>2014-04-26T08:44:39Z</time>
      </trkpt>
      <trkpt lat="43.61792" lon="3.64625">
        <ele>206.8206787</ele>
        <time>2014-04-26T08:44:46Z</time>
      </trkpt>
      <trkpt lat="43.61793" lon="3.64603">
        <ele>206.3400879</ele>
        <time>2014-04-26T08:44:52Z</time>
      </trkpt>
      <trkpt lat="43.61791" lon="3.64583">
        <ele>202.0142822</ele>
        <time>2014-04-26T08:44:58Z</time>
      </trkpt>
      <trkpt lat="43.61789" lon="3.64567">
        <ele>202.494873</ele>
        <time>2014-04-26T08:45:03Z</time>
      </trkpt>
      <trkpt lat="43.61785" lon="3.64552">
        <ele>202.0142822</ele>
        <time>2014-04-26T08:45:07Z</time>
      </trkpt>
      <trkpt lat="43.61781" lon="3.64531">
        <ele>201.0528564</ele>
        <time>2014-04-26T08:45:13Z</time>
      </trkpt>
      <trkpt lat="43.61779" lon="3.6452">
        <ele>203.9368896</ele>
        <time>2014-04-26T08:45:19Z</time>
      </trkpt>
      <trkpt lat="43.61773" lon="3.64509">
        <ele>206.8206787</ele>
        <time>2014-04-26T08:45:25Z</time>
      </trkpt>
      <trkpt lat="43.61768" lon="3.64498">
        <ele>207.7821045</ele>
        <time>2014-04-26T08:45:31Z</time>
      </trkpt>
      <trkpt lat="43.61759" lon="3.64485">
        <ele>205.3787842</ele>
        <time>2014-04-26T08:45:38Z</time>
      </trkpt>
      <trkpt lat="43.61756" lon="3.64479">
        <ele>206.8206787</ele>
        <time>2014-04-26T08:45:42Z</time>
      </trkpt>
      <trkpt lat="43.61751" lon="3.64473">
        <ele>204.8980713</ele>
        <time>2014-04-26T08:45:46Z</time>
      </trkpt>
      <trkpt lat="43.61746" lon="3.6447">
        <ele>206.8206787</ele>
        <time>2014-04-26T08:45:52Z</time>
      </trkpt>
      <trkpt lat="43.61746" lon="3.6447">
        <ele>206.8206787</ele>
        <time>2014-04-26T08:45:53Z</time>
      </trkpt>
      <trkpt lat="43.61749" lon="3.6447">
        <ele>205.8594971</ele>
        <time>2014-04-26T08:45:56Z</time>
      </trkpt>
      <trkpt lat="43.61748" lon="3.64468">
        <ele>205.3787842</ele>
        <time>2014-04-26T08:45:58Z</time>
      </trkpt>
      <trkpt lat="43.6174" lon="3.64459">
        <ele>204.8980713</ele>
        <time>2014-04-26T08:46:05Z</time>
      </trkpt>
      <trkpt lat="43.6173" lon="3.64446">
        <ele>206.3400879</ele>
        <time>2014-04-26T08:46:12Z</time>
      </trkpt>
      <trkpt lat="43.61719" lon="3.64435">
        <ele>208.2628174</ele>
        <time>2014-04-26T08:46:19Z</time>
      </trkpt>
      <trkpt lat="43.61708" lon="3.64426">
        <ele>205.8594971</ele>
        <time>2014-04-26T08:46:26Z</time>
      </trkpt>
      <trkpt lat="43.61699" lon="3.64417">
        <ele>204.4174805</ele>
        <time>2014-04-26T08:46:33Z</time>
      </trkpt>
      <trkpt lat="43.6169" lon="3.64408">
        <ele>202.0142822</ele>
        <time>2014-04-26T08:46:40Z</time>
      </trkpt>
      <trkpt lat="43.6168" lon="3.64394">
        <ele>202.0142822</ele>
        <time>2014-04-26T08:46:48Z</time>
      </trkpt>
      <trkpt lat="43.61672" lon="3.64381">
        <ele>206.3400879</ele>
        <time>2014-04-26T08:46:55Z</time>
      </trkpt>
      <trkpt lat="43.61661" lon="3.64369">
        <ele>207.7821045</ele>
        <time>2014-04-26T08:47:03Z</time>
      </trkpt>
      <trkpt lat="43.61655" lon="3.64361">
        <ele>209.2241211</ele>
        <time>2014-04-26T08:47:08Z</time>
      </trkpt>
      <trkpt lat="43.61652" lon="3.64352">
        <ele>213.0693359</ele>
        <time>2014-04-26T08:47:14Z</time>
      </trkpt>
      <trkpt lat="43.61647" lon="3.64342">
        <ele>213.0693359</ele>
        <time>2014-04-26T08:47:22Z</time>
      </trkpt>
      <trkpt lat="43.61645" lon="3.64334">
        <ele>214.0306396</ele>
        <time>2014-04-26T08:47:27Z</time>
      </trkpt>
      <trkpt lat="43.61646" lon="3.64333">
        <ele>214.5112305</ele>
        <time>2014-04-26T08:47:28Z</time>
      </trkpt>
      <trkpt lat="43.61643" lon="3.64332">
        <ele>214.9919434</ele>
        <time>2014-04-26T08:47:51Z</time>
      </trkpt>
      <trkpt lat="43.61642" lon="3.64322">
        <ele>216.43396</ele>
        <time>2014-04-26T08:47:56Z</time>
      </trkpt>
      <trkpt lat="43.61639" lon="3.64315">
        <ele>217.8759766</ele>
        <time>2014-04-26T08:48:03Z</time>
      </trkpt>
      <trkpt lat="43.61639" lon="3.64315">
        <ele>218.3565674</ele>
        <time>2014-04-26T08:48:06Z</time>
      </trkpt>
      <trkpt lat="43.61643" lon="3.64332">
        <ele>216.43396</ele>
        <time>2014-04-26T08:48:12Z</time>
      </trkpt>
      <trkpt lat="43.61645" lon="3.64335">
        <ele>217.3953857</ele>
        <time>2014-04-26T08:48:13Z</time>
      </trkpt>
      <trkpt lat="43.61645" lon="3.64339">
        <ele>217.3953857</ele>
        <time>2014-04-26T08:48:15Z</time>
      </trkpt>
      <trkpt lat="43.61642" lon="3.64343">
        <ele>217.3953857</ele>
        <time>2014-04-26T08:48:19Z</time>
      </trkpt>
      <trkpt lat="43.61632" lon="3.64341">
        <ele>215.9532471</ele>
        <time>2014-04-26T08:48:27Z</time>
      </trkpt>
      <trkpt lat="43.61623" lon="3.64339">
        <ele>216.9146729</ele>
        <time>2014-04-26T08:48:34Z</time>
      </trkpt>
      <trkpt lat="43.61613" lon="3.6434">
        <ele>221.2406006</ele>
        <time>2014-04-26T08:48:41Z</time>
      </trkpt>
      <trkpt lat="43.61605" lon="3.64343">
        <ele>224.6052246</ele>
        <time>2014-04-26T08:48:48Z</time>
      </trkpt>
      <trkpt lat="43.61593" lon="3.6435">
        <ele>229.4117432</ele>
        <time>2014-04-26T08:48:57Z</time>
      </trkpt>
      <trkpt lat="43.61584" lon="3.64357">
        <ele>231.8149414</ele>
        <time>2014-04-26T08:49:05Z</time>
      </trkpt>
      <trkpt lat="43.61576" lon="3.64364">
        <ele>233.7376709</ele>
        <time>2014-04-26T08:49:12Z</time>
      </trkpt>
      <trkpt lat="43.61569" lon="3.64373">
        <ele>236.1409912</ele>
        <time>2014-04-26T08:49:18Z</time>
      </trkpt>
      <trkpt lat="43.61568" lon="3.64377">
        <ele>235.1796875</ele>
        <time>2014-04-26T08:49:21Z</time>
      </trkpt>
      <trkpt lat="43.61569" lon="3.64376">
        <ele>239.0249023</ele>
        <time>2014-04-26T08:49:30Z</time>
      </trkpt>
      <trkpt lat="43.61568" lon="3.64377">
        <ele>239.9862061</ele>
        <time>2014-04-26T08:49:33Z</time>
      </trkpt>
      <trkpt lat="43.61567" lon="3.64378">
        <ele>240.467041</ele>
        <time>2014-04-26T08:49:36Z</time>
      </trkpt>
      <trkpt lat="43.61567" lon="3.64378">
        <ele>240.467041</ele>
        <time>2014-04-26T08:49:37Z</time>
      </trkpt>
      <trkpt lat="43.61563" lon="3.6438">
        <ele>240.467041</ele>
        <time>2014-04-26T08:49:43Z</time>
      </trkpt>
      <trkpt lat="43.61562" lon="3.6438">
        <ele>239.9862061</ele>
        <time>2014-04-26T08:49:48Z</time>
      </trkpt>
      <trkpt lat="43.61559" lon="3.6438">
        <ele>242.3896484</ele>
        <time>2014-04-26T08:49:52Z</time>
      </trkpt>
      <trkpt lat="43.61558" lon="3.6438">
        <ele>242.3896484</ele>
        <time>2014-04-26T08:49:55Z</time>
      </trkpt>
      <trkpt lat="43.61557" lon="3.64381">
        <ele>243.3508301</ele>
        <time>2014-04-26T08:49:56Z</time>
      </trkpt>
      <trkpt lat="43.61557" lon="3.64381">
        <ele>242.8702393</ele>
        <time>2014-04-26T08:49:57Z</time>
      </trkpt>
      <trkpt lat="43.61555" lon="3.6438">
        <ele>245.7541504</ele>
        <time>2014-04-26T08:50:07Z</time>
      </trkpt>
      <trkpt lat="43.61554" lon="3.64381">
        <ele>245.2734375</ele>
        <time>2014-04-26T08:50:10Z</time>
      </trkpt>
      <trkpt lat="43.61553" lon="3.64382">
        <ele>245.2734375</ele>
        <time>2014-04-26T08:50:13Z</time>
      </trkpt>
      <trkpt lat="43.61553" lon="3.64382">
        <ele>245.2734375</ele>
        <time>2014-04-26T08:50:14Z</time>
      </trkpt>
      <trkpt lat="43.61547" lon="3.64385">
        <ele>246.7154541</ele>
        <time>2014-04-26T08:50:20Z</time>
      </trkpt>
      <trkpt lat="43.6154" lon="3.64386">
        <ele>248.6381836</ele>
        <time>2014-04-26T08:50:28Z</time>
      </trkpt>
      <trkpt lat="43.6153" lon="3.64387">
        <ele>246.7154541</ele>
        <time>2014-04-26T08:50:37Z</time>
      </trkpt>
      <trkpt lat="43.61522" lon="3.64385">
        <ele>247.6767578</ele>
        <time>2014-04-26T08:50:46Z</time>
      </trkpt>
      <trkpt lat="43.61521" lon="3.64385">
        <ele>248.6381836</ele>
        <time>2014-04-26T08:50:49Z</time>
      </trkpt>
      <trkpt lat="43.6152" lon="3.64384">
        <ele>252.0028076</ele>
        <time>2014-04-26T08:50:54Z</time>
      </trkpt>
      <trkpt lat="43.61515" lon="3.64391">
        <ele>253.925415</ele>
        <time>2014-04-26T08:51:00Z</time>
      </trkpt>
      <trkpt lat="43.61512" lon="3.64404">
        <ele>253.4447021</ele>
        <time>2014-04-26T08:51:07Z</time>
      </trkpt>
      <trkpt lat="43.61514" lon="3.64405">
        <ele>252.0028076</ele>
        <time>2014-04-26T08:51:11Z</time>
      </trkpt>
      <trkpt lat="43.61515" lon="3.64393">
        <ele>246.2348633</ele>
        <time>2014-04-26T08:51:18Z</time>
      </trkpt>
      <trkpt lat="43.61518" lon="3.64386">
        <ele>244.7928467</ele>
        <time>2014-04-26T08:51:23Z</time>
      </trkpt>
      <trkpt lat="43.6152" lon="3.64384">
        <ele>243.831543</ele>
        <time>2014-04-26T08:51:27Z</time>
      </trkpt>
      <trkpt lat="43.61521" lon="3.64382">
        <ele>242.8702393</ele>
        <time>2014-04-26T08:51:48Z</time>
      </trkpt>
      <trkpt lat="43.61519" lon="3.64376">
        <ele>243.831543</ele>
        <time>2014-04-26T08:51:52Z</time>
      </trkpt>
      <trkpt lat="43.61518" lon="3.64384">
        <ele>243.831543</ele>
        <time>2014-04-26T08:51:57Z</time>
      </trkpt>
      <trkpt lat="43.61514" lon="3.64391">
        <ele>243.831543</ele>
        <time>2014-04-26T08:52:02Z</time>
      </trkpt>
      <trkpt lat="43.61511" lon="3.64395">
        <ele>243.831543</ele>
        <time>2014-04-26T08:52:07Z</time>
      </trkpt>
      <trkpt lat="43.61512" lon="3.64394">
        <ele>242.3896484</ele>
        <time>2014-04-26T08:52:17Z</time>
      </trkpt>
      <trkpt lat="43.61513" lon="3.64393">
        <ele>241.9089355</ele>
        <time>2014-04-26T08:52:19Z</time>
      </trkpt>
      <trkpt lat="43.61513" lon="3.64392">
        <ele>240.9476318</ele>
        <time>2014-04-26T08:52:29Z</time>
      </trkpt>
      <trkpt lat="43.61519" lon="3.64382">
        <ele>238.5443115</ele>
        <time>2014-04-26T08:52:35Z</time>
      </trkpt>
      <trkpt lat="43.61519" lon="3.6438">
        <ele>238.5443115</ele>
        <time>2014-04-26T08:52:36Z</time>
      </trkpt>
      <trkpt lat="43.61517" lon="3.64365">
        <ele>241.4282227</ele>
        <time>2014-04-26T08:52:44Z</time>
      </trkpt>
      <trkpt lat="43.61512" lon="3.64342">
        <ele>245.7541504</ele>
        <time>2014-04-26T08:52:54Z</time>
      </trkpt>
      <trkpt lat="43.6151" lon="3.64325">
        <ele>249.5994873</ele>
        <time>2014-04-26T08:53:02Z</time>
      </trkpt>
      <trkpt lat="43.61507" lon="3.6431">
        <ele>253.925415</ele>
        <time>2014-04-26T08:53:09Z</time>
      </trkpt>
      <trkpt lat="43.61504" lon="3.64297">
        <ele>254.8865967</ele>
        <time>2014-04-26T08:53:15Z</time>
      </trkpt>
      <trkpt lat="43.61499" lon="3.64279">
        <ele>257.770752</ele>
        <time>2014-04-26T08:53:23Z</time>
      </trkpt>
      <trkpt lat="43.61488" lon="3.64259">
        <ele>260.1739502</ele>
        <time>2014-04-26T08:53:32Z</time>
      </trkpt>
      <trkpt lat="43.61478" lon="3.64242">
        <ele>259.6933594</ele>
        <time>2014-04-26T08:53:40Z</time>
      </trkpt>
      <trkpt lat="43.61473" lon="3.64223">
        <ele>259.6933594</ele>
        <time>2014-04-26T08:53:47Z</time>
      </trkpt>
      <trkpt lat="43.61466" lon="3.64189">
        <ele>256.8093262</ele>
        <time>2014-04-26T08:53:54Z</time>
      </trkpt>
      <trkpt lat="43.61466" lon="3.64157">
        <ele>253.925415</ele>
        <time>2014-04-26T08:53:58Z</time>
      </trkpt>
      <trkpt lat="43.61468" lon="3.64141">
        <ele>252.4833984</ele>
        <time>2014-04-26T08:54:00Z</time>
      </trkpt>
      <trkpt lat="43.61473" lon="3.64121">
        <ele>250.0802002</ele>
        <time>2014-04-26T08:54:03Z</time>
      </trkpt>
      <trkpt lat="43.61472" lon="3.64092">
        <ele>246.2348633</ele>
        <time>2014-04-26T08:54:08Z</time>
      </trkpt>
      <trkpt lat="43.61467" lon="3.64068">
        <ele>243.831543</ele>
        <time>2014-04-26T08:54:14Z</time>
      </trkpt>
      <trkpt lat="43.61467" lon="3.64045">
        <ele>242.3896484</ele>
        <time>2014-04-26T08:54:21Z</time>
      </trkpt>
      <trkpt lat="43.61462" lon="3.64027">
        <ele>250.0802002</ele>
        <time>2014-04-26T08:54:27Z</time>
      </trkpt>
      <trkpt lat="43.6146" lon="3.64018">
        <ele>253.925415</ele>
        <time>2014-04-26T08:54:32Z</time>
      </trkpt>
      <trkpt lat="43.61457" lon="3.64019">
        <ele>253.925415</ele>
        <time>2014-04-26T08:54:35Z</time>
      </trkpt>
      <trkpt lat="43.61458" lon="3.64022">
        <ele>253.4447021</ele>
        <time>2014-04-26T08:54:38Z</time>
      </trkpt>
      <trkpt lat="43.61463" lon="3.6402">
        <ele>252.9639893</ele>
        <time>2014-04-26T08:54:42Z</time>
      </trkpt>
      <trkpt lat="43.61463" lon="3.64018">
        <ele>252.0028076</ele>
        <time>2014-04-26T08:54:44Z</time>
      </trkpt>
      <trkpt lat="43.61455" lon="3.64013">
        <ele>252.0028076</ele>
        <time>2014-04-26T08:54:50Z</time>
      </trkpt>
      <trkpt lat="43.61444" lon="3.64001">
        <ele>253.4447021</ele>
        <time>2014-04-26T08:54:57Z</time>
      </trkpt>
      <trkpt lat="43.61431" lon="3.63984">
        <ele>254.4060059</ele>
        <time>2014-04-26T08:55:05Z</time>
      </trkpt>
      <trkpt lat="43.61418" lon="3.63962">
        <ele>256.3287354</ele>
        <time>2014-04-26T08:55:15Z</time>
      </trkpt>
      <trkpt lat="43.61409" lon="3.63946">
        <ele>260.654541</ele>
        <time>2014-04-26T08:55:23Z</time>
      </trkpt>
      <trkpt lat="43.61401" lon="3.63929">
        <ele>262.5771484</ele>
        <time>2014-04-26T08:55:31Z</time>
      </trkpt>
      <trkpt lat="43.61394" lon="3.63912">
        <ele>262.5771484</ele>
        <time>2014-04-26T08:55:38Z</time>
      </trkpt>
      <trkpt lat="43.61389" lon="3.63893">
        <ele>263.5385742</ele>
        <time>2014-04-26T08:55:45Z</time>
      </trkpt>
      <trkpt lat="43.61389" lon="3.63872">
        <ele>264.0192871</ele>
        <time>2014-04-26T08:55:52Z</time>
      </trkpt>
      <trkpt lat="43.61395" lon="3.6385">
        <ele>264.0192871</ele>
        <time>2014-04-26T08:55:59Z</time>
      </trkpt>
      <trkpt lat="43.61407" lon="3.63823">
        <ele>263.5385742</ele>
        <time>2014-04-26T08:56:08Z</time>
      </trkpt>
      <trkpt lat="43.61419" lon="3.63791">
        <ele>261.6159668</ele>
        <time>2014-04-26T08:56:16Z</time>
      </trkpt>
      <trkpt lat="43.61428" lon="3.63762">
        <ele>260.1739502</ele>
        <time>2014-04-26T08:56:22Z</time>
      </trkpt>
      <trkpt lat="43.6143" lon="3.63718">
        <ele>257.2900391</ele>
        <time>2014-04-26T08:56:28Z</time>
      </trkpt>
      <trkpt lat="43.6143" lon="3.63679">
        <ele>255.8480225</ele>
        <time>2014-04-26T08:56:33Z</time>
      </trkpt>
      <trkpt lat="43.61422" lon="3.63613">
        <ele>252.9639893</ele>
        <time>2014-04-26T08:56:41Z</time>
      </trkpt>
      <trkpt lat="43.61415" lon="3.63568">
        <ele>253.4447021</ele>
        <time>2014-04-26T08:56:47Z</time>
      </trkpt>
      <trkpt lat="43.61416" lon="3.63554">
        <ele>256.3287354</ele>
        <time>2014-04-26T08:56:51Z</time>
      </trkpt>
      <trkpt lat="43.61421" lon="3.6353">
        <ele>261.6159668</ele>
        <time>2014-04-26T08:57:00Z</time>
      </trkpt>
      <trkpt lat="43.61425" lon="3.63514">
        <ele>262.5771484</ele>
        <time>2014-04-26T08:57:06Z</time>
      </trkpt>
      <trkpt lat="43.61429" lon="3.63515">
        <ele>263.0578613</ele>
        <time>2014-04-26T08:57:10Z</time>
      </trkpt>
      <trkpt lat="43.61434" lon="3.63525">
        <ele>263.5385742</ele>
        <time>2014-04-26T08:57:14Z</time>
      </trkpt>
      <trkpt lat="43.61439" lon="3.63523">
        <ele>264.0192871</ele>
        <time>2014-04-26T08:57:18Z</time>
      </trkpt>
      <trkpt lat="43.61433" lon="3.63519">
        <ele>264.4998779</ele>
        <time>2014-04-26T08:57:22Z</time>
      </trkpt>
      <trkpt lat="43.61427" lon="3.63512">
        <ele>264.4998779</ele>
        <time>2014-04-26T08:57:26Z</time>
      </trkpt>
      <trkpt lat="43.61426" lon="3.63507">
        <ele>264.9805908</ele>
        <time>2014-04-26T08:57:28Z</time>
      </trkpt>
      <trkpt lat="43.61423" lon="3.63483">
        <ele>265.4613037</ele>
        <time>2014-04-26T08:57:36Z</time>
      </trkpt>
      <trkpt lat="43.61417" lon="3.63466">
        <ele>266.9031982</ele>
        <time>2014-04-26T08:57:42Z</time>
      </trkpt>
      <trkpt lat="43.61415" lon="3.63455">
        <ele>268.3450928</ele>
        <time>2014-04-26T08:57:48Z</time>
      </trkpt>
      <trkpt lat="43.61408" lon="3.63439">
        <ele>270.2677002</ele>
        <time>2014-04-26T08:57:55Z</time>
      </trkpt>
      <trkpt lat="43.61404" lon="3.63419">
        <ele>271.229126</ele>
        <time>2014-04-26T08:58:03Z</time>
      </trkpt>
      <trkpt lat="43.61399" lon="3.634">
        <ele>273.6324463</ele>
        <time>2014-04-26T08:58:10Z</time>
      </trkpt>
      <trkpt lat="43.61394" lon="3.63382">
        <ele>275.5550537</ele>
        <time>2014-04-26T08:58:17Z</time>
      </trkpt>
      <trkpt lat="43.61389" lon="3.6336">
        <ele>275.5550537</ele>
        <time>2014-04-26T08:58:25Z</time>
      </trkpt>
      <trkpt lat="43.61384" lon="3.63333">
        <ele>277.958252</ele>
        <time>2014-04-26T08:58:34Z</time>
      </trkpt>
      <trkpt lat="43.61376" lon="3.63307">
        <ele>282.2843018</ele>
        <time>2014-04-26T08:58:43Z</time>
      </trkpt>
      <trkpt lat="43.61365" lon="3.63287">
        <ele>285.1682129</ele>
        <time>2014-04-26T08:58:50Z</time>
      </trkpt>
      <trkpt lat="43.61354" lon="3.63271">
        <ele>288.0522461</ele>
        <time>2014-04-26T08:58:57Z</time>
      </trkpt>
      <trkpt lat="43.6134" lon="3.63251">
        <ele>288.0522461</ele>
        <time>2014-04-26T08:59:05Z</time>
      </trkpt>
      <trkpt lat="43.61331" lon="3.63235">
        <ele>289.0135498</ele>
        <time>2014-04-26T08:59:11Z</time>
      </trkpt>
      <trkpt lat="43.61326" lon="3.63215">
        <ele>289.9748535</ele>
        <time>2014-04-26T08:59:17Z</time>
      </trkpt>
      <trkpt lat="43.61317" lon="3.63198">
        <ele>287.5714111</ele>
        <time>2014-04-26T08:59:23Z</time>
      </trkpt>
      <trkpt lat="43.61303" lon="3.63189">
        <ele>286.1295166</ele>
        <time>2014-04-26T08:59:29Z</time>
      </trkpt>
      <trkpt lat="43.6129" lon="3.63175">
        <ele>283.7261963</ele>
        <time>2014-04-26T08:59:35Z</time>
      </trkpt>
      <trkpt lat="43.61278" lon="3.63155">
        <ele>283.7261963</ele>
        <time>2014-04-26T08:59:43Z</time>
      </trkpt>
      <trkpt lat="43.61272" lon="3.63139">
        <ele>283.7261963</ele>
        <time>2014-04-26T08:59:49Z</time>
      </trkpt>
      <trkpt lat="43.61263" lon="3.63126">
        <ele>284.6876221</ele>
        <time>2014-04-26T08:59:54Z</time>
      </trkpt>
      <trkpt lat="43.61259" lon="3.63123">
        <ele>284.6876221</ele>
        <time>2014-04-26T08:59:56Z</time>
      </trkpt>
      <trkpt lat="43.61256" lon="3.63128">
        <ele>285.1682129</ele>
        <time>2014-04-26T09:00:01Z</time>
      </trkpt>
      <trkpt lat="43.61263" lon="3.63136">
        <ele>285.1682129</ele>
        <time>2014-04-26T09:00:05Z</time>
      </trkpt>
      <trkpt lat="43.61266" lon="3.6314">
        <ele>285.6488037</ele>
        <time>2014-04-26T09:00:07Z</time>
      </trkpt>
      <trkpt lat="43.61268" lon="3.63134">
        <ele>286.1295166</ele>
        <time>2014-04-26T09:00:12Z</time>
      </trkpt>
      <trkpt lat="43.61257" lon="3.6312">
        <ele>286.1295166</ele>
        <time>2014-04-26T09:00:18Z</time>
      </trkpt>
      <trkpt lat="43.61255" lon="3.63119">
        <ele>286.1295166</ele>
        <time>2014-04-26T09:00:21Z</time>
      </trkpt>
      <trkpt lat="43.61257" lon="3.63117">
        <ele>286.6102295</ele>
        <time>2014-04-26T09:01:06Z</time>
      </trkpt>
      <trkpt lat="43.61249" lon="3.63108">
        <ele>288.532959</ele>
        <time>2014-04-26T09:01:10Z</time>
      </trkpt>
      <trkpt lat="43.61236" lon="3.63085">
        <ele>290.9361572</ele>
        <time>2014-04-26T09:01:18Z</time>
      </trkpt>
      <trkpt lat="43.61228" lon="3.63063">
        <ele>293.8200684</ele>
        <time>2014-04-26T09:01:25Z</time>
      </trkpt>
      <trkpt lat="43.61219" lon="3.63043">
        <ele>296.7041016</ele>
        <time>2014-04-26T09:01:32Z</time>
      </trkpt>
      <trkpt lat="43.61211" lon="3.63033">
        <ele>296.7041016</ele>
        <time>2014-04-26T09:01:38Z</time>
      </trkpt>
      <trkpt lat="43.6121" lon="3.63032">
        <ele>297.1846924</ele>
        <time>2014-04-26T09:01:40Z</time>
      </trkpt>
      <trkpt lat="43.612" lon="3.6303">
        <ele>296.7041016</ele>
        <time>2014-04-26T09:01:45Z</time>
      </trkpt>
      <trkpt lat="43.61181" lon="3.63017">
        <ele>299.1072998</ele>
        <time>2014-04-26T09:01:53Z</time>
      </trkpt>
      <trkpt lat="43.61166" lon="3.63009">
        <ele>300.5493164</ele>
        <time>2014-04-26T09:01:58Z</time>
      </trkpt>
      <trkpt lat="43.61145" lon="3.63">
        <ele>301.5106201</ele>
        <time>2014-04-26T09:02:04Z</time>
      </trkpt>
      <trkpt lat="43.61134" lon="3.63003">
        <ele>301.0299072</ele>
        <time>2014-04-26T09:02:08Z</time>
      </trkpt>
      <trkpt lat="43.61128" lon="3.63006">
        <ele>299.5880127</ele>
        <time>2014-04-26T09:02:11Z</time>
      </trkpt>
      <trkpt lat="43.61127" lon="3.63006">
        <ele>298.1461182</ele>
        <time>2014-04-26T09:02:13Z</time>
      </trkpt>
      <trkpt lat="43.61126" lon="3.63005">
        <ele>294.7813721</ele>
        <time>2014-04-26T09:02:20Z</time>
      </trkpt>
      <trkpt lat="43.61127" lon="3.63005">
        <ele>293.3393555</ele>
        <time>2014-04-26T09:02:21Z</time>
      </trkpt>
      <trkpt lat="43.61135" lon="3.62998">
        <ele>290.9361572</ele>
        <time>2014-04-26T09:02:29Z</time>
      </trkpt>
      <trkpt lat="43.61138" lon="3.62996">
        <ele>290.9361572</ele>
        <time>2014-04-26T09:02:35Z</time>
      </trkpt>
      <trkpt lat="43.6114" lon="3.62996">
        <ele>289.9748535</ele>
        <time>2014-04-26T09:02:49Z</time>
      </trkpt>
      <trkpt lat="43.61154" lon="3.63002">
        <ele>288.0522461</ele>
        <time>2014-04-26T09:02:56Z</time>
      </trkpt>
      <trkpt lat="43.61167" lon="3.63009">
        <ele>287.5714111</ele>
        <time>2014-04-26T09:03:00Z</time>
      </trkpt>
      <trkpt lat="43.61179" lon="3.63012">
        <ele>287.5714111</ele>
        <time>2014-04-26T09:03:05Z</time>
      </trkpt>
      <trkpt lat="43.61189" lon="3.63002">
        <ele>288.0522461</ele>
        <time>2014-04-26T09:03:11Z</time>
      </trkpt>
      <trkpt lat="43.61193" lon="3.62987">
        <ele>288.532959</ele>
        <time>2014-04-26T09:03:18Z</time>
      </trkpt>
      <trkpt lat="43.61187" lon="3.62971">
        <ele>290.9361572</ele>
        <time>2014-04-26T09:03:25Z</time>
      </trkpt>
      <trkpt lat="43.61178" lon="3.6295">
        <ele>295.2619629</ele>
        <time>2014-04-26T09:03:35Z</time>
      </trkpt>
      <trkpt lat="43.61173" lon="3.62927">
        <ele>297.1846924</ele>
        <time>2014-04-26T09:03:44Z</time>
      </trkpt>
      <trkpt lat="43.61169" lon="3.62909">
        <ele>299.5880127</ele>
        <time>2014-04-26T09:03:50Z</time>
      </trkpt>
      <trkpt lat="43.61161" lon="3.6289">
        <ele>301.991333</ele>
        <time>2014-04-26T09:03:57Z</time>
      </trkpt>
      <trkpt lat="43.6115" lon="3.62873">
        <ele>304.3946533</ele>
        <time>2014-04-26T09:04:04Z</time>
      </trkpt>
      <trkpt lat="43.61136" lon="3.62851">
        <ele>306.7978516</ele>
        <time>2014-04-26T09:04:13Z</time>
      </trkpt>
      <trkpt lat="43.61135" lon="3.62842">
        <ele>308.2398682</ele>
        <time>2014-04-26T09:04:17Z</time>
      </trkpt>
      <trkpt lat="43.61129" lon="3.62842">
        <ele>309.2011719</ele>
        <time>2014-04-26T09:04:22Z</time>
      </trkpt>
      <trkpt lat="43.61132" lon="3.62844">
        <ele>309.2011719</ele>
        <time>2014-04-26T09:04:25Z</time>
      </trkpt>
      <trkpt lat="43.6113" lon="3.6284">
        <ele>308.720459</ele>
        <time>2014-04-26T09:04:28Z</time>
      </trkpt>
      <trkpt lat="43.61118" lon="3.62826">
        <ele>308.2398682</ele>
        <time>2014-04-26T09:04:34Z</time>
      </trkpt>
      <trkpt lat="43.61104" lon="3.62808">
        <ele>307.7592773</ele>
        <time>2014-04-26T09:04:40Z</time>
      </trkpt>
      <trkpt lat="43.61087" lon="3.62798">
        <ele>306.7978516</ele>
        <time>2014-04-26T09:04:45Z</time>
      </trkpt>
      <trkpt lat="43.61079" lon="3.6278">
        <ele>305.8366699</ele>
        <time>2014-04-26T09:04:49Z</time>
      </trkpt>
      <trkpt lat="43.61071" lon="3.62747">
        <ele>305.355957</ele>
        <time>2014-04-26T09:04:56Z</time>
      </trkpt>
      <trkpt lat="43.61062" lon="3.62721">
        <ele>306.3172607</ele>
        <time>2014-04-26T09:05:03Z</time>
      </trkpt>
      <trkpt lat="43.61052" lon="3.62711">
        <ele>307.2785645</ele>
        <time>2014-04-26T09:05:09Z</time>
      </trkpt>
      <trkpt lat="43.61039" lon="3.62711">
        <ele>308.2398682</ele>
        <time>2014-04-26T09:05:14Z</time>
      </trkpt>
      <trkpt lat="43.61013" lon="3.62721">
        <ele>308.720459</ele>
        <time>2014-04-26T09:05:23Z</time>
      </trkpt>
      <trkpt lat="43.61004" lon="3.62722">
        <ele>309.2011719</ele>
        <time>2014-04-26T09:05:28Z</time>
      </trkpt>
      <trkpt lat="43.61004" lon="3.62723">
        <ele>308.720459</ele>
        <time>2014-04-26T09:05:30Z</time>
      </trkpt>
      <trkpt lat="43.61003" lon="3.62722">
        <ele>308.2398682</ele>
        <time>2014-04-26T09:05:46Z</time>
      </trkpt>
      <trkpt lat="43.60998" lon="3.62717">
        <ele>307.7592773</ele>
        <time>2014-04-26T09:05:49Z</time>
      </trkpt>
      <trkpt lat="43.60982" lon="3.62704">
        <ele>307.7592773</ele>
        <time>2014-04-26T09:05:57Z</time>
      </trkpt>
      <trkpt lat="43.60963" lon="3.627">
        <ele>308.720459</ele>
        <time>2014-04-26T09:06:03Z</time>
      </trkpt>
      <trkpt lat="43.60955" lon="3.62689">
        <ele>308.2398682</ele>
        <time>2014-04-26T09:06:07Z</time>
      </trkpt>
      <trkpt lat="43.60944" lon="3.62662">
        <ele>307.2785645</ele>
        <time>2014-04-26T09:06:13Z</time>
      </trkpt>
      <trkpt lat="43.6093" lon="3.62647">
        <ele>306.7978516</ele>
        <time>2014-04-26T09:06:18Z</time>
      </trkpt>
      <trkpt lat="43.6092" lon="3.62633">
        <ele>309.2011719</ele>
        <time>2014-04-26T09:06:25Z</time>
      </trkpt>
      <trkpt lat="43.60916" lon="3.62627">
        <ele>309.2011719</ele>
        <time>2014-04-26T09:06:31Z</time>
      </trkpt>
      <trkpt lat="43.60915" lon="3.62626">
        <ele>309.6818848</ele>
        <time>2014-04-26T09:06:42Z</time>
      </trkpt>
      <trkpt lat="43.60912" lon="3.62624">
        <ele>309.2011719</ele>
        <time>2014-04-26T09:06:47Z</time>
      </trkpt>
      <trkpt lat="43.60913" lon="3.62624">
        <ele>307.7592773</ele>
        <time>2014-04-26T09:07:02Z</time>
      </trkpt>
      <trkpt lat="43.60908" lon="3.62607">
        <ele>306.7978516</ele>
        <time>2014-04-26T09:07:08Z</time>
      </trkpt>
      <trkpt lat="43.60903" lon="3.62592">
        <ele>306.3172607</ele>
        <time>2014-04-26T09:07:14Z</time>
      </trkpt>
      <trkpt lat="43.60896" lon="3.62577">
        <ele>304.3946533</ele>
        <time>2014-04-26T09:07:21Z</time>
      </trkpt>
      <trkpt lat="43.60888" lon="3.6256">
        <ele>304.8752441</ele>
        <time>2014-04-26T09:07:28Z</time>
      </trkpt>
      <trkpt lat="43.60877" lon="3.62538">
        <ele>305.355957</ele>
        <time>2014-04-26T09:07:36Z</time>
      </trkpt>
      <trkpt lat="43.60867" lon="3.62524">
        <ele>304.3946533</ele>
        <time>2014-04-26T09:07:42Z</time>
      </trkpt>
      <trkpt lat="43.60866" lon="3.62523">
        <ele>304.8752441</ele>
        <time>2014-04-26T09:07:44Z</time>
      </trkpt>
      <trkpt lat="43.60865" lon="3.62522">
        <ele>305.355957</ele>
        <time>2014-04-26T09:07:47Z</time>
      </trkpt>
      <trkpt lat="43.60865" lon="3.62521">
        <ele>304.3946533</ele>
        <time>2014-04-26T09:07:48Z</time>
      </trkpt>
      <trkpt lat="43.60864" lon="3.6252">
        <ele>304.3946533</ele>
        <time>2014-04-26T09:07:50Z</time>
      </trkpt>
      <trkpt lat="43.60862" lon="3.62518">
        <ele>302.9525146</ele>
        <time>2014-04-26T09:07:57Z</time>
      </trkpt>
      <trkpt lat="43.60858" lon="3.62508">
        <ele>301.0299072</ele>
        <time>2014-04-26T09:08:01Z</time>
      </trkpt>
      <trkpt lat="43.60856" lon="3.62504">
        <ele>300.5493164</ele>
        <time>2014-04-26T09:08:03Z</time>
      </trkpt>
      <trkpt lat="43.60846" lon="3.62497">
        <ele>299.5880127</ele>
        <time>2014-04-26T09:08:10Z</time>
      </trkpt>
      <trkpt lat="43.60837" lon="3.62503">
        <ele>299.5880127</ele>
        <time>2014-04-26T09:08:17Z</time>
      </trkpt>
      <trkpt lat="43.60836" lon="3.62505">
        <ele>300.0687256</ele>
        <time>2014-04-26T09:08:18Z</time>
      </trkpt>
      <trkpt lat="43.60822" lon="3.6252">
        <ele>298.1461182</ele>
        <time>2014-04-26T09:08:24Z</time>
      </trkpt>
      <trkpt lat="43.60817" lon="3.62528">
        <ele>297.6654053</ele>
        <time>2014-04-26T09:08:26Z</time>
      </trkpt>
      <trkpt lat="43.60818" lon="3.62552">
        <ele>296.2235107</ele>
        <time>2014-04-26T09:08:31Z</time>
      </trkpt>
      <trkpt lat="43.60819" lon="3.62581">
        <ele>292.8587646</ele>
        <time>2014-04-26T09:08:35Z</time>
      </trkpt>
      <trkpt lat="43.6082" lon="3.62612">
        <ele>289.4941406</ele>
        <time>2014-04-26T09:08:40Z</time>
      </trkpt>
      <trkpt lat="43.60816" lon="3.6261">
        <ele>289.9748535</ele>
        <time>2014-04-26T09:08:45Z</time>
      </trkpt>
      <trkpt lat="43.60813" lon="3.62596">
        <ele>290.4555664</ele>
        <time>2014-04-26T09:08:51Z</time>
      </trkpt>
      <trkpt lat="43.60809" lon="3.62574">
        <ele>291.8974609</ele>
        <time>2014-04-26T09:08:59Z</time>
      </trkpt>
      <trkpt lat="43.60805" lon="3.62555">
        <ele>293.8200684</ele>
        <time>2014-04-26T09:09:07Z</time>
      </trkpt>
      <trkpt lat="43.60803" lon="3.62545">
        <ele>294.7813721</ele>
        <time>2014-04-26T09:09:11Z</time>
      </trkpt>
      <trkpt lat="43.60799" lon="3.62532">
        <ele>295.2619629</ele>
        <time>2014-04-26T09:09:17Z</time>
      </trkpt>
      <trkpt lat="43.60795" lon="3.62516">
        <ele>296.7041016</ele>
        <time>2014-04-26T09:09:24Z</time>
      </trkpt>
      <trkpt lat="43.60791" lon="3.62497">
        <ele>297.1846924</ele>
        <time>2014-04-26T09:09:32Z</time>
      </trkpt>
      <trkpt lat="43.60788" lon="3.62481">
        <ele>300.0687256</ele>
        <time>2014-04-26T09:09:40Z</time>
      </trkpt>
      <trkpt lat="43.60787" lon="3.62479">
        <ele>300.0687256</ele>
        <time>2014-04-26T09:09:41Z</time>
      </trkpt>
      <trkpt lat="43.60777" lon="3.62474">
        <ele>302.4719238</ele>
        <time>2014-04-26T09:09:48Z</time>
      </trkpt>
      <trkpt lat="43.60769" lon="3.62468">
        <ele>303.4332275</ele>
        <time>2014-04-26T09:09:55Z</time>
      </trkpt>
      <trkpt lat="43.60758" lon="3.62458">
        <ele>302.9525146</ele>
        <time>2014-04-26T09:10:03Z</time>
      </trkpt>
      <trkpt lat="43.60747" lon="3.62448">
        <ele>303.9139404</ele>
        <time>2014-04-26T09:10:11Z</time>
      </trkpt>
      <trkpt lat="43.60743" lon="3.62444">
        <ele>303.9139404</ele>
        <time>2014-04-26T09:10:14Z</time>
      </trkpt>
      <trkpt lat="43.60725" lon="3.62432">
        <ele>308.2398682</ele>
        <time>2014-04-26T09:10:24Z</time>
      </trkpt>
      <trkpt lat="43.60716" lon="3.62422">
        <ele>310.6430664</ele>
        <time>2014-04-26T09:10:31Z</time>
      </trkpt>
      <trkpt lat="43.60703" lon="3.62411">
        <ele>313.0465088</ele>
        <time>2014-04-26T09:10:40Z</time>
      </trkpt>
      <trkpt lat="43.60692" lon="3.62401">
        <ele>314.4884033</ele>
        <time>2014-04-26T09:10:49Z</time>
      </trkpt>
      <trkpt lat="43.60682" lon="3.62396">
        <ele>315.4498291</ele>
        <time>2014-04-26T09:10:56Z</time>
      </trkpt>
      <trkpt lat="43.6068" lon="3.62394">
        <ele>315.4498291</ele>
        <time>2014-04-26T09:11:00Z</time>
      </trkpt>
      <trkpt lat="43.60679" lon="3.62393">
        <ele>315.9304199</ele>
        <time>2014-04-26T09:11:03Z</time>
      </trkpt>
      <trkpt lat="43.60678" lon="3.62386">
        <ele>317.3724365</ele>
        <time>2014-04-26T09:11:08Z</time>
      </trkpt>
      <trkpt lat="43.60677" lon="3.62379">
        <ele>316.8917236</ele>
        <time>2014-04-26T09:11:15Z</time>
      </trkpt>
      <trkpt lat="43.60677" lon="3.62379">
        <ele>317.3724365</ele>
        <time>2014-04-26T09:11:16Z</time>
      </trkpt>
      <trkpt lat="43.60678" lon="3.62379">
        <ele>317.3724365</ele>
        <time>2014-04-26T09:11:19Z</time>
      </trkpt>
      <trkpt lat="43.60678" lon="3.62379">
        <ele>315.9304199</ele>
        <time>2014-04-26T09:11:20Z</time>
      </trkpt>
      <trkpt lat="43.60676" lon="3.62391">
        <ele>315.4498291</ele>
        <time>2014-04-26T09:11:26Z</time>
      </trkpt>
      <trkpt lat="43.60667" lon="3.62403">
        <ele>314.9691162</ele>
        <time>2014-04-26T09:11:31Z</time>
      </trkpt>
      <trkpt lat="43.60651" lon="3.62419">
        <ele>313.0465088</ele>
        <time>2014-04-26T09:11:38Z</time>
      </trkpt>
      <trkpt lat="43.6063" lon="3.6244">
        <ele>309.2011719</ele>
        <time>2014-04-26T09:11:45Z</time>
      </trkpt>
      <trkpt lat="43.60624" lon="3.62443">
        <ele>308.2398682</ele>
        <time>2014-04-26T09:11:48Z</time>
      </trkpt>
      <trkpt lat="43.60617" lon="3.6244">
        <ele>308.720459</ele>
        <time>2014-04-26T09:11:53Z</time>
      </trkpt>
      <trkpt lat="43.60612" lon="3.62428">
        <ele>309.6818848</ele>
        <time>2014-04-26T09:12:01Z</time>
      </trkpt>
      <trkpt lat="43.60608" lon="3.62419">
        <ele>310.6430664</ele>
        <time>2014-04-26T09:12:07Z</time>
      </trkpt>
      <trkpt lat="43.60603" lon="3.62408">
        <ele>313.5272217</ele>
        <time>2014-04-26T09:12:14Z</time>
      </trkpt>
      <trkpt lat="43.60595" lon="3.62396">
        <ele>313.5272217</ele>
        <time>2014-04-26T09:12:23Z</time>
      </trkpt>
      <trkpt lat="43.60595" lon="3.62396">
        <ele>313.5272217</ele>
        <time>2014-04-26T09:12:24Z</time>
      </trkpt>
      <trkpt lat="43.60594" lon="3.62396">
        <ele>314.0078125</ele>
        <time>2014-04-26T09:12:35Z</time>
      </trkpt>
      <trkpt lat="43.60593" lon="3.62396">
        <ele>313.5272217</ele>
        <time>2014-04-26T09:12:36Z</time>
      </trkpt>
      <trkpt lat="43.6059" lon="3.62402">
        <ele>313.5272217</ele>
        <time>2014-04-26T09:12:41Z</time>
      </trkpt>
      <trkpt lat="43.60589" lon="3.62403">
        <ele>313.5272217</ele>
        <time>2014-04-26T09:12:45Z</time>
      </trkpt>
      <trkpt lat="43.60583" lon="3.62405">
        <ele>312.0852051</ele>
        <time>2014-04-26T09:12:49Z</time>
      </trkpt>
      <trkpt lat="43.60573" lon="3.62408">
        <ele>310.1624756</ele>
        <time>2014-04-26T09:12:55Z</time>
      </trkpt>
      <trkpt lat="43.6056" lon="3.62421">
        <ele>306.7978516</ele>
        <time>2014-04-26T09:13:01Z</time>
      </trkpt>
      <trkpt lat="43.6056" lon="3.62421">
        <ele>306.3172607</ele>
        <time>2014-04-26T09:13:03Z</time>
      </trkpt>
      <trkpt lat="43.6056" lon="3.62421">
        <ele>306.7978516</ele>
        <time>2014-04-26T09:13:06Z</time>
      </trkpt>
      <trkpt lat="43.60559" lon="3.6242">
        <ele>306.3172607</ele>
        <time>2014-04-26T09:13:07Z</time>
      </trkpt>
      <trkpt lat="43.60559" lon="3.6242">
        <ele>306.3172607</ele>
        <time>2014-04-26T09:13:08Z</time>
      </trkpt>
      <trkpt lat="43.60556" lon="3.62416">
        <ele>306.3172607</ele>
        <time>2014-04-26T09:13:12Z</time>
      </trkpt>
      <trkpt lat="43.60555" lon="3.62415">
        <ele>305.8366699</ele>
        <time>2014-04-26T09:13:21Z</time>
      </trkpt>
      <trkpt lat="43.60553" lon="3.62407">
        <ele>306.3172607</ele>
        <time>2014-04-26T09:13:26Z</time>
      </trkpt>
      <trkpt lat="43.60552" lon="3.62406">
        <ele>305.8366699</ele>
        <time>2014-04-26T09:13:27Z</time>
      </trkpt>
      <trkpt lat="43.60545" lon="3.62393">
        <ele>306.3172607</ele>
        <time>2014-04-26T09:13:35Z</time>
      </trkpt>
      <trkpt lat="43.60545" lon="3.6239">
        <ele>306.3172607</ele>
        <time>2014-04-26T09:13:37Z</time>
      </trkpt>
      <trkpt lat="43.60538" lon="3.62383">
        <ele>306.7978516</ele>
        <time>2014-04-26T09:13:43Z</time>
      </trkpt>
      <trkpt lat="43.60523" lon="3.6239">
        <ele>304.8752441</ele>
        <time>2014-04-26T09:13:48Z</time>
      </trkpt>
      <trkpt lat="43.60512" lon="3.62395">
        <ele>303.4332275</ele>
        <time>2014-04-26T09:13:52Z</time>
      </trkpt>
      <trkpt lat="43.60505" lon="3.62398">
        <ele>302.4719238</ele>
        <time>2014-04-26T09:13:54Z</time>
      </trkpt>
      <trkpt lat="43.60482" lon="3.62402">
        <ele>299.5880127</ele>
        <time>2014-04-26T09:14:00Z</time>
      </trkpt>
      <trkpt lat="43.60476" lon="3.62401">
        <ele>299.1072998</ele>
        <time>2014-04-26T09:14:02Z</time>
      </trkpt>
      <trkpt lat="43.60474" lon="3.6241">
        <ele>298.1461182</ele>
        <time>2014-04-26T09:14:07Z</time>
      </trkpt>
      <trkpt lat="43.60477" lon="3.62423">
        <ele>298.1461182</ele>
        <time>2014-04-26T09:14:13Z</time>
      </trkpt>
      <trkpt lat="43.60479" lon="3.62425">
        <ele>298.1461182</ele>
        <time>2014-04-26T09:14:16Z</time>
      </trkpt>
      <trkpt lat="43.60482" lon="3.62428">
        <ele>297.6654053</ele>
        <time>2014-04-26T09:14:19Z</time>
      </trkpt>
      <trkpt lat="43.60482" lon="3.62436">
        <ele>297.1846924</ele>
        <time>2014-04-26T09:14:24Z</time>
      </trkpt>
      <trkpt lat="43.60471" lon="3.62447">
        <ele>295.7426758</ele>
        <time>2014-04-26T09:14:31Z</time>
      </trkpt>
      <trkpt lat="43.60465" lon="3.62452">
        <ele>295.2619629</ele>
        <time>2014-04-26T09:14:35Z</time>
      </trkpt>
      <trkpt lat="43.6046" lon="3.62448">
        <ele>295.2619629</ele>
        <time>2014-04-26T09:14:40Z</time>
      </trkpt>
      <trkpt lat="43.6046" lon="3.62448">
        <ele>295.2619629</ele>
        <time>2014-04-26T09:14:44Z</time>
      </trkpt>
      <trkpt lat="43.60453" lon="3.62441">
        <ele>295.2619629</ele>
        <time>2014-04-26T09:14:48Z</time>
      </trkpt>
      <trkpt lat="43.60444" lon="3.62429">
        <ele>295.2619629</ele>
        <time>2014-04-26T09:14:54Z</time>
      </trkpt>
      <trkpt lat="43.60432" lon="3.62413">
        <ele>295.7426758</ele>
        <time>2014-04-26T09:15:02Z</time>
      </trkpt>
      <trkpt lat="43.60423" lon="3.62398">
        <ele>296.2235107</ele>
        <time>2014-04-26T09:15:08Z</time>
      </trkpt>
      <trkpt lat="43.60409" lon="3.62376">
        <ele>297.1846924</ele>
        <time>2014-04-26T09:15:16Z</time>
      </trkpt>
      <trkpt lat="43.60396" lon="3.62355">
        <ele>297.6654053</ele>
        <time>2014-04-26T09:15:23Z</time>
      </trkpt>
      <trkpt lat="43.60383" lon="3.62329">
        <ele>298.1461182</ele>
        <time>2014-04-26T09:15:31Z</time>
      </trkpt>
      <trkpt lat="43.60375" lon="3.62324">
        <ele>298.1461182</ele>
        <time>2014-04-26T09:15:34Z</time>
      </trkpt>
      <trkpt lat="43.60361" lon="3.62328">
        <ele>296.2235107</ele>
        <time>2014-04-26T09:15:40Z</time>
      </trkpt>
      <trkpt lat="43.60351" lon="3.62316">
        <ele>295.2619629</ele>
        <time>2014-04-26T09:15:44Z</time>
      </trkpt>
      <trkpt lat="43.60348" lon="3.62305">
        <ele>294.7813721</ele>
        <time>2014-04-26T09:15:46Z</time>
      </trkpt>
      <trkpt lat="43.60347" lon="3.62294">
        <ele>294.3007813</ele>
        <time>2014-04-26T09:15:48Z</time>
      </trkpt>
      <trkpt lat="43.60335" lon="3.62267">
        <ele>294.3007813</ele>
        <time>2014-04-26T09:15:53Z</time>
      </trkpt>
      <trkpt lat="43.60326" lon="3.62249">
        <ele>293.8200684</ele>
        <time>2014-04-26T09:15:56Z</time>
      </trkpt>
      <trkpt lat="43.60314" lon="3.62235">
        <ele>293.8200684</ele>
        <time>2014-04-26T09:15:59Z</time>
      </trkpt>
      <trkpt lat="43.60298" lon="3.62209">
        <ele>294.3007813</ele>
        <time>2014-04-26T09:16:04Z</time>
      </trkpt>
      <trkpt lat="43.60281" lon="3.62185">
        <ele>295.7426758</ele>
        <time>2014-04-26T09:16:10Z</time>
      </trkpt>
      <trkpt lat="43.60275" lon="3.62159">
        <ele>296.7041016</ele>
        <time>2014-04-26T09:16:16Z</time>
      </trkpt>
      <trkpt lat="43.60268" lon="3.62129">
        <ele>297.1846924</ele>
        <time>2014-04-26T09:16:23Z</time>
      </trkpt>
      <trkpt lat="43.60263" lon="3.62099">
        <ele>297.1846924</ele>
        <time>2014-04-26T09:16:30Z</time>
      </trkpt>
      <trkpt lat="43.60255" lon="3.62078">
        <ele>297.6654053</ele>
        <time>2014-04-26T09:16:36Z</time>
      </trkpt>
      <trkpt lat="43.60239" lon="3.62056">
        <ele>297.1846924</ele>
        <time>2014-04-26T09:16:42Z</time>
      </trkpt>
      <trkpt lat="43.60233" lon="3.62045">
        <ele>296.7041016</ele>
        <time>2014-04-26T09:16:44Z</time>
      </trkpt>
      <trkpt lat="43.60218" lon="3.62027">
        <ele>295.7426758</ele>
        <time>2014-04-26T09:16:48Z</time>
      </trkpt>
      <trkpt lat="43.6019" lon="3.61987">
        <ele>295.2619629</ele>
        <time>2014-04-26T09:16:55Z</time>
      </trkpt>
      <trkpt lat="43.60167" lon="3.61962">
        <ele>295.2619629</ele>
        <time>2014-04-26T09:17:00Z</time>
      </trkpt>
      <trkpt lat="43.6015" lon="3.61941">
        <ele>295.2619629</ele>
        <time>2014-04-26T09:17:04Z</time>
      </trkpt>
      <trkpt lat="43.60119" lon="3.6192">
        <ele>294.7813721</ele>
        <time>2014-04-26T09:17:10Z</time>
      </trkpt>
      <trkpt lat="43.60114" lon="3.61918">
        <ele>294.7813721</ele>
        <time>2014-04-26T09:17:11Z</time>
      </trkpt>
      <trkpt lat="43.60097" lon="3.61915">
        <ele>294.7813721</ele>
        <time>2014-04-26T09:17:14Z</time>
      </trkpt>
      <trkpt lat="43.6008" lon="3.61905">
        <ele>295.7426758</ele>
        <time>2014-04-26T09:17:18Z</time>
      </trkpt>
      <trkpt lat="43.60066" lon="3.61885">
        <ele>297.1846924</ele>
        <time>2014-04-26T09:17:23Z</time>
      </trkpt>
      <trkpt lat="43.60036" lon="3.61844">
        <ele>298.626709</ele>
        <time>2014-04-26T09:17:33Z</time>
      </trkpt>
      <trkpt lat="43.60011" lon="3.6182">
        <ele>299.1072998</ele>
        <time>2014-04-26T09:17:40Z</time>
      </trkpt>
      <trkpt lat="43.59995" lon="3.61805">
        <ele>299.1072998</ele>
        <time>2014-04-26T09:17:44Z</time>
      </trkpt>
      <trkpt lat="43.59971" lon="3.61771">
        <ele>299.1072998</ele>
        <time>2014-04-26T09:17:51Z</time>
      </trkpt>
      <trkpt lat="43.59965" lon="3.61761">
        <ele>299.1072998</ele>
        <time>2014-04-26T09:17:53Z</time>
      </trkpt>
      <trkpt lat="43.59958" lon="3.61752">
        <ele>299.5880127</ele>
        <time>2014-04-26T09:17:55Z</time>
      </trkpt>
      <trkpt lat="43.59938" lon="3.61735">
        <ele>300.0687256</ele>
        <time>2014-04-26T09:18:00Z</time>
      </trkpt>
      <trkpt lat="43.59924" lon="3.61716">
        <ele>300.0687256</ele>
        <time>2014-04-26T09:18:04Z</time>
      </trkpt>
      <trkpt lat="43.59902" lon="3.61683">
        <ele>300.5493164</ele>
        <time>2014-04-26T09:18:11Z</time>
      </trkpt>
      <trkpt lat="43.59891" lon="3.6167">
        <ele>300.5493164</ele>
        <time>2014-04-26T09:18:14Z</time>
      </trkpt>
      <trkpt lat="43.59859" lon="3.61639">
        <ele>300.0687256</ele>
        <time>2014-04-26T09:18:22Z</time>
      </trkpt>
      <trkpt lat="43.59843" lon="3.61616">
        <ele>300.0687256</ele>
        <time>2014-04-26T09:18:27Z</time>
      </trkpt>
      <trkpt lat="43.59819" lon="3.61588">
        <ele>300.5493164</ele>
        <time>2014-04-26T09:18:35Z</time>
      </trkpt>
      <trkpt lat="43.59817" lon="3.61569">
        <ele>300.0687256</ele>
        <time>2014-04-26T09:18:40Z</time>
      </trkpt>
      <trkpt lat="43.59804" lon="3.61556">
        <ele>299.5880127</ele>
        <time>2014-04-26T09:18:47Z</time>
      </trkpt>
      <trkpt lat="43.59783" lon="3.61538">
        <ele>298.626709</ele>
        <time>2014-04-26T09:18:55Z</time>
      </trkpt>
      <trkpt lat="43.59767" lon="3.6152">
        <ele>297.6654053</ele>
        <time>2014-04-26T09:19:01Z</time>
      </trkpt>
      <trkpt lat="43.59747" lon="3.61502">
        <ele>296.7041016</ele>
        <time>2014-04-26T09:19:08Z</time>
      </trkpt>
      <trkpt lat="43.5973" lon="3.61484">
        <ele>295.2619629</ele>
        <time>2014-04-26T09:19:14Z</time>
      </trkpt>
      <trkpt lat="43.59704" lon="3.61463">
        <ele>295.2619629</ele>
        <time>2014-04-26T09:19:22Z</time>
      </trkpt>
      <trkpt lat="43.59685" lon="3.61444">
        <ele>296.2235107</ele>
        <time>2014-04-26T09:19:29Z</time>
      </trkpt>
      <trkpt lat="43.59674" lon="3.61433">
        <ele>297.1846924</ele>
        <time>2014-04-26T09:19:35Z</time>
      </trkpt>
      <trkpt lat="43.59662" lon="3.61421">
        <ele>298.1461182</ele>
        <time>2014-04-26T09:19:42Z</time>
      </trkpt>
      <trkpt lat="43.5966" lon="3.61421">
        <ele>298.1461182</ele>
        <time>2014-04-26T09:19:44Z</time>
      </trkpt>
      <trkpt lat="43.59656" lon="3.61415">
        <ele>298.1461182</ele>
        <time>2014-04-26T09:19:49Z</time>
      </trkpt>
      <trkpt lat="43.59656" lon="3.61411">
        <ele>298.626709</ele>
        <time>2014-04-26T09:19:53Z</time>
      </trkpt>
      <trkpt lat="43.59652" lon="3.61405">
        <ele>299.1072998</ele>
        <time>2014-04-26T09:19:58Z</time>
      </trkpt>
      <trkpt lat="43.59645" lon="3.6139">
        <ele>299.5880127</ele>
        <time>2014-04-26T09:20:06Z</time>
      </trkpt>
      <trkpt lat="43.5964" lon="3.61372">
        <ele>301.0299072</ele>
        <time>2014-04-26T09:20:14Z</time>
      </trkpt>
      <trkpt lat="43.59631" lon="3.6135">
        <ele>301.991333</ele>
        <time>2014-04-26T09:20:23Z</time>
      </trkpt>
      <trkpt lat="43.59623" lon="3.61337">
        <ele>302.4719238</ele>
        <time>2014-04-26T09:20:30Z</time>
      </trkpt>
      <trkpt lat="43.5961" lon="3.61331">
        <ele>301.991333</ele>
        <time>2014-04-26T09:20:36Z</time>
      </trkpt>
      <trkpt lat="43.5959" lon="3.61315">
        <ele>301.5106201</ele>
        <time>2014-04-26T09:20:43Z</time>
      </trkpt>
      <trkpt lat="43.59572" lon="3.61291">
        <ele>300.5493164</ele>
        <time>2014-04-26T09:20:49Z</time>
      </trkpt>
      <trkpt lat="43.59547" lon="3.61261">
        <ele>300.0687256</ele>
        <time>2014-04-26T09:20:56Z</time>
      </trkpt>
      <trkpt lat="43.5954" lon="3.61252">
        <ele>299.5880127</ele>
        <time>2014-04-26T09:20:58Z</time>
      </trkpt>
      <trkpt lat="43.59521" lon="3.6123">
        <ele>299.5880127</ele>
        <time>2014-04-26T09:21:03Z</time>
      </trkpt>
      <trkpt lat="43.5948" lon="3.6119">
        <ele>299.1072998</ele>
        <time>2014-04-26T09:21:13Z</time>
      </trkpt>
      <trkpt lat="43.59468" lon="3.61177">
        <ele>299.1072998</ele>
        <time>2014-04-26T09:21:16Z</time>
      </trkpt>
      <trkpt lat="43.59443" lon="3.61159">
        <ele>299.5880127</ele>
        <time>2014-04-26T09:21:22Z</time>
      </trkpt>
      <trkpt lat="43.59423" lon="3.61138">
        <ele>299.1072998</ele>
        <time>2014-04-26T09:21:28Z</time>
      </trkpt>
      <trkpt lat="43.5942" lon="3.61126">
        <ele>299.5880127</ele>
        <time>2014-04-26T09:21:32Z</time>
      </trkpt>
      <trkpt lat="43.59417" lon="3.61115">
        <ele>299.1072998</ele>
        <time>2014-04-26T09:21:37Z</time>
      </trkpt>
      <trkpt lat="43.59415" lon="3.61113">
        <ele>299.1072998</ele>
        <time>2014-04-26T09:21:38Z</time>
      </trkpt>
      <trkpt lat="43.59402" lon="3.61096">
        <ele>298.626709</ele>
        <time>2014-04-26T09:21:45Z</time>
      </trkpt>
      <trkpt lat="43.59394" lon="3.6108">
        <ele>298.1461182</ele>
        <time>2014-04-26T09:21:50Z</time>
      </trkpt>
      <trkpt lat="43.59386" lon="3.61068">
        <ele>297.1846924</ele>
        <time>2014-04-26T09:21:54Z</time>
      </trkpt>
      <trkpt lat="43.59371" lon="3.61054">
        <ele>296.7041016</ele>
        <time>2014-04-26T09:21:59Z</time>
      </trkpt>
      <trkpt lat="43.59358" lon="3.6104">
        <ele>296.7041016</ele>
        <time>2014-04-26T09:22:04Z</time>
      </trkpt>
      <trkpt lat="43.59353" lon="3.61036">
        <ele>296.7041016</ele>
        <time>2014-04-26T09:22:06Z</time>
      </trkpt>
      <trkpt lat="43.59342" lon="3.61042">
        <ele>297.6654053</ele>
        <time>2014-04-26T09:22:12Z</time>
      </trkpt>
      <trkpt lat="43.59336" lon="3.61042">
        <ele>297.6654053</ele>
        <time>2014-04-26T09:22:15Z</time>
      </trkpt>
      <trkpt lat="43.59317" lon="3.61026">
        <ele>298.626709</ele>
        <time>2014-04-26T09:22:23Z</time>
      </trkpt>
      <trkpt lat="43.59302" lon="3.6101">
        <ele>298.1461182</ele>
        <time>2014-04-26T09:22:29Z</time>
      </trkpt>
      <trkpt lat="43.59281" lon="3.60985">
        <ele>297.1846924</ele>
        <time>2014-04-26T09:22:36Z</time>
      </trkpt>
      <trkpt lat="43.59265" lon="3.60973">
        <ele>296.2235107</ele>
        <time>2014-04-26T09:22:41Z</time>
      </trkpt>
      <trkpt lat="43.59262" lon="3.60972">
        <ele>295.7426758</ele>
        <time>2014-04-26T09:22:42Z</time>
      </trkpt>
      <trkpt lat="43.59243" lon="3.60961">
        <ele>293.8200684</ele>
        <time>2014-04-26T09:22:47Z</time>
      </trkpt>
      <trkpt lat="43.59224" lon="3.60945">
        <ele>292.3781738</ele>
        <time>2014-04-26T09:22:53Z</time>
      </trkpt>
      <trkpt lat="43.59198" lon="3.60932">
        <ele>291.416748</ele>
        <time>2014-04-26T09:23:00Z</time>
      </trkpt>
      <trkpt lat="43.59186" lon="3.60927">
        <ele>290.4555664</ele>
        <time>2014-04-26T09:23:05Z</time>
      </trkpt>
      <trkpt lat="43.59171" lon="3.6092">
        <ele>289.4941406</ele>
        <time>2014-04-26T09:23:09Z</time>
      </trkpt>
      <trkpt lat="43.59156" lon="3.60915">
        <ele>288.532959</ele>
        <time>2014-04-26T09:23:13Z</time>
      </trkpt>
      <trkpt lat="43.59123" lon="3.6091">
        <ele>286.6102295</ele>
        <time>2014-04-26T09:23:20Z</time>
      </trkpt>
      <trkpt lat="43.59106" lon="3.60908">
        <ele>285.6488037</ele>
        <time>2014-04-26T09:23:23Z</time>
      </trkpt>
      <trkpt lat="43.59094" lon="3.60905">
        <ele>284.2069092</ele>
        <time>2014-04-26T09:23:25Z</time>
      </trkpt>
      <trkpt lat="43.59069" lon="3.60904">
        <ele>282.2843018</ele>
        <time>2014-04-26T09:23:29Z</time>
      </trkpt>
      <trkpt lat="43.59059" lon="3.60907">
        <ele>280.8424072</ele>
        <time>2014-04-26T09:23:31Z</time>
      </trkpt>
      <trkpt lat="43.59049" lon="3.6091">
        <ele>279.4002686</ele>
        <time>2014-04-26T09:23:33Z</time>
      </trkpt>
      <trkpt lat="43.59025" lon="3.60915">
        <ele>276.9970703</ele>
        <time>2014-04-26T09:23:37Z</time>
      </trkpt>
      <trkpt lat="43.58997" lon="3.60909">
        <ele>274.59375</ele>
        <time>2014-04-26T09:23:42Z</time>
      </trkpt>
      <trkpt lat="43.58988" lon="3.60903">
        <ele>274.59375</ele>
        <time>2014-04-26T09:23:44Z</time>
      </trkpt>
      <trkpt lat="43.58974" lon="3.60895">
        <ele>274.1130371</ele>
        <time>2014-04-26T09:23:47Z</time>
      </trkpt>
      <trkpt lat="43.58962" lon="3.60882">
        <ele>273.6324463</ele>
        <time>2014-04-26T09:23:51Z</time>
      </trkpt>
      <trkpt lat="43.58955" lon="3.60873">
        <ele>273.6324463</ele>
        <time>2014-04-26T09:23:57Z</time>
      </trkpt>
      <trkpt lat="43.58953" lon="3.60872">
        <ele>273.1518555</ele>
        <time>2014-04-26T09:24:00Z</time>
      </trkpt>
      <trkpt lat="43.58953" lon="3.60874">
        <ele>273.1518555</ele>
        <time>2014-04-26T09:24:12Z</time>
      </trkpt>
      <trkpt lat="43.58956" lon="3.60874">
        <ele>272.6711426</ele>
        <time>2014-04-26T09:24:15Z</time>
      </trkpt>
      <trkpt lat="43.58956" lon="3.60873">
        <ele>272.6711426</ele>
        <time>2014-04-26T09:24:18Z</time>
      </trkpt>
      <trkpt lat="43.58964" lon="3.60867">
        <ele>272.1904297</ele>
        <time>2014-04-26T09:24:21Z</time>
      </trkpt>
      <trkpt lat="43.58972" lon="3.60869">
        <ele>271.7097168</ele>
        <time>2014-04-26T09:24:25Z</time>
      </trkpt>
      <trkpt lat="43.58976" lon="3.60869">
        <ele>271.229126</ele>
        <time>2014-04-26T09:24:29Z</time>
      </trkpt>
      <trkpt lat="43.58975" lon="3.6087">
        <ele>271.229126</ele>
        <time>2014-04-26T09:24:34Z</time>
      </trkpt>
      <trkpt lat="43.58974" lon="3.60869">
        <ele>271.7097168</ele>
        <time>2014-04-26T09:24:36Z</time>
      </trkpt>
      <trkpt lat="43.58974" lon="3.60869">
        <ele>271.7097168</ele>
        <time>2014-04-26T09:24:39Z</time>
      </trkpt>
      <trkpt lat="43.58974" lon="3.60869">
        <ele>271.7097168</ele>
        <time>2014-04-26T09:24:40Z</time>
      </trkpt>
      <trkpt lat="43.58973" lon="3.60868">
        <ele>272.6711426</ele>
        <time>2014-04-26T09:25:05Z</time>
      </trkpt>
      <trkpt lat="43.58965" lon="3.60866">
        <ele>273.1518555</ele>
        <time>2014-04-26T09:25:10Z</time>
      </trkpt>
      <trkpt lat="43.58959" lon="3.60872">
        <ele>274.1130371</ele>
        <time>2014-04-26T09:25:15Z</time>
      </trkpt>
      <trkpt lat="43.58961" lon="3.6088">
        <ele>274.1130371</ele>
        <time>2014-04-26T09:25:20Z</time>
      </trkpt>
      <trkpt lat="43.58968" lon="3.60888">
        <ele>274.59375</ele>
        <time>2014-04-26T09:25:26Z</time>
      </trkpt>
      <trkpt lat="43.58975" lon="3.60897">
        <ele>275.5550537</ele>
        <time>2014-04-26T09:25:33Z</time>
      </trkpt>
      <trkpt lat="43.5899" lon="3.60904">
        <ele>275.5550537</ele>
        <time>2014-04-26T09:25:40Z</time>
      </trkpt>
      <trkpt lat="43.59002" lon="3.60911">
        <ele>276.0356445</ele>
        <time>2014-04-26T09:25:46Z</time>
      </trkpt>
      <trkpt lat="43.59019" lon="3.60917">
        <ele>276.0356445</ele>
        <time>2014-04-26T09:25:54Z</time>
      </trkpt>
      <trkpt lat="43.59039" lon="3.60913">
        <ele>277.4776611</ele>
        <time>2014-04-26T09:26:03Z</time>
      </trkpt>
      <trkpt lat="43.59052" lon="3.60912">
        <ele>277.958252</ele>
        <time>2014-04-26T09:26:09Z</time>
      </trkpt>
      <trkpt lat="43.59064" lon="3.60909">
        <ele>279.4002686</ele>
        <time>2014-04-26T09:26:15Z</time>
      </trkpt>
      <trkpt lat="43.59077" lon="3.60905">
        <ele>280.3616943</ele>
        <time>2014-04-26T09:26:21Z</time>
      </trkpt>
      <trkpt lat="43.59097" lon="3.60908">
        <ele>281.8035889</ele>
        <time>2014-04-26T09:26:31Z</time>
      </trkpt>
      <trkpt lat="43.5911" lon="3.60911">
        <ele>282.7650146</ele>
        <time>2014-04-26T09:26:38Z</time>
      </trkpt>
      <trkpt lat="43.59125" lon="3.60912">
        <ele>283.7261963</ele>
        <time>2014-04-26T09:26:45Z</time>
      </trkpt>
      <trkpt lat="43.59149" lon="3.60916">
        <ele>285.1682129</ele>
        <time>2014-04-26T09:26:56Z</time>
      </trkpt>
      <trkpt lat="43.59167" lon="3.6092">
        <ele>286.1295166</ele>
        <time>2014-04-26T09:27:04Z</time>
      </trkpt>
      <trkpt lat="43.59182" lon="3.60928">
        <ele>287.0908203</ele>
        <time>2014-04-26T09:27:11Z</time>
      </trkpt>
      <trkpt lat="43.59196" lon="3.60936">
        <ele>288.532959</ele>
        <time>2014-04-26T09:27:19Z</time>
      </trkpt>
      <trkpt lat="43.59206" lon="3.60939">
        <ele>288.532959</ele>
        <time>2014-04-26T09:27:25Z</time>
      </trkpt>
      <trkpt lat="43.5922" lon="3.60947">
        <ele>288.532959</ele>
        <time>2014-04-26T09:27:31Z</time>
      </trkpt>
      <trkpt lat="43.59241" lon="3.60961">
        <ele>289.4941406</ele>
        <time>2014-04-26T09:27:39Z</time>
      </trkpt>
      <trkpt lat="43.59252" lon="3.60973">
        <ele>290.4555664</ele>
        <time>2014-04-26T09:27:46Z</time>
      </trkpt>
      <trkpt lat="43.59264" lon="3.60978">
        <ele>291.416748</ele>
        <time>2014-04-26T09:27:52Z</time>
      </trkpt>
      <trkpt lat="43.59277" lon="3.60983">
        <ele>291.8974609</ele>
        <time>2014-04-26T09:27:59Z</time>
      </trkpt>
      <trkpt lat="43.59288" lon="3.60999">
        <ele>292.8587646</ele>
        <time>2014-04-26T09:28:06Z</time>
      </trkpt>
      <trkpt lat="43.59297" lon="3.61008">
        <ele>293.3393555</ele>
        <time>2014-04-26T09:28:12Z</time>
      </trkpt>
      <trkpt lat="43.59307" lon="3.61019">
        <ele>293.8200684</ele>
        <time>2014-04-26T09:28:19Z</time>
      </trkpt>
      <trkpt lat="43.59307" lon="3.61029">
        <ele>293.3393555</ele>
        <time>2014-04-26T09:28:25Z</time>
      </trkpt>
      <trkpt lat="43.59311" lon="3.61029">
        <ele>293.8200684</ele>
        <time>2014-04-26T09:28:29Z</time>
      </trkpt>
      <trkpt lat="43.59317" lon="3.61029">
        <ele>293.8200684</ele>
        <time>2014-04-26T09:28:33Z</time>
      </trkpt>
      <trkpt lat="43.59336" lon="3.61044">
        <ele>293.3393555</ele>
        <time>2014-04-26T09:28:40Z</time>
      </trkpt>
      <trkpt lat="43.59347" lon="3.61058">
        <ele>294.3007813</ele>
        <time>2014-04-26T09:28:45Z</time>
      </trkpt>
      <trkpt lat="43.5935" lon="3.61062">
        <ele>294.3007813</ele>
        <time>2014-04-26T09:28:49Z</time>
      </trkpt>
      <trkpt lat="43.5935" lon="3.61061">
        <ele>294.3007813</ele>
        <time>2014-04-26T09:28:52Z</time>
      </trkpt>
      <trkpt lat="43.59349" lon="3.6106">
        <ele>294.3007813</ele>
        <time>2014-04-26T09:28:53Z</time>
      </trkpt>
      <trkpt lat="43.59344" lon="3.61053">
        <ele>294.3007813</ele>
        <time>2014-04-26T09:28:55Z</time>
      </trkpt>
      <trkpt lat="43.59345" lon="3.61041">
        <ele>293.8200684</ele>
        <time>2014-04-26T09:29:00Z</time>
      </trkpt>
      <trkpt lat="43.59351" lon="3.61038">
        <ele>293.8200684</ele>
        <time>2014-04-26T09:29:03Z</time>
      </trkpt>
      <trkpt lat="43.59371" lon="3.61054">
        <ele>293.8200684</ele>
        <time>2014-04-26T09:29:11Z</time>
      </trkpt>
      <trkpt lat="43.59382" lon="3.61065">
        <ele>293.8200684</ele>
        <time>2014-04-26T09:29:15Z</time>
      </trkpt>
      <trkpt lat="43.59397" lon="3.61091">
        <ele>294.7813721</ele>
        <time>2014-04-26T09:29:22Z</time>
      </trkpt>
      <trkpt lat="43.59418" lon="3.61117">
        <ele>295.7426758</ele>
        <time>2014-04-26T09:29:31Z</time>
      </trkpt>
      <trkpt lat="43.59422" lon="3.6113">
        <ele>296.2235107</ele>
        <time>2014-04-26T09:29:35Z</time>
      </trkpt>
      <trkpt lat="43.59423" lon="3.61137">
        <ele>296.2235107</ele>
        <time>2014-04-26T09:29:37Z</time>
      </trkpt>
      <trkpt lat="43.59437" lon="3.61159">
        <ele>296.2235107</ele>
        <time>2014-04-26T09:29:43Z</time>
      </trkpt>
      <trkpt lat="43.59469" lon="3.61179">
        <ele>295.7426758</ele>
        <time>2014-04-26T09:29:51Z</time>
      </trkpt>
      <trkpt lat="43.59488" lon="3.612">
        <ele>295.2619629</ele>
        <time>2014-04-26T09:29:56Z</time>
      </trkpt>
      <trkpt lat="43.59523" lon="3.61234">
        <ele>295.7426758</ele>
        <time>2014-04-26T09:30:05Z</time>
      </trkpt>
      <trkpt lat="43.59543" lon="3.61257">
        <ele>296.2235107</ele>
        <time>2014-04-26T09:30:12Z</time>
      </trkpt>
      <trkpt lat="43.59566" lon="3.61283">
        <ele>296.7041016</ele>
        <time>2014-04-26T09:30:20Z</time>
      </trkpt>
      <trkpt lat="43.59584" lon="3.61307">
        <ele>297.1846924</ele>
        <time>2014-04-26T09:30:27Z</time>
      </trkpt>
      <trkpt lat="43.59605" lon="3.6133">
        <ele>297.6654053</ele>
        <time>2014-04-26T09:30:35Z</time>
      </trkpt>
      <trkpt lat="43.59623" lon="3.6134">
        <ele>298.1461182</ele>
        <time>2014-04-26T09:30:41Z</time>
      </trkpt>
      <trkpt lat="43.59634" lon="3.61327">
        <ele>298.1461182</ele>
        <time>2014-04-26T09:30:46Z</time>
      </trkpt>
      <trkpt lat="43.59636" lon="3.61323">
        <ele>298.1461182</ele>
        <time>2014-04-26T09:30:47Z</time>
      </trkpt>
      <trkpt lat="43.59648" lon="3.61303">
        <ele>298.1461182</ele>
        <time>2014-04-26T09:30:54Z</time>
      </trkpt>
      <trkpt lat="43.59656" lon="3.61271">
        <ele>297.6654053</ele>
        <time>2014-04-26T09:31:02Z</time>
      </trkpt>
      <trkpt lat="43.59658" lon="3.61264">
        <ele>297.6654053</ele>
        <time>2014-04-26T09:31:04Z</time>
      </trkpt>
      <trkpt lat="43.59668" lon="3.61263">
        <ele>297.6654053</ele>
        <time>2014-04-26T09:31:09Z</time>
      </trkpt>
      <trkpt lat="43.59678" lon="3.61254">
        <ele>296.7041016</ele>
        <time>2014-04-26T09:31:13Z</time>
      </trkpt>
      <trkpt lat="43.59691" lon="3.61233">
        <ele>295.7426758</ele>
        <time>2014-04-26T09:31:18Z</time>
      </trkpt>
      <trkpt lat="43.59698" lon="3.61191">
        <ele>293.8200684</ele>
        <time>2014-04-26T09:31:25Z</time>
      </trkpt>
      <trkpt lat="43.59698" lon="3.61184">
        <ele>293.3393555</ele>
        <time>2014-04-26T09:31:26Z</time>
      </trkpt>
      <trkpt lat="43.59695" lon="3.61154">
        <ele>291.8974609</ele>
        <time>2014-04-26T09:31:31Z</time>
      </trkpt>
      <trkpt lat="43.59694" lon="3.61127">
        <ele>290.9361572</ele>
        <time>2014-04-26T09:31:35Z</time>
      </trkpt>
      <trkpt lat="43.59697" lon="3.61079">
        <ele>289.4941406</ele>
        <time>2014-04-26T09:31:42Z</time>
      </trkpt>
      <trkpt lat="43.59708" lon="3.61051">
        <ele>289.0135498</ele>
        <time>2014-04-26T09:31:47Z</time>
      </trkpt>
      <trkpt lat="43.59711" lon="3.61039">
        <ele>288.532959</ele>
        <time>2014-04-26T09:31:49Z</time>
      </trkpt>
      <trkpt lat="43.59714" lon="3.61021">
        <ele>288.532959</ele>
        <time>2014-04-26T09:31:52Z</time>
      </trkpt>
      <trkpt lat="43.59724" lon="3.60985">
        <ele>287.0908203</ele>
        <time>2014-04-26T09:31:59Z</time>
      </trkpt>
      <trkpt lat="43.59734" lon="3.6097">
        <ele>287.0908203</ele>
        <time>2014-04-26T09:32:04Z</time>
      </trkpt>
      <trkpt lat="43.59747" lon="3.60966">
        <ele>287.5714111</ele>
        <time>2014-04-26T09:32:09Z</time>
      </trkpt>
      <trkpt lat="43.59762" lon="3.6096">
        <ele>288.0522461</ele>
        <time>2014-04-26T09:32:14Z</time>
      </trkpt>
      <trkpt lat="43.5978" lon="3.60956">
        <ele>288.0522461</ele>
        <time>2014-04-26T09:32:22Z</time>
      </trkpt>
      <trkpt lat="43.59788" lon="3.6095">
        <ele>287.0908203</ele>
        <time>2014-04-26T09:32:26Z</time>
      </trkpt>
      <trkpt lat="43.59789" lon="3.60949">
        <ele>287.0908203</ele>
        <time>2014-04-26T09:32:28Z</time>
      </trkpt>
      <trkpt lat="43.59789" lon="3.60949">
        <ele>286.6102295</ele>
        <time>2014-04-26T09:32:31Z</time>
      </trkpt>
      <trkpt lat="43.59793" lon="3.60945">
        <ele>286.6102295</ele>
        <time>2014-04-26T09:32:36Z</time>
      </trkpt>
      <trkpt lat="43.59793" lon="3.60945">
        <ele>286.6102295</ele>
        <time>2014-04-26T09:32:37Z</time>
      </trkpt>
      <trkpt lat="43.59794" lon="3.60945">
        <ele>286.6102295</ele>
        <time>2014-04-26T09:32:40Z</time>
      </trkpt>
      <trkpt lat="43.59798" lon="3.60946">
        <ele>285.6488037</ele>
        <time>2014-04-26T09:32:44Z</time>
      </trkpt>
      <trkpt lat="43.59798" lon="3.60947">
        <ele>285.6488037</ele>
        <time>2014-04-26T09:32:45Z</time>
      </trkpt>
      <trkpt lat="43.59798" lon="3.60946">
        <ele>286.1295166</ele>
        <time>2014-04-26T09:33:10Z</time>
      </trkpt>
      <trkpt lat="43.59798" lon="3.60945">
        <ele>286.1295166</ele>
        <time>2014-04-26T09:33:11Z</time>
      </trkpt>
      <trkpt lat="43.59797" lon="3.60933">
        <ele>289.0135498</ele>
        <time>2014-04-26T09:33:20Z</time>
      </trkpt>
      <trkpt lat="43.59797" lon="3.60932">
        <ele>289.0135498</ele>
        <time>2014-04-26T09:33:21Z</time>
      </trkpt>
      <trkpt lat="43.59796" lon="3.60932">
        <ele>289.0135498</ele>
        <time>2014-04-26T09:33:25Z</time>
      </trkpt>
      <trkpt lat="43.59796" lon="3.60929">
        <ele>289.0135498</ele>
        <time>2014-04-26T09:33:27Z</time>
      </trkpt>
      <trkpt lat="43.59796" lon="3.60928">
        <ele>289.4941406</ele>
        <time>2014-04-26T09:33:29Z</time>
      </trkpt>
      <trkpt lat="43.59797" lon="3.60928">
        <ele>289.4941406</ele>
        <time>2014-04-26T09:33:32Z</time>
      </trkpt>
      <trkpt lat="43.59797" lon="3.60922">
        <ele>288.0522461</ele>
        <time>2014-04-26T09:33:37Z</time>
      </trkpt>
      <trkpt lat="43.59797" lon="3.60922">
        <ele>288.0522461</ele>
        <time>2014-04-26T09:33:40Z</time>
      </trkpt>
      <trkpt lat="43.59798" lon="3.60917">
        <ele>285.6488037</ele>
        <time>2014-04-26T09:33:44Z</time>
      </trkpt>
      <trkpt lat="43.59799" lon="3.60915">
        <ele>284.2069092</ele>
        <time>2014-04-26T09:33:49Z</time>
      </trkpt>
      <trkpt lat="43.598" lon="3.60914">
        <ele>283.2456055</ele>
        <time>2014-04-26T09:33:52Z</time>
      </trkpt>
      <trkpt lat="43.59801" lon="3.60914">
        <ele>283.2456055</ele>
        <time>2014-04-26T09:33:57Z</time>
      </trkpt>
      <trkpt lat="43.59799" lon="3.60916">
        <ele>282.7650146</ele>
        <time>2014-04-26T09:34:00Z</time>
      </trkpt>
      <trkpt lat="43.59801" lon="3.60919">
        <ele>283.7261963</ele>
        <time>2014-04-26T09:34:05Z</time>
      </trkpt>
      <trkpt lat="43.59801" lon="3.6092">
        <ele>284.2069092</ele>
        <time>2014-04-26T09:34:08Z</time>
      </trkpt>
      <trkpt lat="43.59799" lon="3.6092">
        <ele>286.1295166</ele>
        <time>2014-04-26T09:34:09Z</time>
      </trkpt>
      <trkpt lat="43.59798" lon="3.60927">
        <ele>289.4941406</ele>
        <time>2014-04-26T09:34:13Z</time>
      </trkpt>
      <trkpt lat="43.59796" lon="3.60937">
        <ele>288.532959</ele>
        <time>2014-04-26T09:34:20Z</time>
      </trkpt>
      <trkpt lat="43.59796" lon="3.60942">
        <ele>287.0908203</ele>
        <time>2014-04-26T09:34:25Z</time>
      </trkpt>
      <trkpt lat="43.59797" lon="3.60943">
        <ele>286.1295166</ele>
        <time>2014-04-26T09:34:30Z</time>
      </trkpt>
      <trkpt lat="43.59798" lon="3.60955">
        <ele>285.1682129</ele>
        <time>2014-04-26T09:34:33Z</time>
      </trkpt>
      <trkpt lat="43.598" lon="3.60972">
        <ele>283.7261963</ele>
        <time>2014-04-26T09:34:38Z</time>
      </trkpt>
      <trkpt lat="43.59802" lon="3.60986">
        <ele>283.2456055</ele>
        <time>2014-04-26T09:34:42Z</time>
      </trkpt>
      <trkpt lat="43.59803" lon="3.61009">
        <ele>283.2456055</ele>
        <time>2014-04-26T09:34:48Z</time>
      </trkpt>
      <trkpt lat="43.59801" lon="3.61024">
        <ele>282.2843018</ele>
        <time>2014-04-26T09:34:53Z</time>
      </trkpt>
      <trkpt lat="43.598" lon="3.61027">
        <ele>282.2843018</ele>
        <time>2014-04-26T09:34:54Z</time>
      </trkpt>
      <trkpt lat="43.59803" lon="3.6104">
        <ele>281.322998</ele>
        <time>2014-04-26T09:34:58Z</time>
      </trkpt>
      <trkpt lat="43.59801" lon="3.61051">
        <ele>281.322998</ele>
        <time>2014-04-26T09:35:01Z</time>
      </trkpt>
      <trkpt lat="43.59801" lon="3.61053">
        <ele>281.8035889</ele>
        <time>2014-04-26T09:35:02Z</time>
      </trkpt>
      <trkpt lat="43.59802" lon="3.61056">
        <ele>280.8424072</ele>
        <time>2014-04-26T09:35:05Z</time>
      </trkpt>
      <trkpt lat="43.59802" lon="3.61072">
        <ele>279.4002686</ele>
        <time>2014-04-26T09:35:12Z</time>
      </trkpt>
      <trkpt lat="43.59802" lon="3.61073">
        <ele>279.4002686</ele>
        <time>2014-04-26T09:35:13Z</time>
      </trkpt>
      <trkpt lat="43.59813" lon="3.61068">
        <ele>277.4776611</ele>
        <time>2014-04-26T09:35:18Z</time>
      </trkpt>
      <trkpt lat="43.59822" lon="3.61055">
        <ele>277.4776611</ele>
        <time>2014-04-26T09:35:22Z</time>
      </trkpt>
      <trkpt lat="43.59826" lon="3.61052">
        <ele>277.958252</ele>
        <time>2014-04-26T09:35:24Z</time>
      </trkpt>
      <trkpt lat="43.59845" lon="3.61048">
        <ele>276.9970703</ele>
        <time>2014-04-26T09:35:31Z</time>
      </trkpt>
      <trkpt lat="43.59859" lon="3.61038">
        <ele>276.0356445</ele>
        <time>2014-04-26T09:35:36Z</time>
      </trkpt>
      <trkpt lat="43.59863" lon="3.61032">
        <ele>275.0744629</ele>
        <time>2014-04-26T09:35:39Z</time>
      </trkpt>
      <trkpt lat="43.59859" lon="3.61018">
        <ele>272.6711426</ele>
        <time>2014-04-26T09:35:44Z</time>
      </trkpt>
      <trkpt lat="43.59847" lon="3.61">
        <ele>270.2677002</ele>
        <time>2014-04-26T09:35:49Z</time>
      </trkpt>
      <trkpt lat="43.59839" lon="3.60987">
        <ele>267.3839111</ele>
        <time>2014-04-26T09:35:53Z</time>
      </trkpt>
      <trkpt lat="43.5984" lon="3.60963">
        <ele>264.9805908</ele>
        <time>2014-04-26T09:35:58Z</time>
      </trkpt>
      <trkpt lat="43.59843" lon="3.60934">
        <ele>262.0965576</ele>
        <time>2014-04-26T09:36:04Z</time>
      </trkpt>
      <trkpt lat="43.59845" lon="3.60906">
        <ele>259.2126465</ele>
        <time>2014-04-26T09:36:10Z</time>
      </trkpt>
      <trkpt lat="43.59847" lon="3.60883">
        <ele>255.8480225</ele>
        <time>2014-04-26T09:36:15Z</time>
      </trkpt>
      <trkpt lat="43.59846" lon="3.60859">
        <ele>251.0413818</ele>
        <time>2014-04-26T09:36:21Z</time>
      </trkpt>
      <trkpt lat="43.59841" lon="3.60841">
        <ele>248.6381836</ele>
        <time>2014-04-26T09:36:25Z</time>
      </trkpt>
      <trkpt lat="43.59833" lon="3.60824">
        <ele>247.1960449</ele>
        <time>2014-04-26T09:36:30Z</time>
      </trkpt>
      <trkpt lat="43.59832" lon="3.60817">
        <ele>247.6767578</ele>
        <time>2014-04-26T09:36:35Z</time>
      </trkpt>
      <trkpt lat="43.59832" lon="3.60817">
        <ele>248.1575928</ele>
        <time>2014-04-26T09:36:40Z</time>
      </trkpt>
      <trkpt lat="43.5984" lon="3.60824">
        <ele>246.2348633</ele>
        <time>2014-04-26T09:36:43Z</time>
      </trkpt>
      <trkpt lat="43.59848" lon="3.60832">
        <ele>242.8702393</ele>
        <time>2014-04-26T09:36:47Z</time>
      </trkpt>
      <trkpt lat="43.59855" lon="3.60832">
        <ele>240.467041</ele>
        <time>2014-04-26T09:36:50Z</time>
      </trkpt>
      <trkpt lat="43.59872" lon="3.60842">
        <ele>236.6217041</ele>
        <time>2014-04-26T09:36:56Z</time>
      </trkpt>
      <trkpt lat="43.59876" lon="3.60844">
        <ele>235.6602783</ele>
        <time>2014-04-26T09:37:00Z</time>
      </trkpt>
      <trkpt lat="43.59882" lon="3.60825">
        <ele>233.7376709</ele>
        <time>2014-04-26T09:37:05Z</time>
      </trkpt>
      <trkpt lat="43.59893" lon="3.6081">
        <ele>231.8149414</ele>
        <time>2014-04-26T09:37:09Z</time>
      </trkpt>
      <trkpt lat="43.59901" lon="3.60795">
        <ele>230.3730469</ele>
        <time>2014-04-26T09:37:13Z</time>
      </trkpt>
      <trkpt lat="43.59903" lon="3.60791">
        <ele>229.892334</ele>
        <time>2014-04-26T09:37:14Z</time>
      </trkpt>
      <trkpt lat="43.59899" lon="3.60771">
        <ele>230.3730469</ele>
        <time>2014-04-26T09:37:19Z</time>
      </trkpt>
      <trkpt lat="43.59895" lon="3.60765">
        <ele>230.3730469</ele>
        <time>2014-04-26T09:37:21Z</time>
      </trkpt>
      <trkpt lat="43.59888" lon="3.60741">
        <ele>229.4117432</ele>
        <time>2014-04-26T09:37:26Z</time>
      </trkpt>
      <trkpt lat="43.59885" lon="3.60733">
        <ele>228.4504395</ele>
        <time>2014-04-26T09:37:28Z</time>
      </trkpt>
      <trkpt lat="43.59882" lon="3.60708">
        <ele>226.0471191</ele>
        <time>2014-04-26T09:37:33Z</time>
      </trkpt>
      <trkpt lat="43.59881" lon="3.60684">
        <ele>222.6824951</ele>
        <time>2014-04-26T09:37:39Z</time>
      </trkpt>
      <trkpt lat="43.59879" lon="3.60674">
        <ele>220.7598877</ele>
        <time>2014-04-26T09:37:42Z</time>
      </trkpt>
      <trkpt lat="43.5988" lon="3.60633">
        <ele>216.9146729</ele>
        <time>2014-04-26T09:37:48Z</time>
      </trkpt>
      <trkpt lat="43.5988" lon="3.606">
        <ele>214.0306396</ele>
        <time>2014-04-26T09:37:53Z</time>
      </trkpt>
      <trkpt lat="43.5988" lon="3.60562">
        <ele>209.704834</ele>
        <time>2014-04-26T09:38:00Z</time>
      </trkpt>
      <trkpt lat="43.59878" lon="3.60533">
        <ele>206.3400879</ele>
        <time>2014-04-26T09:38:05Z</time>
      </trkpt>
      <trkpt lat="43.59877" lon="3.60501">
        <ele>202.494873</ele>
        <time>2014-04-26T09:38:11Z</time>
      </trkpt>
      <trkpt lat="43.59878" lon="3.60489">
        <ele>201.0528564</ele>
        <time>2014-04-26T09:38:14Z</time>
      </trkpt>
      <trkpt lat="43.59882" lon="3.60464">
        <ele>198.1689453</ele>
        <time>2014-04-26T09:38:19Z</time>
      </trkpt>
      <trkpt lat="43.59879" lon="3.6044">
        <ele>194.8043213</ele>
        <time>2014-04-26T09:38:24Z</time>
      </trkpt>
      <trkpt lat="43.5988" lon="3.60435">
        <ele>194.3237305</ele>
        <time>2014-04-26T09:38:25Z</time>
      </trkpt>
      <trkpt lat="43.59891" lon="3.60409">
        <ele>191.9202881</ele>
        <time>2014-04-26T09:38:30Z</time>
      </trkpt>
      <trkpt lat="43.59893" lon="3.60408">
        <ele>191.4395752</ele>
        <time>2014-04-26T09:38:33Z</time>
      </trkpt>
      <trkpt lat="43.59893" lon="3.6041">
        <ele>190.9589844</ele>
        <time>2014-04-26T09:38:39Z</time>
      </trkpt>
      <trkpt lat="43.5989" lon="3.60416">
        <ele>192.401123</ele>
        <time>2014-04-26T09:38:43Z</time>
      </trkpt>
      <trkpt lat="43.59896" lon="3.60418">
        <ele>193.3623047</ele>
        <time>2014-04-26T09:38:48Z</time>
      </trkpt>
      <trkpt lat="43.59897" lon="3.60418">
        <ele>193.8430176</ele>
        <time>2014-04-26T09:38:51Z</time>
      </trkpt>
      <trkpt lat="43.59897" lon="3.60417">
        <ele>193.8430176</ele>
        <time>2014-04-26T09:39:00Z</time>
      </trkpt>
      <trkpt lat="43.59911" lon="3.60409">
        <ele>193.8430176</ele>
        <time>2014-04-26T09:39:06Z</time>
      </trkpt>
      <trkpt lat="43.59935" lon="3.60395">
        <ele>192.8817139</ele>
        <time>2014-04-26T09:39:14Z</time>
      </trkpt>
      <trkpt lat="43.59952" lon="3.60386">
        <ele>192.401123</ele>
        <time>2014-04-26T09:39:20Z</time>
      </trkpt>
      <trkpt lat="43.5996" lon="3.60386">
        <ele>192.401123</ele>
        <time>2014-04-26T09:39:25Z</time>
      </trkpt>
      <trkpt lat="43.5996" lon="3.60386">
        <ele>192.401123</ele>
        <time>2014-04-26T09:39:26Z</time>
      </trkpt>
      <trkpt lat="43.5996" lon="3.60386">
        <ele>192.8817139</ele>
        <time>2014-04-26T09:39:32Z</time>
      </trkpt>
      <trkpt lat="43.5996" lon="3.60383">
        <ele>193.3623047</ele>
        <time>2014-04-26T09:39:35Z</time>
      </trkpt>
      <trkpt lat="43.59957" lon="3.60384">
        <ele>193.8430176</ele>
        <time>2014-04-26T09:39:39Z</time>
      </trkpt>
      <trkpt lat="43.59955" lon="3.60385">
        <ele>193.8430176</ele>
        <time>2014-04-26T09:39:42Z</time>
      </trkpt>
      <trkpt lat="43.59954" lon="3.60385">
        <ele>193.8430176</ele>
        <time>2014-04-26T09:39:45Z</time>
      </trkpt>
      <trkpt lat="43.59942" lon="3.6039">
        <ele>193.3623047</ele>
        <time>2014-04-26T09:39:51Z</time>
      </trkpt>
      <trkpt lat="43.59924" lon="3.60401">
        <ele>194.8043213</ele>
        <time>2014-04-26T09:39:57Z</time>
      </trkpt>
      <trkpt lat="43.59898" lon="3.60417">
        <ele>194.8043213</ele>
        <time>2014-04-26T09:40:05Z</time>
      </trkpt>
      <trkpt lat="43.59895" lon="3.60418">
        <ele>194.8043213</ele>
        <time>2014-04-26T09:40:06Z</time>
      </trkpt>
      <trkpt lat="43.59886" lon="3.60415">
        <ele>193.8430176</ele>
        <time>2014-04-26T09:40:11Z</time>
      </trkpt>
      <trkpt lat="43.59887" lon="3.60413">
        <ele>193.8430176</ele>
        <time>2014-04-26T09:40:12Z</time>
      </trkpt>
      <trkpt lat="43.59904" lon="3.60396">
        <ele>191.9202881</ele>
        <time>2014-04-26T09:40:18Z</time>
      </trkpt>
      <trkpt lat="43.5993" lon="3.6037">
        <ele>190.9589844</ele>
        <time>2014-04-26T09:40:24Z</time>
      </trkpt>
      <trkpt lat="43.59958" lon="3.60345">
        <ele>190.4783936</ele>
        <time>2014-04-26T09:40:30Z</time>
      </trkpt>
      <trkpt lat="43.59988" lon="3.60321">
        <ele>188.0750732</ele>
        <time>2014-04-26T09:40:36Z</time>
      </trkpt>
      <trkpt lat="43.59991" lon="3.60318">
        <ele>187.5943604</ele>
        <time>2014-04-26T09:40:37Z</time>
      </trkpt>
      <trkpt lat="43.60006" lon="3.60318">
        <ele>187.5943604</ele>
        <time>2014-04-26T09:40:44Z</time>
      </trkpt>
      <trkpt lat="43.60017" lon="3.60327">
        <ele>188.5557861</ele>
        <time>2014-04-26T09:40:51Z</time>
      </trkpt>
      <trkpt lat="43.60023" lon="3.60331">
        <ele>189.036377</ele>
        <time>2014-04-26T09:40:57Z</time>
      </trkpt>
      <trkpt lat="43.60023" lon="3.60333">
        <ele>188.0750732</ele>
        <time>2014-04-26T09:41:24Z</time>
      </trkpt>
      <trkpt lat="43.60031" lon="3.6034">
        <ele>188.5557861</ele>
        <time>2014-04-26T09:41:29Z</time>
      </trkpt>
      <trkpt lat="43.60045" lon="3.60351">
        <ele>189.036377</ele>
        <time>2014-04-26T09:41:35Z</time>
      </trkpt>
      <trkpt lat="43.60069" lon="3.60368">
        <ele>190.4783936</ele>
        <time>2014-04-26T09:41:44Z</time>
      </trkpt>
      <trkpt lat="43.60086" lon="3.60381">
        <ele>192.401123</ele>
        <time>2014-04-26T09:41:51Z</time>
      </trkpt>
      <trkpt lat="43.60102" lon="3.60391">
        <ele>194.3237305</ele>
        <time>2014-04-26T09:41:58Z</time>
      </trkpt>
      <trkpt lat="43.60121" lon="3.60404">
        <ele>195.765625</ele>
        <time>2014-04-26T09:42:06Z</time>
      </trkpt>
      <trkpt lat="43.60145" lon="3.60422">
        <ele>195.765625</ele>
        <time>2014-04-26T09:42:13Z</time>
      </trkpt>
      <trkpt lat="43.60155" lon="3.60433">
        <ele>196.2463379</ele>
        <time>2014-04-26T09:42:16Z</time>
      </trkpt>
      <trkpt lat="43.60185" lon="3.60463">
        <ele>194.8043213</ele>
        <time>2014-04-26T09:42:24Z</time>
      </trkpt>
      <trkpt lat="43.60198" lon="3.60473">
        <ele>193.3623047</ele>
        <time>2014-04-26T09:42:27Z</time>
      </trkpt>
      <trkpt lat="43.60217" lon="3.60489">
        <ele>191.4395752</ele>
        <time>2014-04-26T09:42:32Z</time>
      </trkpt>
      <trkpt lat="43.60224" lon="3.60489">
        <ele>190.4783936</ele>
        <time>2014-04-26T09:42:34Z</time>
      </trkpt>
      <trkpt lat="43.60241" lon="3.60479">
        <ele>189.5169678</ele>
        <time>2014-04-26T09:42:39Z</time>
      </trkpt>
      <trkpt lat="43.60248" lon="3.60484">
        <ele>187.5943604</ele>
        <time>2014-04-26T09:42:45Z</time>
      </trkpt>
      <trkpt lat="43.60259" lon="3.60507">
        <ele>184.7105713</ele>
        <time>2014-04-26T09:42:51Z</time>
      </trkpt>
      <trkpt lat="43.60268" lon="3.60513">
        <ele>185.1911621</ele>
        <time>2014-04-26T09:42:56Z</time>
      </trkpt>
      <trkpt lat="43.60272" lon="3.60516">
        <ele>185.6717529</ele>
        <time>2014-04-26T09:42:59Z</time>
      </trkpt>
      <trkpt lat="43.60275" lon="3.6052">
        <ele>186.1524658</ele>
        <time>2014-04-26T09:43:04Z</time>
      </trkpt>
      <trkpt lat="43.60275" lon="3.6052">
        <ele>185.6717529</ele>
        <time>2014-04-26T09:43:13Z</time>
      </trkpt>
      <trkpt lat="43.60284" lon="3.60532">
        <ele>186.6331787</ele>
        <time>2014-04-26T09:43:18Z</time>
      </trkpt>
      <trkpt lat="43.603" lon="3.60545">
        <ele>188.5557861</ele>
        <time>2014-04-26T09:43:25Z</time>
      </trkpt>
      <trkpt lat="43.60318" lon="3.60545">
        <ele>190.9589844</ele>
        <time>2014-04-26T09:43:32Z</time>
      </trkpt>
      <trkpt lat="43.60338" lon="3.60538">
        <ele>189.9976807</ele>
        <time>2014-04-26T09:43:39Z</time>
      </trkpt>
      <trkpt lat="43.60365" lon="3.60533">
        <ele>189.5169678</ele>
        <time>2014-04-26T09:43:45Z</time>
      </trkpt>
      <trkpt lat="43.60389" lon="3.60525">
        <ele>189.9976807</ele>
        <time>2014-04-26T09:43:51Z</time>
      </trkpt>
      <trkpt lat="43.60423" lon="3.60515">
        <ele>189.036377</ele>
        <time>2014-04-26T09:43:58Z</time>
      </trkpt>
      <trkpt lat="43.60453" lon="3.60501">
        <ele>187.1137695</ele>
        <time>2014-04-26T09:44:04Z</time>
      </trkpt>
      <trkpt lat="43.60459" lon="3.60498">
        <ele>186.6331787</ele>
        <time>2014-04-26T09:44:05Z</time>
      </trkpt>
      <trkpt lat="43.60511" lon="3.60485">
        <ele>186.6331787</ele>
        <time>2014-04-26T09:44:14Z</time>
      </trkpt>
      <trkpt lat="43.60535" lon="3.60469">
        <ele>184.7105713</ele>
        <time>2014-04-26T09:44:19Z</time>
      </trkpt>
      <trkpt lat="43.60558" lon="3.60453">
        <ele>182.3071289</ele>
        <time>2014-04-26T09:44:25Z</time>
      </trkpt>
      <trkpt lat="43.60582" lon="3.60436">
        <ele>180.3845215</ele>
        <time>2014-04-26T09:44:32Z</time>
      </trkpt>
      <trkpt lat="43.60613" lon="3.60413">
        <ele>178.942627</ele>
        <time>2014-04-26T09:44:40Z</time>
      </trkpt>
      <trkpt lat="43.6062" lon="3.6041">
        <ele>178.942627</ele>
        <time>2014-04-26T09:44:42Z</time>
      </trkpt>
      <trkpt lat="43.60625" lon="3.60421">
        <ele>179.4232178</ele>
        <time>2014-04-26T09:44:46Z</time>
      </trkpt>
      <trkpt lat="43.60629" lon="3.60447">
        <ele>181.3458252</ele>
        <time>2014-04-26T09:44:51Z</time>
      </trkpt>
      <trkpt lat="43.60633" lon="3.60487">
        <ele>183.7490234</ele>
        <time>2014-04-26T09:44:58Z</time>
      </trkpt>
      <trkpt lat="43.60635" lon="3.60504">
        <ele>184.7105713</ele>
        <time>2014-04-26T09:45:01Z</time>
      </trkpt>
      <trkpt lat="43.60637" lon="3.60532">
        <ele>184.7105713</ele>
        <time>2014-04-26T09:45:07Z</time>
      </trkpt>
      <trkpt lat="43.60641" lon="3.60553">
        <ele>184.7105713</ele>
        <time>2014-04-26T09:45:13Z</time>
      </trkpt>
      <trkpt lat="43.60643" lon="3.60579">
        <ele>184.2298584</ele>
        <time>2014-04-26T09:45:19Z</time>
      </trkpt>
      <trkpt lat="43.60643" lon="3.60614">
        <ele>185.1911621</ele>
        <time>2014-04-26T09:45:27Z</time>
      </trkpt>
      <trkpt lat="43.60645" lon="3.6065">
        <ele>187.1137695</ele>
        <time>2014-04-26T09:45:35Z</time>
      </trkpt>
      <trkpt lat="43.60648" lon="3.60681">
        <ele>189.5169678</ele>
        <time>2014-04-26T09:45:42Z</time>
      </trkpt>
      <trkpt lat="43.60658" lon="3.60714">
        <ele>191.4395752</ele>
        <time>2014-04-26T09:45:50Z</time>
      </trkpt>
      <trkpt lat="43.60677" lon="3.60746">
        <ele>193.3623047</ele>
        <time>2014-04-26T09:45:59Z</time>
      </trkpt>
      <trkpt lat="43.60701" lon="3.6077">
        <ele>194.3237305</ele>
        <time>2014-04-26T09:46:06Z</time>
      </trkpt>
      <trkpt lat="43.60719" lon="3.60793">
        <ele>194.3237305</ele>
        <time>2014-04-26T09:46:11Z</time>
      </trkpt>
      <trkpt lat="43.60747" lon="3.60849">
        <ele>195.765625</ele>
        <time>2014-04-26T09:46:21Z</time>
      </trkpt>
      <trkpt lat="43.60773" lon="3.60889">
        <ele>197.2075195</ele>
        <time>2014-04-26T09:46:29Z</time>
      </trkpt>
      <trkpt lat="43.60802" lon="3.60928">
        <ele>200.0916748</ele>
        <time>2014-04-26T09:46:37Z</time>
      </trkpt>
      <trkpt lat="43.60829" lon="3.60966">
        <ele>201.5335693</ele>
        <time>2014-04-26T09:46:45Z</time>
      </trkpt>
      <trkpt lat="43.60859" lon="3.61016">
        <ele>203.4561768</ele>
        <time>2014-04-26T09:46:55Z</time>
      </trkpt>
      <trkpt lat="43.60879" lon="3.61051">
        <ele>203.9368896</ele>
        <time>2014-04-26T09:47:02Z</time>
      </trkpt>
      <trkpt lat="43.609" lon="3.61086">
        <ele>203.9368896</ele>
        <time>2014-04-26T09:47:09Z</time>
      </trkpt>
      <trkpt lat="43.60923" lon="3.61119">
        <ele>203.9368896</ele>
        <time>2014-04-26T09:47:16Z</time>
      </trkpt>
      <trkpt lat="43.60946" lon="3.61148">
        <ele>204.4174805</ele>
        <time>2014-04-26T09:47:24Z</time>
      </trkpt>
      <trkpt lat="43.60969" lon="3.61172">
        <ele>205.3787842</ele>
        <time>2014-04-26T09:47:33Z</time>
      </trkpt>
      <trkpt lat="43.60995" lon="3.61198">
        <ele>206.8206787</ele>
        <time>2014-04-26T09:47:43Z</time>
      </trkpt>
      <trkpt lat="43.61028" lon="3.6123">
        <ele>208.2628174</ele>
        <time>2014-04-26T09:47:54Z</time>
      </trkpt>
      <trkpt lat="43.61057" lon="3.61259">
        <ele>209.704834</ele>
        <time>2014-04-26T09:48:03Z</time>
      </trkpt>
      <trkpt lat="43.6109" lon="3.6129">
        <ele>210.6660156</ele>
        <time>2014-04-26T09:48:14Z</time>
      </trkpt>
      <trkpt lat="43.61119" lon="3.61318">
        <ele>211.6274414</ele>
        <time>2014-04-26T09:48:23Z</time>
      </trkpt>
      <trkpt lat="43.61126" lon="3.61324">
        <ele>211.6274414</ele>
        <time>2014-04-26T09:48:25Z</time>
      </trkpt>
      <trkpt lat="43.61159" lon="3.61357">
        <ele>212.1080322</ele>
        <time>2014-04-26T09:48:34Z</time>
      </trkpt>
      <trkpt lat="43.61188" lon="3.61386">
        <ele>213.5500488</ele>
        <time>2014-04-26T09:48:42Z</time>
      </trkpt>
      <trkpt lat="43.61216" lon="3.61416">
        <ele>215.4726563</ele>
        <time>2014-04-26T09:48:51Z</time>
      </trkpt>
      <trkpt lat="43.61242" lon="3.61446">
        <ele>216.9146729</ele>
        <time>2014-04-26T09:49:00Z</time>
      </trkpt>
      <trkpt lat="43.61262" lon="3.61478">
        <ele>218.8372803</ele>
        <time>2014-04-26T09:49:09Z</time>
      </trkpt>
      <trkpt lat="43.6128" lon="3.61505">
        <ele>219.3179932</ele>
        <time>2014-04-26T09:49:18Z</time>
      </trkpt>
      <trkpt lat="43.61286" lon="3.61518">
        <ele>219.798584</ele>
        <time>2014-04-26T09:49:23Z</time>
      </trkpt>
      <trkpt lat="43.61295" lon="3.61524">
        <ele>219.798584</ele>
        <time>2014-04-26T09:49:29Z</time>
      </trkpt>
      <trkpt lat="43.61305" lon="3.61527">
        <ele>219.798584</ele>
        <time>2014-04-26T09:49:35Z</time>
      </trkpt>
      <trkpt lat="43.61306" lon="3.61521">
        <ele>219.798584</ele>
        <time>2014-04-26T09:49:40Z</time>
      </trkpt>
      <trkpt lat="43.61304" lon="3.6152">
        <ele>219.798584</ele>
        <time>2014-04-26T09:49:41Z</time>
      </trkpt>
      <trkpt lat="43.61298" lon="3.61518">
        <ele>219.798584</ele>
        <time>2014-04-26T09:49:43Z</time>
      </trkpt>
    </trkseg>
  </trk>
</gpx>